[[{"header":{"parameterUnit":"m.s-1","parameterCategory":1,"la1":30.6,"la2":28.766,"lo1":-90.7593,"lo2":-88.6598,"dx":0.0162,"dy":0.0183,"nx":116,"ny":114,"refTime":"2022-11-25T06:00:00:Z","depth":0,"parameterNumber":2,"parameterNumberName":"U-component_of_WINDS"},"data":[0.0,0.0,0.0,0.0,0.0,0.0,0.0,0.0,0.0,0.0,0.0,0.0,0.0,0.0,0.0,0.0,0.0,0.0,0.0,0.0,0.0,0.0,0.0,0.0,0.0,0.0,0.0,0.0,0.0,0.0,0.0,0.0,0.0,0.0,0.0,0.0,0.0,0.0,0.0,0.0,0.0,0.0,0.0,0.0,0.0,0.0,0.0,0.0,0.0,0.0,0.0,0.0,0.0,0.0,0.0,0.0,0.0,0.0,0.0,0.0,0.0,0.0,0.0,0.0,0.0,0.0,0.0,0.0,0.0,0.0,0.0,0.0,0.0,0.0,0.0,0.0,0.0,0.0,0.0,0.0,0.0,0.0,0.0,0.0,0.0,0.0,0.0,0.0,0.0,0.0,0.0,0.0,0.0,0.0,0.0,0.0,0.0,0.0,0.0,0.0,0.0,0.0,0.0,0.0,0.0,0.0,0.0,0.0,0.0,0.0,0.0,0.0,0.0,0.0,0.0,0.0,0.0,0.0,0.0,0.0,0.0,0.0,0.0,0.0,0.0,0.0,0.0,0.0,0.0,0.0,0.0,0.0,0.0,0.0,0.0,0.0,0.0,0.0,0.0,0.0,0.0,0.0,0.0,0.0,0.0,0.0,0.0,0.0,0.0,0.0,0.0,0.0,0.0,0.0,0.0,0.0,0.0,0.0,0.0,0.0,0.0,0.0,0.0,0.0,0.0,0.0,0.0,0.0,0.0,0.0,0.0,0.0,0.0,0.0,0.0,0.0,0.0,0.0,0.0,0.0,0.0,0.0,0.0,0.0,0.0,0.0,0.0,0.0,0.0,0.0,0.0,0.0,0.0,0.0,0.0,0.0,0.0,0.0,0.0,0.0,0.0,0.0,0.0,0.0,0.0,0.0,0.0,0.0,0.0,0.0,0.0,0.0,0.0,0.0,0.0,0.0,0.0,0.0,0.0,0.0,0.0,0.0,0.0,0.0,0.0,0.0,0.0,0.0,0.0,0.0,0.0,0.0,0.0,0.0,0.0,0.0,0.0,0.0,0.0,0.0,0.0,0.0,0.0,0.0,0.0,0.0,0.0,0.0,0.0,0.0,0.0,0.0,0.0,0.0,0.0,0.0,0.0,0.0,0.0,0.0,0.0,0.0,0.0,0.0,0.0,0.0,0.0,0.0,0.0,0.0,0.0,0.0,0.0,0.0,0.0,0.0,0.0,0.0,0.0,0.0,0.0,0.0,0.0,0.0,0.0,0.0,0.0,0.0,0.0,0.0,0.0,0.0,0.0,0.0,0.0,0.0,0.0,0.0,0.0,0.0,0.0,0.0,0.0,0.0,0.0,0.0,0.0,0.0,0.0,0.0,0.0,0.0,0.0,0.0,0.0,0.0,0.0,0.0,0.0,0.0,0.0,0.0,0.0,0.0,0.0,0.0,0.0,0.0,0.0,0.0,0.0,0.0,0.0,0.0,0.0,0.0,0.0,0.0,0.0,0.0,0.0,0.0,0.0,0.0,0.0,0.0,0.0,0.0,0.0,0.0,0.0,0.0,0.0,0.0,0.0,0.0,0.0,0.0,0.0,0.0,0.0,0.0,0.0,0.0,0.0,0.0,0.0,0.0,0.0,0.0,0.0,0.0,0.0,0.0,0.0,0.0,0.0,0.0,0.0,0.0,0.0,0.0,0.0,0.0,0.0,0.0,0.0,0.0,0.0,0.0,0.0,0.0,0.0,0.0,0.0,0.0,0.0,0.0,0.0,0.0,0.0,0.0,0.0,0.0,0.0,0.0,0.0,0.0,0.0,0.0,0.0,0.0,0.0,0.0,0.0,0.0,0.0,0.0,0.0,0.0,0.0,0.0,0.0,0.0,0.0,0.0,0.0,0.0,0.0,0.0,0.0,0.0,0.0,0.0,0.0,0.0,0.0,0.0,0.0,0.0,0.0,0.0,0.0,0.0,0.0,0.0,0.0,0.0,0.0,0.0,0.0,0.0,0.0,0.0,0.0,0.0,0.0,0.0,0.0,0.0,0.0,0.0,0.0,0.0,0.0,0.0,0.0,0.0,0.0,0.0,0.0,0.0,0.0,0.0,0.0,0.0,0.0,0.0,0.0,0.0,0.0,0.0,0.0,0.0,0.0,0.0,0.0,0.0,0.0,0.0,0.0,0.0,0.0,0.0,0.0,0.0,0.0,0.0,0.0,0.0,0.0,0.0,0.0,0.0,0.0,0.0,0.0,0.0,0.0,0.0,0.0,0.0,0.0,0.0,0.0,0.0,0.0,0.0,0.0,0.0,0.0,0.0,0.0,0.0,0.0,0.0,0.0,0.0,0.0,0.0,0.0,0.0,0.0,0.0,0.0,0.0,0.0,0.0,0.0,0.0,0.0,0.0,0.0,0.0,0.0,0.0,0.0,0.0,0.0,0.0,0.0,0.0,0.0,0.0,0.0,0.0,0.0,0.0,0.0,0.0,0.0,0.0,0.0,0.0,0.0,0.0,0.0,0.0,0.0,0.0,0.0,0.0,0.0,0.0,0.0,0.0,0.0,0.0,0.0,0.0,0.0,0.0,0.0,0.0,0.0,0.0,0.0,0.0,0.0,0.0,0.0,0.0,0.0,0.0,0.0,0.0,0.0,0.0,0.0,0.0,0.0,0.0,0.0,0.0,0.0,0.0,0.0,0.0,0.0,0.0,0.0,0.0,0.0,0.0,0.0,0.0,0.0,0.0,0.0,0.0,0.0,0.0,0.0,0.0,0.0,0.0,0.0,0.0,0.0,0.0,0.0,0.0,0.0,0.0,0.0,0.0,0.0,0.0,0.0,0.0,0.0,0.0,0.0,0.0,0.0,0.0,0.0,0.0,0.0,0.0,0.0,0.0,0.0,0.0,0.0,0.0,0.0,0.0,0.0,0.0,0.0,0.0,0.0,0.0,0.0,0.0,0.0,0.0,0.0,0.0,0.0,0.0,0.0,0.0,0.0,0.0,0.0,0.0,0.0,0.0,0.0,0.0,0.0,0.0,0.0,0.0,0.0,0.0,0.0,0.0,0.0,0.0,0.0,0.0,0.0,0.0,0.0,0.0,0.0,0.0,0.0,0.0,0.0,0.0,0.0,0.0,0.0,0.0,0.0,0.0,0.0,0.0,0.0,0.0,0.0,0.0,0.0,0.0,0.0,0.0,0.0,0.0,0.0,0.0,0.0,0.0,0.0,0.0,0.0,0.0,0.0,0.0,0.0,0.0,0.0,0.0,0.0,0.0,0.0,0.0,0.0,0.0,0.0,0.0,0.0,0.0,0.0,0.0,0.0,0.0,0.0,0.0,0.0,0.0,0.0,0.0,0.0,0.0,0.0,0.0,0.0,0.0,0.0,0.0,0.0,0.0,0.0,0.0,0.0,0.0,0.0,0.0,0.0,0.0,0.0,0.0,0.0,0.0,0.0,0.0,0.0,0.0,0.0,0.0,0.0,0.0,0.0,0.0,0.0,0.0,0.0,0.0,0.0,0.0,0.0,0.0,0.0,0.0,0.0,0.0,0.0,0.0,0.0,0.0,0.0,0.0,0.0,0.0,0.0,0.0,0.0,0.0,0.0,0.0,0.0,0.0,0.0,0.0,0.0,0.0,0.0,0.0,0.0,0.0,0.0,0.0,0.0,0.0,0.0,0.0,0.0,0.0,0.0,0.0,0.0,0.0,0.0,0.0,0.0,0.0,0.0,0.0,0.0,0.0,0.0,0.0,0.0,0.0,0.0,0.0,0.0,0.0,0.0,0.0,0.0,0.0,0.0,0.0,0.0,0.0,0.0,0.0,0.0,0.0,0.0,0.0,0.0,0.0,0.0,0.0,0.0,0.0,0.0,0.0,0.0,0.0,0.0,0.0,0.0,0.0,0.0,0.0,0.0,0.0,0.0,0.0,0.0,0.0,0.0,0.0,0.0,0.0,0.0,0.0,0.0,0.0,0.0,0.0,0.0,0.0,0.0,0.0,0.0,0.0,0.0,0.0,0.0,0.0,0.0,0.0,0.0,0.0,0.0,0.0,0.0,0.0,0.0,0.0,0.0,0.0,0.0,0.0,0.0,0.0,0.0,0.0,0.0,0.0,0.0,0.0,0.0,0.0,0.0,0.0,0.0,0.0,0.0,0.0,0.0,0.0,0.0,0.0,0.0,0.0,0.0,0.0,0.0,0.0,0.0,0.0,0.0,0.0,0.0,0.0,0.0,0.0,0.0,0.0,0.0,0.0,0.0,0.0,0.0,0.0,0.0,0.0,0.0,0.0,0.0,0.0,0.0,0.0,0.0,0.0,0.0,0.0,0.0,0.0,0.0,0.0,0.0,0.0,0.0,0.0,0.0,0.0,0.0,0.0,0.0,0.0,0.0,0.0,0.0,0.0,0.0,0.0,0.0,0.0,0.0,0.0,0.0,0.0,0.0,0.0,0.0,0.0,0.0,0.0,0.0,0.0,0.0,0.0,0.0,0.0,0.0,0.0,0.0,0.0,0.0,0.0,0.0,0.0,0.0,0.0,0.0,0.0,0.0,0.0,0.0,0.0,0.0,0.0,0.0,0.0,0.0,0.0,0.0,0.0,0.0,0.0,0.0,0.0,0.0,0.0,0.0,0.0,0.0,0.0,0.0,0.0,0.0,0.0,0.0,0.0,0.0,0.0,0.0,0.0,0.0,0.0,0.0,0.0,0.0,0.0,0.0,0.0,0.0,0.0,0.0,0.0,0.0,0.0,0.0,0.0,0.0,0.0,0.0,0.0,0.0,0.0,0.0,0.0,0.0,0.0,0.0,0.0,0.0,0.0,0.0,0.0,0.0,0.0,0.0,0.0,0.0,0.0,0.0,0.0,0.0,0.0,0.0,0.0,0.0,0.0,0.0,0.0,0.0,0.0,0.0,0.0,0.0,0.0,0.0,0.0,0.0,0.0,0.0,0.0,0.0,0.0,0.0,0.0,0.0,0.0,0.0,0.0,0.0,0.0,0.0,0.0,0.0,0.0,0.0,0.0,0.0,0.0,0.0,0.0,0.0,0.0,0.0,0.0,0.0,0.0,0.0,0.0,0.0,0.0,0.0,0.0,0.0,0.0,0.0,0.0,0.0,0.0,0.0,0.0,0.0,0.0,0.0,0.0,0.0,0.0,0.0,0.0,0.0,0.0,0.0,0.0,0.0,0.0,0.0,0.0,0.0,0.0,0.0,0.0,0.0,0.0,0.0,0.0,0.0,0.0,0.0,0.0,0.0,0.0,0.0,0.0,0.0,0.0,0.0,0.0,0.0,0.0,0.0,0.0,0.0,0.0,0.0,0.0,0.0,0.0,0.0,0.0,0.0,0.0,0.0,0.0,0.0,0.0,0.0,0.0,0.0,0.0,0.0,0.0,0.0,0.0,0.0,0.0,0.0,0.0,0.0,0.0,0.0,0.0,0.0,0.0,0.0,0.0,0.0,0.0,0.0,0.0,0.0,0.0,0.0,0.0,0.0,0.0,0.0,0.0,0.0,0.0,0.0,0.0,0.0,0.0,0.0,0.0,0.0,0.0,0.0,0.0,0.0,0.0,0.0,0.0,0.0,0.0,0.0,0.0,0.0,0.0,0.0,0.0,0.0,0.0,0.0,0.0,0.0,0.0,0.0,0.0,0.0,0.0,0.0,0.0,0.0,0.0,0.0,0.0,0.0,0.0,0.0,0.0,0.0,0.0,0.0,0.0,0.0,0.0,0.0,0.0,0.0,0.0,0.0,0.0,0.0,0.0,0.0,0.0,0.0,0.0,0.0,0.0,0.0,0.0,0.0,0.0,0.0,0.0,0.0,0.0,0.0,0.0,0.0,0.0,0.0,0.0,0.0,0.0,0.0,0.0,0.0,0.0,0.0,0.0,0.0,0.0,0.0,0.0,0.0,0.0,0.0,0.0,0.0,0.0,0.0,0.0,0.0,0.0,0.0,0.0,0.0,0.0,0.0,0.0,0.0,0.0,0.0,0.0,0.0,0.0,0.0,0.0,0.0,0.0,0.0,0.0,0.0,0.0,0.0,0.0,0.0,0.0,0.0,0.0,0.0,0.0,0.0,0.0,0.0,0.0,0.0,0.0,0.0,0.0,-2.2047,-2.0791,0.0,0.0,0.0,0.0,0.0,0.0,0.0,0.0,0.0,0.0,0.0,0.0,0.0,0.0,0.0,0.0,0.0,0.0,0.0,0.0,0.0,0.0,0.0,-1.8301,-1.8498,-1.8498,-1.8498,0.0,0.0,0.0,0.0,0.0,0.0,0.0,-1.804,-1.8329,-1.8638,-1.8947,-1.8426,-1.8104,-1.7917,-1.7153,-1.6551,-1.6132,0.0,0.0,0.0,0.0,0.0,0.0,0.0,0.0,0.0,0.0,0.0,0.0,0.0,0.0,0.0,0.0,0.0,0.0,0.0,0.0,0.0,0.0,0.0,0.0,0.0,0.0,0.0,0.0,0.0,0.0,0.0,0.0,0.0,0.0,0.0,0.0,0.0,0.0,0.0,0.0,0.0,0.0,0.0,0.0,0.0,0.0,0.0,0.0,0.0,0.0,0.0,0.0,0.0,0.0,0.0,0.0,0.0,0.0,0.0,0.0,0.0,0.0,0.0,0.0,0.0,0.0,0.0,0.0,0.0,0.0,-2.3762,-2.2637,0.0,0.0,0.0,0.0,0.0,0.0,0.0,0.0,0.0,0.0,0.0,0.0,0.0,0.0,0.0,0.0,0.0,0.0,0.0,0.0,0.0,-1.842,-1.8498,-1.8439,-1.84,-1.84,-1.8459,-1.8478,-1.84,-1.8478,0.0,0.0,0.0,0.0,-1.8666,-1.8671,-1.8938,-1.9419,-1.8822,-1.839,-1.8113,-1.7824,-1.7411,-1.6943,-1.7217,0.0,0.0,0.0,0.0,0.0,0.0,0.0,0.0,0.0,0.0,0.0,0.0,0.0,0.0,0.0,0.0,0.0,0.0,0.0,0.0,0.0,0.0,0.0,0.0,0.0,0.0,0.0,0.0,0.0,0.0,0.0,0.0,0.0,0.0,0.0,0.0,0.0,0.0,0.0,0.0,0.0,0.0,0.0,0.0,0.0,0.0,0.0,0.0,0.0,0.0,0.0,0.0,0.0,0.0,0.0,0.0,0.0,0.0,0.0,0.0,0.0,0.0,0.0,-2.6681,-2.7485,-2.844,-2.8743,-2.882,-2.851,-2.5644,-2.488,-2.5631,-2.4322,0.0,0.0,0.0,0.0,0.0,0.0,0.0,0.0,0.0,0.0,0.0,0.0,0.0,0.0,0.0,0.0,0.0,0.0,0.0,-1.8055,-1.8459,-1.8135,-1.7888,-1.7888,-1.8254,-1.8341,-1.7935,-1.8372,0.0,0.0,0.0,-1.9385,-1.9263,-1.9415,-1.95,-1.9581,-1.8633,-1.8162,-1.821,-1.8592,-1.8762,-1.8645,-1.775,-1.7316,-1.7147,0.0,0.0,0.0,0.0,0.0,0.0,0.0,0.0,0.0,0.0,0.0,0.0,0.0,0.0,0.0,0.0,0.0,0.0,0.0,0.0,0.0,0.0,0.0,0.0,0.0,0.0,0.0,0.0,0.0,0.0,0.0,0.0,0.0,0.0,0.0,0.0,0.0,0.0,0.0,0.0,0.0,-2.2044,-2.1932,0.0,0.0,0.0,0.0,0.0,0.0,0.0,0.0,0.0,0.0,0.0,0.0,0.0,-2.6652,-2.6875,-2.6388,-2.678,-2.8011,-2.886,-2.9458,-2.99,-3.1341,-3.1555,-3.0666,-2.9764,0.0,-2.7833,-2.8276,0.0,0.0,0.0,0.0,0.0,0.0,0.0,0.0,0.0,0.0,0.0,0.0,0.0,0.0,0.0,0.0,0.0,0.0,0.0,0.0,0.0,-1.8458,-1.8488,-1.7967,-1.8648,-1.8901,-1.838,-1.8901,0.0,0.0,-1.943,-1.9568,-1.9525,-1.9516,-1.9729,-2.0114,-2.0016,-1.9968,-2.0009,-2.0225,-2.0514,-2.0754,-1.9985,-1.8999,-1.782,-1.7267,0.0,0.0,0.0,0.0,0.0,0.0,0.0,0.0,0.0,0.0,0.0,0.0,0.0,0.0,0.0,0.0,0.0,0.0,0.0,0.0,0.0,0.0,0.0,0.0,0.0,0.0,0.0,0.0,0.0,0.0,0.0,0.0,0.0,0.0,0.0,0.0,0.0,0.0,0.0,-2.1063,-2.1863,-2.2421,-2.2628,-2.2416,0.0,0.0,0.0,0.0,0.0,0.0,0.0,0.0,0.0,-2.8171,-2.8402,-2.8519,-2.8437,-2.8319,-2.9085,-3.0771,-3.1137,-3.1889,-3.3016,-3.3726,-3.3714,-3.3175,-3.3256,-3.2932,-3.2211,-3.0537,-2.9389,-2.8642,0.0,0.0,0.0,0.0,-2.7176,-2.742,0.0,0.0,0.0,0.0,0.0,0.0,0.0,0.0,0.0,0.0,0.0,0.0,-1.7846,-1.8594,-1.8795,-1.8093,-1.8977,-1.9378,-1.8852,-1.9333,-1.9655,-1.9773,-2.0026,-2.0139,-2.0093,-2.01,-2.0322,-2.0736,-2.1216,-2.1584,-2.1813,-2.1813,-2.2101,-2.2614,-2.2053,-2.0779,-1.8975,-1.8157,-1.782,-1.7748,0.0,0.0,0.0,0.0,0.0,0.0,0.0,0.0,0.0,0.0,0.0,0.0,0.0,0.0,0.0,0.0,0.0,0.0,0.0,0.0,0.0,0.0,0.0,0.0,0.0,0.0,0.0,0.0,0.0,0.0,0.0,0.0,0.0,0.0,0.0,0.0,0.0,-2.2226,-2.3081,-2.3479,-2.4517,-2.4715,0.0,0.0,0.0,0.0,0.0,0.0,-3.0171,-3.045,-3.0663,-3.092,-3.1233,-3.1246,-3.09,-3.0949,-3.1755,-3.3394,-3.3426,-3.4207,-3.5626,-3.5939,-3.6015,-3.5806,-3.5864,-3.6072,-3.6165,-3.3131,-3.2113,-3.2333,-3.1553,-3.0762,-3.0161,-3.0581,-3.0729,-3.0951,0.0,0.0,0.0,0.0,0.0,0.0,0.0,0.0,0.0,0.0,0.0,-1.7502,-1.7943,-1.8076,-1.8152,-1.8105,-1.9035,-1.94,-1.8921,-1.9418,-1.9885,-2.0247,-2.1168,-2.1597,-2.1406,-2.1637,-2.1619,-2.1337,-2.151,-2.2068,-2.2927,-2.2927,-2.3216,-2.3697,-2.3168,-2.2294,-2.1139,-1.9576,-1.8903,-1.8831,-1.7796,0.0,0.0,0.0,0.0,0.0,0.0,0.0,0.0,0.0,0.0,0.0,0.0,0.0,0.0,0.0,0.0,0.0,0.0,0.0,0.0,0.0,0.0,0.0,0.0,0.0,0.0,0.0,0.0,0.0,0.0,0.0,0.0,0.0,0.0,0.0,0.0,0.0,0.0,-2.6197,-2.8443,0.0,0.0,0.0,0.0,-2.9831,-2.9915,-3.1099,-3.3695,-3.3843,-3.4689,-3.645,-3.6522,-3.6394,-3.6135,-3.5085,-3.4847,-3.5435,-3.57,-3.6144,-3.6741,-3.8036,-3.861,-3.8533,-3.7169,-3.7352,-3.8512,-3.688,-3.5501,-3.4334,-3.4308,-3.3469,-3.2531,-3.404,-3.4607,-3.4807,0.0,0.0,0.0,-1.7261,-1.7523,-1.7747,-1.7605,-1.7585,-1.7725,-1.8078,-1.7909,-1.7837,-1.8035,-1.9014,-1.9234,-1.8265,-1.9424,-2.003,-1.953,-2.0444,-2.1029,-2.1121,-2.198,-2.2247,-2.1776,-2.2043,-2.2346,-2.257,-2.2972,-2.3676,-2.4745,-2.4347,-2.4628,-2.5428,-2.443,-2.3761,-2.328,-2.1356,-2.0346,-1.9937,-1.8855,-1.8422,0.0,0.0,0.0,0.0,0.0,0.0,0.0,0.0,0.0,0.0,0.0,0.0,0.0,0.0,0.0,0.0,0.0,0.0,0.0,0.0,0.0,0.0,0.0,0.0,0.0,0.0,0.0,0.0,0.0,0.0,0.0,0.0,0.0,0.0,0.0,0.0,0.0,-2.7782,-2.9946,0.0,-3.0163,-3.1314,-3.2455,-3.3148,-3.4114,-3.5172,-3.6279,-3.6498,-3.6924,-3.7505,-3.7553,-3.7498,-3.7411,-3.7029,-3.7043,-3.7614,-3.7668,-3.806,-3.8633,-3.9093,-3.914,-3.88,-3.8669,-3.8635,-3.8816,-3.863,-3.7963,-3.6998,-3.7221,-3.6796,-3.6143,-3.667,-3.6894,-3.7019,0.0,0.0,0.0,-1.722,-1.7523,-1.7707,-1.74,-1.7359,-1.7508,-1.7891,-1.7862,-1.7949,-1.8339,-1.9531,-1.9914,-1.9078,-2.0215,-2.0806,-2.0425,-2.1243,-2.19,-2.2226,-2.2977,-2.3228,-2.2815,-2.309,-2.3413,-2.3823,-2.4459,-2.5193,-2.6039,-2.5809,-2.6102,-2.6736,-2.5815,-2.5237,-2.4826,-2.3336,-2.2125,-2.1067,-2.0177,-1.9696,-1.9432,0.0,0.0,0.0,0.0,0.0,0.0,0.0,0.0,0.0,0.0,0.0,0.0,0.0,0.0,0.0,0.0,0.0,0.0,0.0,0.0,0.0,0.0,0.0,0.0,0.0,0.0,0.0,0.0,0.0,0.0,0.0,0.0,0.0,0.0,-2.8485,-3.0384,-2.9407,-3.1994,-3.3444,-3.2513,-3.4061,-3.5517,-3.6452,-3.7444,-3.8263,-3.884,-3.9018,-3.9086,-3.9067,-3.9038,-3.9032,-3.907,-3.9038,-3.9332,-3.9913,-3.9664,-3.9909,-4.0489,-4.0263,-3.997,-3.9707,-4.0084,-3.9993,-3.9646,-4.0092,-3.9919,-3.9364,-3.9244,-3.8919,-3.8567,-3.8567,-3.8693,-3.8944,0.0,0.0,-1.7646,-1.7282,-1.7503,-1.7503,-1.665,-1.6543,-1.6595,-1.6639,-1.7147,-1.7894,-1.8903,-1.9534,-2.0065,-2.0562,-2.1216,-2.161,-2.1633,-2.1827,-2.2421,-2.3518,-2.423,-2.4588,-2.4601,-2.4779,-2.4937,-2.5124,-2.5862,-2.6431,-2.6771,-2.7274,-2.7521,-2.7545,-2.7322,-2.6651,-2.5738,-2.5454,-2.4145,-2.2246,-2.1668,-2.1115,-2.061,0.0,0.0,0.0,0.0,0.0,0.0,0.0,0.0,0.0,0.0,0.0,0.0,0.0,0.0,0.0,0.0,0.0,0.0,0.0,0.0,0.0,0.0,0.0,0.0,0.0,0.0,0.0,0.0,0.0,0.0,0.0,0.0,0.0,-2.8279,-3.0778,-3.2468,-3.1264,-3.4699,-3.6762,-3.5547,-3.7039,-3.8517,-3.9647,-3.9747,-4.0199,-4.1225,-4.1275,-4.13,-4.13,-4.13,-4.1326,-4.1351,-4.1351,-4.1681,-4.2288,-4.1706,-4.1731,-4.2263,-4.1681,-4.1376,-4.1326,-4.1326,-4.1326,-4.1275,-4.1275,-4.1275,-4.1175,-4.0174,-3.9747,-3.9747,-3.9747,-4.0099,-4.0651,-1.7199,-1.7303,-1.7344,-1.722,-1.7303,-1.7282,-1.7052,-1.7708,-1.8092,-1.7736,-1.8926,-1.9725,-1.9594,-2.0405,-2.092,-2.0762,-2.1272,-2.1823,-2.2357,-2.2941,-2.375,-2.4823,-2.4792,-2.4668,-2.4525,-2.5344,-2.5816,-2.5921,-2.6873,-2.763,-2.8139,-2.7829,-2.7965,-2.8337,-2.7568,-2.704,-2.6749,-2.6154,-2.5324,-2.4314,-2.2654,-2.1885,-2.1668,0.0,0.0,0.0,0.0,0.0,0.0,0.0,0.0,0.0,0.0,0.0,0.0,0.0,0.0,0.0,0.0,0.0,0.0,0.0,0.0,0.0,0.0,0.0,0.0,0.0,0.0,0.0,0.0,0.0,0.0,0.0,-3.1422,-3.2916,-3.1631,-3.3707,-3.5397,-3.547,-3.6846,-3.799,-3.8442,-3.8918,-3.9697,-4.0802,-4.0824,-4.0974,-4.1275,-4.1275,-4.153,-4.1907,-4.1932,-4.2308,-4.3112,-4.3112,-4.3388,-4.394,-4.379,-4.379,-4.394,-4.379,-4.3288,-4.2534,-4.2534,-4.2082,-4.1275,-4.1275,-4.1275,-4.125,-4.1003,-4.0824,-4.0824,-4.0824,-4.1229,-4.1681,-1.7199,-1.7199,-1.7199,-1.7199,-1.7199,-1.7136,-1.6947,-1.7903,-1.853,-1.8196,-1.9511,-2.0397,-2.0165,-2.1165,-2.1657,-2.1165,-2.2135,-2.2892,-2.3084,-2.4028,-2.4739,-2.5141,-2.5365,-2.5477,-2.5319,-2.6193,-2.6766,-2.6991,-2.7839,-2.845,-2.8775,-2.87,-2.8825,-2.9124,-2.8434,-2.8011,-2.779,-2.7173,-2.6481,-2.5623,-2.4107,-2.3232,-2.2782,-2.1933,-2.1476,-2.1211,-2.0658,-2.0129,-1.9624,-1.9312,0.0,0.0,0.0,0.0,0.0,0.0,0.0,0.0,0.0,0.0,0.0,0.0,0.0,0.0,0.0,0.0,0.0,0.0,0.0,0.0,0.0,0.0,0.0,0.0,-3.3956,-3.5565,-3.5414,-3.6618,-3.754,-3.7891,-3.8566,-3.932,-3.9973,-4.0249,-4.0752,-4.1605,-4.1681,-4.1781,-4.2007,-4.2032,-4.2183,-4.2539,-4.2564,-4.2911,-4.379,-4.379,-4.4091,-4.4618,-4.4618,-4.4618,-4.4618,-4.4618,-4.4267,-4.3664,-4.3664,-4.3187,-4.2359,-4.2359,-4.2233,0.0,0.0,0.0,0.0,0.0,-4.1882,-4.2187,-1.7282,-1.7282,-1.7282,-1.7303,-1.722,-1.7052,-1.6731,-1.7635,-1.8345,-1.8289,-1.9541,-2.0452,-2.0594,-2.1796,-2.2393,-2.1805,-2.3392,-2.4289,-2.4035,-2.5026,-2.5443,-2.5073,-2.6005,-2.6524,-2.654,-2.7092,-2.7645,-2.8197,-2.875,-2.8988,-2.8988,-2.9553,-2.9804,-2.9804,-2.9521,-2.917,-2.8761,-2.8268,-2.7454,-2.6493,-2.5816,-2.4878,-2.3818,-2.3312,-2.2775,-2.2318,-2.1837,-2.1284,-2.0774,-2.0774,0.0,0.0,0.0,0.0,0.0,0.0,0.0,0.0,0.0,0.0,0.0,0.0,0.0,0.0,0.0,0.0,0.0,0.0,0.0,0.0,0.0,0.0,0.0,0.0,-3.6483,-3.8467,-3.8994,-3.912,-3.912,-3.912,-3.9973,-4.0626,-4.0701,-4.1153,-4.1656,-4.2263,-4.2313,-4.2514,-4.2961,-4.2986,0.0,0.0,0.0,-4.3263,-4.389,-4.389,-4.4192,-4.4819,-4.4819,-4.4794,-4.4719,-4.4794,-4.4719,-4.4543,-4.4669,-4.4342,-4.3714,-4.379,-4.3463,-4.2886,-4.1907,-4.1476,-4.158,-4.2057,-4.2313,-4.2363,-1.7747,-1.7666,-1.7707,-1.7828,-1.7256,-1.7026,-1.7673,-1.8296,-1.8744,-1.8823,-2.0495,-2.1394,-2.0672,-2.222,-2.3125,-2.2595,-2.3786,-2.4999,-2.6051,-2.579,-2.5937,-2.6693,-2.6578,-2.6631,-2.6916,-2.7598,-2.8222,-2.8737,-2.9352,-2.9628,-2.9628,-2.9754,-2.9804,-2.9804,-2.9521,-2.9369,-2.9206,-2.853,-2.8044,-2.7648,-2.7076,-2.5852,-2.4314,-2.3842,-2.3577,-2.3481,-2.3384,-2.2702,-2.1885,-2.1885,-2.1332,-2.0615,-2.0637,-2.0641,0.0,0.0,0.0,0.0,0.0,0.0,0.0,0.0,0.0,0.0,0.0,0.0,0.0,0.0,0.0,0.0,0.0,0.0,0.0,-3.5877,-3.8216,-4.0074,-4.0174,-4.0576,-4.0701,-4.0249,-4.0777,-4.1354,-4.1806,-4.1986,-4.2233,-4.2785,-4.2866,-4.2861,-4.2961,-4.2986,-4.2986,-4.2986,-4.2986,-4.3463,-4.4443,-4.4468,-4.497,-4.5974,0.0,0.0,-4.5321,-4.5773,-4.5246,-4.4016,-4.492,-4.4493,-4.3162,-4.3614,-4.3463,-4.2961,-4.2735,-4.266,-4.2685,-4.2785,-4.2866,-4.2836,-1.7981,-1.7928,-1.7928,-1.802,-1.7517,-1.7376,-1.8119,-1.8735,-1.9228,-1.9565,-2.1074,-2.1663,-2.0527,-2.2578,-2.3517,-2.2155,-2.342,-2.4816,-2.607,-2.5785,-2.5971,-2.6824,-2.6889,-2.7082,-2.7526,-2.8149,-2.88,-2.9352,-2.9654,-2.9804,-2.9804,-2.9804,-2.9804,-2.9779,-2.9663,-2.9599,-2.9599,-2.9068,-2.8642,-2.8333,-2.7911,-2.6895,-2.5522,-2.4816,-2.4362,-2.4121,-2.389,-2.3489,-2.3095,-2.3095,-2.2625,-2.2061,-2.2212,-2.2075,-2.1834,0.0,0.0,0.0,0.0,0.0,0.0,0.0,0.0,0.0,0.0,0.0,0.0,0.0,0.0,-3.2566,-3.3715,0.0,-3.7136,-3.8266,-3.9597,-4.0601,-4.0824,-4.1404,-4.153,-4.1003,-4.1404,-4.1856,-4.2187,-4.2464,-4.274,-4.2961,-4.2986,-4.2986,-4.2986,-4.2986,-4.2986,-4.2986,-4.2986,-4.3363,-4.4192,-4.4493,-4.5045,-4.5899,-4.5899,-4.605,-4.6301,-4.6024,-4.5748,-4.5497,-4.5773,-4.5271,-4.4242,-4.4217,-4.4041,-4.379,-4.379,-4.3639,-4.3413,-4.3689,-4.379,-4.379,-1.8297,-1.8246,-1.8187,-1.8159,-1.7821,-1.7807,-1.8608,-1.9119,-1.9692,-2.0406,-2.15,-2.1769,-2.0623,-2.2995,-2.401,-2.2485,-2.3607,-2.4807,-2.5906,-2.5881,-2.6103,-2.6654,-2.7351,-2.784,-2.8097,-2.8798,-2.9429,-3.0011,-2.9856,-2.9856,-3.0011,-2.9856,-2.9804,-2.9804,-2.9804,-2.9804,-2.9804,-2.956,-2.9209,-2.8835,-2.8483,-2.7729,-2.6759,-2.5899,-2.5237,-2.4729,-2.4353,-2.4202,-2.4204,-2.4204,-2.3961,-2.368,-2.3839,-2.358,-2.3188,-2.2865,-2.3922,0.0,0.0,0.0,0.0,0.0,0.0,0.0,0.0,-2.9553,-3.0331,-3.2541,-3.3822,-3.5052,-3.6883,-3.7713,-3.8718,-4.04,-4.0852,-4.1153,-4.1605,-4.2032,-4.2183,-4.1802,-4.2108,-4.2363,-4.2363,-4.2766,-4.2986,-4.2986,-4.2986,-4.2986,-4.2986,-4.2986,-4.2986,-4.2986,-4.2986,-4.3288,-4.3966,-4.4518,-4.507,-4.5648,-4.5748,-4.615,-4.6778,-4.5999,-4.6024,-4.6566,-4.6175,-4.5799,-4.5447,-4.4869,-4.4618,-4.4644,-4.4744,-4.4518,-4.4166,-4.4493,-4.4618,-4.4618,-1.8969,-1.8912,-1.8769,-1.8344,-1.7948,-1.8187,-1.9675,-1.9732,-2.0053,-2.1453,-2.1965,-2.2053,-2.165,-2.3486,-2.5137,-2.6022,-2.5855,-2.618,-2.7292,-2.6889,-2.6827,-2.7378,-2.8585,-2.8897,-2.8133,-2.9325,-3.0236,-3.0782,-3.0101,-3.0139,-3.0745,-3.0101,-2.9804,-2.9804,-2.9804,-2.9804,-2.9804,-2.974,-2.9574,-2.9294,-2.8759,-2.8101,-2.7324,-2.6747,-2.6208,-2.5742,-2.5669,-2.5384,-2.4967,-2.4967,-2.4657,-2.4247,-2.4442,-2.4449,-2.4407,-2.4493,-2.4675,-2.4768,-2.4499,-2.6024,-2.8151,-2.9788,-3.0767,-3.2326,0.0,-3.6081,-3.6128,-3.8316,-3.9245,-3.9747,-3.9998,-4.0902,-4.1584,-4.1225,-4.2057,-4.271,-4.2785,-4.2861,-4.3037,-4.3463,-4.3137,-4.2886,-4.2886,-4.2936,-4.2986,-4.2986,-4.2986,-4.2986,-4.2986,-4.2986,-4.2986,-4.2986,-4.2986,-4.3489,-4.4518,-4.5095,-4.5673,-4.6225,-4.6702,-4.6502,-4.5673,-4.605,-4.5748,-4.4895,-4.4844,-4.507,-4.5447,-4.4869,-4.4618,-4.4669,-4.5196,-4.5347,-4.5246,-4.4794,-4.4618,-4.4618,-1.9662,-1.9353,-1.9017,-1.8817,-1.8616,-1.8995,-2.0405,-2.0253,-2.0484,-2.1846,-2.2145,-2.203,-2.1599,-2.2945,-2.4345,-2.5572,-2.5467,-2.5711,-2.6508,-2.6644,-2.6954,-2.7531,-2.8366,-2.8781,-2.8812,-2.9248,-2.9813,-3.0388,-3.008,-3.0035,-3.0228,-2.9934,-2.9804,-2.9804,-2.9804,-2.9804,-2.9804,-2.9804,-2.9501,-2.9099,-2.885,-2.8213,-2.7343,-2.7119,-2.6731,-2.6223,-2.598,-2.5832,0.0,-2.5728,-2.5434,-2.5062,-2.5153,-2.4986,-2.4736,-2.48,-2.5578,-2.7047,-2.9647,-3.0301,-3.0891,-3.3108,-3.4053,-3.4948,-3.6796,-3.7016,-3.7462,-3.9722,-4.0852,-4.148,-4.148,-4.1911,-4.2238,-4.2283,-4.2409,-4.2665,-4.2936,-4.2986,-4.3062,-4.3288,-4.3112,-4.2986,-4.2986,-4.2986,-4.2986,-4.2986,-4.2986,-4.2986,-4.2986,-4.2986,-4.3112,-4.3438,-4.3463,-4.384,-4.4618,-4.5196,-4.5598,-4.5824,-4.6075,-4.6276,-4.6426,-4.6024,-4.5748,-4.5598,-4.5598,-4.5748,-4.5949,-4.5698,-4.5598,-4.5623,-4.5874,-4.5974,-4.5949,-4.5698,-4.5598,-4.5598,-2.0309,-1.9923,-1.9604,-1.9585,-1.9604,-1.9943,-2.0843,-2.0869,-2.1166,-2.2266,-2.2408,-2.232,-2.2106,-2.2865,-2.3877,-2.505,-2.5212,-2.5467,-2.6009,-2.665,-2.7168,-2.7592,-2.8465,-2.9059,-2.9287,-2.9575,-2.9909,-3.0361,-3.0147,-3.0095,-3.018,-2.9794,-2.9606,-2.9606,-2.9403,-2.9327,-2.9327,-2.9327,-2.9076,-2.8662,-2.8524,-2.7996,-2.7268,-2.7153,-2.6851,-2.6465,-2.6188,-2.6154,-2.6283,-2.6283,-2.6086,-2.5837,-2.5837,-2.5586,-2.531,-2.546,-2.6602,-2.8647,-3.2396,-3.3054,-3.3201,-3.5429,-3.6702,-3.7419,-3.7593,-3.7967,-3.8717,-4.0601,-4.1605,-4.2263,-4.2414,-4.2439,-4.2564,-4.2911,-4.2816,-4.2816,-4.3162,-4.3212,-4.3212,-4.3212,-4.3062,-4.2986,-4.2986,-4.2986,-4.2986,-4.2986,-4.2986,-4.3037,-4.3187,-4.3212,-4.3463,-4.4016,-4.4041,-4.4292,-4.4844,-4.5422,-4.5723,-4.5723,-4.5874,-4.6276,-4.6878,-4.6075,-4.5924,-4.6301,-4.6301,-4.6301,-4.6301,-4.6301,-4.6301,-4.6301,-4.6301,-4.6301,-4.6301,-4.6301,-4.6301,-4.6301,-2.0793,-2.0876,-2.0889,-2.0765,-2.0848,-2.0959,-2.0988,-2.154,-2.2185,-2.2801,-2.2865,-2.312,-2.3728,-2.3867,-2.4389,-2.5636,-2.5781,-2.6017,-2.6638,-2.7283,-2.7627,-2.7596,-2.9466,-3.0123,-2.9327,-3.0555,-3.1221,-3.1249,-3.0542,-3.0542,-3.121,-2.9784,-2.9142,-2.9106,-2.8413,-2.8147,-2.8147,-2.8147,-2.8147,-2.8072,-2.7544,-2.7318,-2.7218,-2.6725,-2.6499,-2.6499,-2.6499,-2.6499,-2.6499,-2.6499,-2.6474,-2.6474,-2.6474,-2.6449,-2.6549,-2.7077,-2.762,-2.8525,-3.0571,-3.2419,-3.425,-3.5868,-3.8115,-3.9897,-3.9996,-4.0401,-4.1056,-4.1982,-4.2187,-4.2363,-4.2861,-4.2961,-4.2961,-4.2986,-4.3413,-4.3765,-4.3765,-4.379,-4.379,-4.379,-4.3313,-4.2986,-4.2986,-4.2986,-4.2986,-4.2986,-4.2986,-4.3212,-4.374,-4.379,-4.4041,-4.4593,-4.4593,-4.4869,-4.5447,-4.5999,-4.6276,-4.6301,-4.6828,-4.6828,-4.6326,-4.6301,-4.6301,-4.6301,-4.6301,-4.6301,-4.6301,-4.6301,-4.6301,-4.6301,-4.6301,-4.6301,-4.6301,-4.6301,-4.6301,-4.6301,-2.1613,-2.1286,-2.0988,-2.0926,-2.1344,-2.1656,-2.1656,-2.1859,-2.2236,-2.2801,-2.2888,0.0,0.0,0.0,0.0,0.0,-2.5309,-2.5904,-2.6074,-2.7124,-2.7677,-2.7683,-2.8706,-2.9359,-2.9497,-2.9935,-3.0343,-3.0704,-2.9953,-2.9699,-2.98,-2.8876,-2.8435,-2.8435,-2.8206,-2.8097,-2.8097,-2.8097,-2.7896,-2.7544,-2.7344,-2.7102,-2.6751,-2.6575,-2.6499,-2.6499,0.0,-2.6499,-2.6499,-2.6499,-2.6499,-2.6499,-2.6499,-2.6751,-2.7153,-2.767,-2.885,-3.0422,-3.2345,-3.4397,-3.6528,-3.8534,-3.9345,-3.9981,-4.0887,-4.0562,-4.0463,-4.1629,-4.0711,-3.9915,-4.0701,-4.0802,-4.0927,-4.1279,-4.2434,-4.3263,-4.3263,-4.3263,-4.3263,-4.3263,-4.3087,-4.2986,-4.2986,-4.2986,-4.3137,-4.3489,-4.3514,-4.3765,-4.4317,-4.4342,-4.4618,-4.5171,-4.5196,-4.5472,-4.6024,-4.6225,-4.6301,-4.6301,-4.6502,-4.6502,-4.6301,-4.6301,-4.6301,-4.6301,-4.6301,-4.6301,-4.6301,-4.6301,-4.6301,-4.6301,-4.6301,-4.6301,-4.6301,-4.6301,-4.6301,-4.6301,-2.2286,-2.1939,-2.165,-2.165,-2.1997,0.0,0.0,0.0,0.0,0.0,0.0,0.0,0.0,0.0,0.0,0.0,0.0,-2.5546,-2.5803,-2.6794,-2.7463,-2.7695,-2.8054,-2.8712,-2.9581,-2.96,-2.9872,-3.0466,-2.9995,-2.9738,-2.9625,-2.8947,-2.8629,-2.8629,-2.8107,-2.7885,-2.7885,-2.7626,-2.7544,-2.7519,-2.6917,-2.6751,-2.6725,-2.6147,-2.5896,0.0,-2.5896,-2.5896,-2.5971,-2.6373,-2.6499,-2.6499,-2.6499,-2.7002,-2.7846,-2.9063,-3.0453,-3.2111,-3.4719,-3.6453,-3.8059,-4.0178,-4.0442,-4.0397,-4.1363,-4.0849,-4.0433,-4.1595,-3.9996,-3.8663,-3.9365,-3.947,-3.9396,-3.9346,-4.0877,-4.2108,-4.2108,-4.2258,-4.2534,-4.2936,-4.2986,-4.3062,-4.3263,-4.3263,-4.3413,-4.3765,-4.3991,-4.4342,-4.4895,-4.4945,-4.5196,-4.5773,-4.5773,-4.5949,-4.6301,-4.6301,-4.6301,-4.6301,-4.6301,-4.6301,-4.6301,-4.6301,-4.6301,-4.6301,-4.6301,-4.6301,-4.6301,-4.6301,-4.6301,-4.6301,-4.6301,-4.6301,-4.6301,-4.6301,-4.6301,-4.6301,-2.2809,-2.2809,-2.2809,0.0,0.0,0.0,0.0,0.0,0.0,0.0,0.0,0.0,0.0,0.0,0.0,0.0,0.0,0.0,-2.5716,-2.6384,-2.7026,-2.7637,-2.7666,-2.8275,-2.9465,-2.9523,-2.9871,-3.051,-3.048,-3.0451,-3.0451,-2.9754,-2.9448,-2.9386,-2.8023,-2.7426,-2.7359,-2.6739,-2.7002,-2.7795,-2.6189,-2.6214,-2.6992,-2.541,-2.48,-2.48,-2.48,-2.48,-2.4983,-2.6097,-2.6549,-2.6666,-2.6791,-2.7534,-2.8862,-3.129,-3.2445,-3.3695,-3.7302,-3.8335,-3.8863,-4.0748,-4.1172,-4.1263,-4.1549,-4.1112,-4.0957,-4.1734,-3.9911,-3.8362,-3.8809,-3.8791,-3.8366,-3.7362,-3.912,-4.0601,-4.0626,-4.105,-4.1806,-4.2861,-4.2986,-4.3187,-4.374,-4.3815,-4.3865,-4.389,-4.4367,-4.492,-4.5497,-4.5522,-4.5773,-4.6301,-4.6301,-4.6301,-4.6301,-4.6301,-4.6301,-4.6301,-4.6301,-4.6301,-4.6301,-4.6301,-4.6301,-4.6301,-4.6301,-4.6301,-4.6301,-4.6301,-4.6301,-4.6301,-4.6301,-4.6301,-4.6301,-4.6361,-4.6326,-4.6351,0.0,0.0,0.0,0.0,0.0,0.0,0.0,0.0,0.0,0.0,0.0,0.0,0.0,0.0,0.0,0.0,0.0,0.0,-2.5027,-2.5691,-2.6329,-2.6997,-2.7463,-2.784,-2.8188,-2.8681,-2.9,-2.9174,-2.8625,-2.8362,-2.8362,-2.7677,-2.7373,-2.7342,-2.7004,-2.6569,-2.6153,-2.5961,-2.5786,-2.5578,-2.5184,-2.5184,-2.541,-2.4951,-2.48,-2.48,-2.48,-2.48,-2.4901,-2.5586,-2.7051,-2.8933,-3.0828,-3.1828,-3.2621,-3.4099,-3.5624,-3.7085,-3.8024,-3.937,-4.0555,-4.1109,-4.0884,-4.0748,-4.1191,-4.0564,-3.9709,-3.91,-3.7168,-3.5468,-3.4794,-3.5608,-3.6558,-3.7086,-3.9747,-4.1936,-4.2283,-4.2484,-4.266,-4.2936,-4.2986,-4.3187,-4.374,-4.4166,-4.4593,-4.502,-4.5196,-4.5522,-4.6075,-4.61,-4.6175,-4.6301,-4.6301,-4.6301,-4.6301,-4.6301,-4.6301,-4.6301,-4.6301,-4.6301,-4.6301,-4.6301,-4.6301,-4.6301,-4.6301,-4.6301,-4.6301,-4.6301,-4.6301,-4.6301,-4.6566,-4.6686,-4.6686,-4.6874,-4.7069,-4.7329,0.0,0.0,0.0,0.0,0.0,0.0,0.0,0.0,0.0,0.0,0.0,0.0,0.0,0.0,0.0,0.0,0.0,0.0,0.0,-2.5284,-2.5977,-2.6355,-2.6968,-2.7405,-2.7695,-2.8071,-2.839,-2.8709,-2.8283,-2.8082,-2.8082,-2.7706,-2.753,-2.7501,-2.6909,-2.6455,-2.6144,-2.5834,-2.58,0.0,0.0,-2.5148,-2.5441,-2.4419,-2.4048,-2.4048,-2.4048,-2.4761,-2.5884,-2.7047,-2.8842,-3.0901,-3.2828,-3.3616,-3.4206,-3.6136,-3.7472,-3.8529,-3.9636,-4.0564,-4.1244,-4.1485,-4.1124,-4.0628,-4.0033,-3.943,-3.8597,-3.714,-3.5204,-3.3592,-3.2984,-3.4335,-3.5533,-3.573,-3.8743,-4.1279,-4.1831,-4.1907,-4.2158,-4.2886,-4.2986,-4.3288,-4.4091,-4.4443,-4.497,-4.5799,-4.5849,-4.5974,-4.6301,-4.6301,-4.6301,-4.6301,-4.6301,-4.6301,-4.6301,-4.6301,-4.6301,-4.6301,-4.6301,-4.6301,-4.6301,-4.6301,-4.6301,-4.6301,-4.6301,-4.6301,-4.6326,-4.6577,-4.6677,-4.6702,-4.7111,-4.7273,-4.7309,-4.7465,-4.7729,-4.8034,0.0,0.0,0.0,0.0,0.0,0.0,0.0,0.0,0.0,-2.3149,-2.3004,-2.2917,0.0,0.0,0.0,0.0,0.0,0.0,0.0,0.0,-2.5629,-2.5803,-2.6355,-2.6939,-2.7579,-2.7579,-2.7868,-2.8447,-2.8447,-2.8447,-2.8447,-2.8447,-2.8447,-2.8391,-2.7137,-2.6553,-2.6405,-2.5663,-2.5871,-2.6583,-2.5075,-2.4987,-2.5619,0.0,-2.2995,-2.2995,-2.307,-2.4763,-2.7322,-2.9248,-3.1052,-3.2719,-3.4015,-3.4503,-3.5089,-3.7879,-3.8747,-3.9249,-4.1398,-4.1629,-4.1389,-4.1846,-4.1581,-4.0676,-3.8747,-3.8315,-3.7688,-3.555,-3.3769,-3.2494,-3.2265,-3.3776,-3.4856,-3.4324,-3.7236,-3.9873,-4.0727,-4.0852,-4.1379,-4.2811,-4.2986,-4.3413,-4.4518,-4.4618,-4.5095,-4.6225,-4.6301,-4.6301,-4.6301,-4.6301,-4.6301,-4.6301,-4.6301,-4.6301,-4.6301,-4.6301,-4.6301,-4.6301,-4.6301,-4.6301,-4.6301,-4.6301,-4.6301,-4.6301,-4.6376,-4.6426,-4.6451,-4.7004,-4.723,-4.728,-4.7856,-4.8094,-4.8032,-4.8156,-4.8418,-4.8742,0.0,0.0,0.0,0.0,0.0,0.0,0.0,0.0,0.0,0.0,-2.3554,-2.3113,0.0,0.0,0.0,0.0,0.0,0.0,0.0,0.0,0.0,-2.5749,-2.5919,-2.6271,-2.6939,-2.6939,-2.6997,-2.714,-2.714,-2.714,-2.714,-2.714,-2.714,-2.7084,-2.6294,-2.5668,-2.5159,-2.4096,-2.3469,-2.3124,-2.239,-2.2192,-2.2365,-2.2426,-2.2447,0.0,-2.2945,-2.5012,-2.7854,-2.9788,-3.1996,-3.4411,-3.7067,-3.8248,-3.89,-4.0266,-4.0989,-4.1446,-4.1904,-4.1918,-4.1846,-4.2,-4.1581,-4.0676,-3.8747,-3.8315,-3.7302,-3.3798,-3.2822,-3.2134,-3.0588,-3.1646,-3.347,-3.5625,-3.7663,-3.9848,-4.2208,-4.2559,-4.266,-4.2936,-4.2986,-4.3413,-4.4518,-4.4618,-4.5095,-4.6225,-4.6301,-4.6301,-4.6301,-4.6301,-4.6301,-4.6301,-4.6301,-4.6301,-4.6301,-4.6301,-4.6301,-4.6301,-4.6301,-4.6301,-4.6301,-4.6301,-4.6301,-4.6326,-4.6803,0.0,-4.7029,-4.789,-4.8055,-4.7844,-4.8784,-4.8958,-4.88,-4.9351,-4.9722,-5.0013,0.0,0.0,0.0,0.0,0.0,0.0,0.0,-2.4824,-2.4824,-2.4824,-2.4273,-2.4012,-2.4331,-2.4099,-2.4065,0.0,0.0,0.0,0.0,0.0,0.0,0.0,-2.511,-2.5604,-2.6242,-2.6297,-2.6445,-2.682,0.0,-2.6297,-2.6271,-2.5952,-2.5778,-2.5723,-2.5099,-2.4648,-2.4339,-2.3802,-2.3408,-2.3094,-2.2857,-2.2618,-2.24,-2.2637,-2.2731,0.0,-2.302,-2.4888,-2.747,-2.8691,-3.14,-3.48,-3.7858,-3.9176,-3.9753,-4.0547,-4.1148,-4.1677,-4.223,-4.199,-4.1701,-4.2313,-4.1774,-4.0443,-3.7521,-3.6598,-3.5306,-3.1439,-3.0443,-3.0059,-2.9439,-3.0909,-3.2742,-3.4419,-3.731,-3.9772,-4.1078,-4.2258,-4.2986,-4.2986,-4.2986,-4.3413,-4.4518,-4.4618,-4.5095,-4.6225,-4.6301,-4.6301,-4.6301,-4.6301,-4.6301,-4.6301,-4.6301,-4.6301,-4.6301,-4.6301,-4.6301,-4.6301,-4.6301,-4.6301,-4.6301,-4.6301,-4.6476,-4.6753,-4.7029,-4.7367,-4.7915,-4.8596,-4.8923,-4.8948,-4.9728,-4.9919,-4.9794,-5.0168,-5.0473,-5.0706,0.0,0.0,0.0,0.0,0.0,0.0,0.0,-2.5152,-2.5127,-2.5131,-2.5131,-2.5131,-2.5131,-2.4974,-2.4936,0.0,0.0,0.0,0.0,0.0,0.0,0.0,0.0,0.0,-2.5575,0.0,0.0,-2.6358,-2.5836,0.0,0.0,0.0,0.0,0.0,-2.4106,-2.3822,-2.3847,-2.3606,-2.3501,0.0,0.0,-2.3073,-2.2641,0.0,0.0,0.0,0.0,-2.4478,-2.6402,-2.7383,-3.0098,-3.356,-3.6466,-3.8027,-3.8966,-3.9713,-4.0242,-4.0868,-4.2265,-4.199,-4.1557,-4.2434,-4.1894,-4.0178,-3.6357,-3.5036,-3.351,-2.9674,-2.8461,-2.8247,-2.8637,-3.0217,-3.1813,-3.2742,-3.5931,-3.8617,-3.9572,-4.1178,-4.2459,-4.2911,-4.2986,-4.3413,-4.4518,-4.4618,-4.5095,-4.6225,-4.6301,-4.6301,-4.6301,-4.6301,-4.6301,-4.6301,-4.6301,-4.6301,-4.6301,-4.6301,-4.6301,-4.6301,-4.6301,-4.6301,-4.6301,-4.6426,-4.6728,-4.7093,-4.738,-4.7918,-4.8745,-4.9367,-4.9759,-5.0036,-5.0598,-5.0778,-5.0741,-5.0778,-5.0968,-5.1246,0.0,0.0,0.0,0.0,0.0,0.0,0.0,-2.6323,-2.6299,-2.6195,-2.6169,-2.6169,-2.6169,-2.5423,-2.511,0.0,0.0,0.0,0.0,0.0,0.0,0.0,0.0,0.0,0.0,0.0,0.0,-2.4998,-2.4994,0.0,0.0,0.0,0.0,0.0,0.0,-2.3593,-2.366,-2.2615,0.0,0.0,0.0,0.0,0.0,0.0,0.0,0.0,0.0,-2.3597,-2.4618,-2.6898,-2.8274,-2.9455,-3.1981,-3.4384,-3.6543,-3.8045,-3.8529,-3.9056,-4.1422,-4.1966,-4.1918,-4.2073,-4.1605,-4.0178,-3.6357,-3.5036,-3.351,-2.9674,-2.8461,-2.8122,-2.8172,-2.8712,-2.9866,-3.1964,-3.3068,-3.5102,-3.912,-3.9873,-4.0727,-4.2735,-4.2986,-4.3413,-4.4518,-4.4618,-4.5095,-4.6225,-4.6301,-4.6301,-4.6301,-4.6301,-4.6301,-4.6301,-4.6301,-4.6301,-4.6301,-4.6301,-4.6301,-4.6301,-4.6301,-4.6301,-4.6326,-4.6828,-4.7018,-4.7179,-4.8184,-4.885,0.0,-5.0117,-5.0511,-5.0575,-5.1257,-5.1283,-5.112,-5.1408,-5.1534,-5.1534,0.0,0.0,0.0,0.0,0.0,0.0,-2.6436,-2.6496,-2.6445,-2.634,-2.6313,-2.6313,-2.6313,-2.5991,-2.5865,-2.62,0.0,0.0,0.0,0.0,0.0,0.0,0.0,0.0,0.0,0.0,-2.5429,-2.54,-2.4978,0.0,0.0,0.0,0.0,0.0,0.0,-2.2987,-2.3005,-2.2539,0.0,0.0,0.0,0.0,0.0,0.0,0.0,0.0,0.0,0.0,-2.4205,-2.5503,-2.7083,-2.8584,-2.9082,-3.0482,-3.2587,-3.5891,-3.7564,-3.8771,-4.0917,-4.1509,-4.1581,-4.1894,-4.0491,-3.8287,-3.5575,-3.3388,-3.1124,-2.8462,-2.7494,-2.7253,-2.7544,-2.8072,-2.8825,-2.9991,-3.1838,-3.374,-3.5454,-3.8291,-4.04,-4.0927,-4.2459,-4.379,-4.4543,-4.4618,-4.5095,-4.6225,-4.6301,-4.6301,-4.6301,-4.6301,-4.6301,-4.6301,-4.6301,-4.6301,-4.6301,-4.6301,-4.6301,-4.6301,-4.6301,-4.6476,-4.6803,-4.6968,-4.7568,-4.8471,-4.8901,-4.9596,0.0,-5.0764,-5.1031,-5.122,-5.1471,-5.1534,-5.1408,-5.1534,-5.1596,-5.1596,0.0,0.0,0.0,0.0,0.0,-2.6084,-2.6332,-2.6392,-2.6338,-2.6206,-2.6179,-2.6179,-2.6179,-2.6179,-2.626,-2.6365,-2.5899,0.0,0.0,0.0,0.0,0.0,0.0,0.0,0.0,0.0,-2.5517,-2.5542,-2.4958,-2.4336,0.0,0.0,-2.2717,-2.2546,0.0,0.0,0.0,0.0,0.0,0.0,0.0,0.0,0.0,0.0,0.0,0.0,0.0,0.0,0.0,0.0,0.0,-2.7343,-2.6932,-2.7676,-2.9514,-3.3497,-3.5673,-3.7251,-3.9509,-4.0411,-4.0812,-4.1172,-3.9268,-3.6765,-3.4794,-3.2154,-2.9578,-2.7709,-2.6876,-2.6625,-2.7002,-2.7494,-2.8047,-2.8562,-3.0457,-3.2139,-3.3011,-3.6232,-3.8668,-3.8919,-4.0953,-4.276,-4.379,-4.4644,-4.5447,-4.625,-4.6301,-4.6301,-4.6301,-4.6301,-4.6301,-4.6301,-4.6301,-4.6301,-4.6301,-4.6301,-4.6301,-4.6301,-4.6476,-4.6813,-4.7252,-4.7604,-4.8345,-4.9481,-4.9633,-5.0255,0.0,-5.112,-5.1309,-5.1596,-5.1596,-5.1596,-5.1596,-5.1596,-5.1596,-5.1596,0.0,0.0,0.0,0.0,0.0,0.0,-2.6123,-2.6125,-2.6071,-2.5935,-2.5907,-2.5907,-2.5907,-2.5907,-2.5962,-2.6098,-2.5795,0.0,0.0,0.0,0.0,0.0,0.0,0.0,0.0,0.0,-2.4824,-2.4907,-2.4702,-2.4283,-2.3702,-2.3411,-2.2975,-2.2408,0.0,0.0,0.0,0.0,0.0,0.0,0.0,0.0,0.0,0.0,0.0,0.0,0.0,0.0,0.0,0.0,0.0,0.0,0.0,-2.6389,-2.7935,-3.0943,-3.2419,-3.3695,-3.6741,-3.8567,-3.9633,-3.9633,-3.8181,-3.6231,-3.4257,-3.1884,-2.9578,-2.7709,-2.6876,-2.6499,-2.6499,-2.6952,-2.7469,-2.8021,-2.8562,-2.993,-3.2692,-3.3596,-3.4776,-3.696,-3.8265,-3.9824,-4.2011,-4.4669,-4.6301,-4.6301,-4.6301,-4.6301,-4.6301,-4.6301,-4.6301,-4.6301,-4.6301,-4.6301,-4.6301,-4.6301,-4.6301,-4.6326,-4.6853,-4.7288,-4.7618,-4.8759,-4.9455,-4.9856,-5.0358,-5.0778,0.0,-5.112,-5.1309,-5.1596,-5.1596,-5.1596,-5.1596,-5.1596,-5.1596,-5.1596,0.0,0.0,0.0,0.0,0.0,0.0,0.0,-2.6098,-2.6071,-2.5935,-2.5907,-2.5907,-2.5907,-2.5907,-2.5962,-2.6098,-2.598,0.0,0.0,0.0,0.0,0.0,0.0,0.0,0.0,0.0,-2.577,-2.5366,-2.5214,-2.4769,-2.4042,-2.3893,-2.3759,-2.3561,-2.3037,-2.2841,0.0,0.0,0.0,0.0,0.0,0.0,-2.2282,0.0,0.0,0.0,0.0,0.0,0.0,0.0,0.0,0.0,0.0,0.0,0.0,-2.7798,-2.9841,-3.2025,-3.3891,-3.5016,-3.5649,-3.5649,-3.3891,-3.2013,-3.141,-2.938,-2.7462,-2.6866,-2.6625,-2.6499,-2.6499,-2.6952,-2.7469,-2.8021,-2.8574,-2.9377,-3.0658,-3.4223,-3.6835,-3.7136,-4.0852,-4.3514,-4.3815,-4.5347,-4.6301,-4.6301,-4.6301,-4.6301,-4.6301,-4.6301,-4.6301,-4.6301,-4.6301,-4.6301,-4.6301,-4.6301,-4.6301,-4.6326,-4.7096,-4.7734,-4.8263,-4.9186,-5.0036,-5.0736,-5.0853,-5.0994,-5.112,-5.112,-5.1183,-5.1246,-5.1246,-5.1408,-5.1596,-5.1596,-5.1596,-5.1596,0.0,0.0,0.0,0.0,0.0,0.0,0.0,-2.6043,-2.5989,-2.5935,-2.5907,-2.5907,-2.5907,-2.5907,-2.5935,-2.6043,-2.6043,0.0,0.0,0.0,0.0,0.0,0.0,0.0,0.0,-2.627,-2.6246,-2.5873,-2.5743,-2.5296,-2.4595,-2.4467,-2.4303,-2.4078,-2.3656,-2.3487,0.0,0.0,0.0,0.0,0.0,0.0,-2.2632,0.0,0.0,0.0,0.0,0.0,0.0,0.0,0.0,0.0,0.0,0.0,0.0,0.0,-2.7487,-2.9419,-3.1385,-3.2558,-3.3203,-3.3203,-3.1466,-2.9821,-2.9821,-2.8088,-2.6499,-2.6499,-2.6499,-2.6499,-2.6499,-2.6952,-2.7469,-2.8021,-2.8574,-2.9389,-3.0834,-3.4349,-3.7111,-3.8015,-4.1932,-4.4392,-4.4041,-4.5397,-4.6301,-4.6301,-4.6301,-4.6301,-4.6301,-4.6301,-4.6301,-4.6301,-4.6301,-4.6301,-4.6301,-4.6301,-4.6426,-4.6627,-4.7521,-4.8324,-4.9033,-4.9882,-5.0658,-5.1309,-5.1309,-5.1309,0.0,-5.1183,-5.1183,-5.1309,-5.1183,-5.1309,-5.1596,-5.1596,-5.1596,-5.1596,0.0,0.0,0.0,0.0,0.0,0.0,0.0,-2.5907,-2.5907,-2.5907,-2.5907,-2.5907,-2.5907,-2.5907,-2.5907,-2.5907,0.0,0.0,0.0,0.0,0.0,0.0,0.0,0.0,0.0,-2.6343,-2.6372,-2.6429,-2.6321,-2.5926,-2.5305,-2.52,-2.481,-2.4219,-2.4163,-2.4132,0.0,0.0,0.0,0.0,-2.274,-2.3084,0.0,0.0,0.0,0.0,0.0,0.0,0.0,0.0,0.0,0.0,0.0,0.0,0.0,0.0,0.0,0.0,0.0,-3.0787,-3.1779,-3.1779,-3.0425,-2.9118,-2.9118,-2.7739,0.0,-2.6499,-2.6499,-2.6499,-2.6549,-2.6977,-2.7469,-2.8072,-2.8562,-2.9866,-3.2742,-3.4304,-3.6313,-3.9495,-4.1907,-4.3212,-4.3062,-4.507,-4.6376,-4.6376,-4.6326,-4.6326,-4.6376,-4.6326,-4.6326,-4.6376,-4.6326,-4.6301,-4.6301,-4.6301,-4.6602,-4.7129,-4.8078,-4.892,-4.9768,-5.0673,-5.1309,0.0,-5.1596,-5.1596,-5.1534,-5.1246,-5.1309,-5.1534,-5.1246,-5.1309,-5.1596,-5.1596,-5.1596,-5.1596,0.0,0.0,0.0,0.0,0.0,0.0,0.0,0.0,0.0,0.0,-2.5907,-2.5907,-2.5907,-2.5907,-2.5907,0.0,0.0,0.0,0.0,0.0,0.0,0.0,0.0,0.0,0.0,-2.6916,-2.7088,-2.7598,-2.757,-2.7173,-2.6441,-2.6385,-2.6048,-2.5458,-2.5006,-2.4349,0.0,0.0,0.0,0.0,-2.2221,-2.2324,0.0,0.0,0.0,0.0,-2.3094,-2.3065,0.0,0.0,0.0,0.0,0.0,0.0,0.0,0.0,-2.4682,-2.5151,-2.5861,0.0,-2.7814,-2.7814,-2.7512,-2.7147,0.0,-2.6841,-2.6499,-2.6499,-2.6499,-2.6625,-2.7052,-2.7228,-2.7595,-2.8574,-2.8813,-2.9938,-3.2897,-3.6974,-4.0211,-4.1673,-4.4136,-4.5176,-4.3765,-4.5623,-4.6928,-4.6928,-4.6552,-4.6502,-4.6928,-4.6552,-4.6502,-4.6928,-4.6527,-4.6301,-4.6301,-4.6301,-4.6602,-4.7129,-4.8078,-4.8796,-4.9481,-5.061,-5.112,-5.1246,-5.1471,-5.1471,-5.1246,-5.112,-5.1183,-5.1246,-5.112,-5.1309,-5.1596,-5.1596,-5.1596,-5.1596,0.0,0.0,0.0,0.0,0.0,0.0,0.0,0.0,0.0,0.0,0.0,0.0,0.0,0.0,0.0,0.0,0.0,0.0,0.0,0.0,0.0,0.0,0.0,0.0,-2.7059,-2.7286,-2.754,-2.7907,-2.7907,-2.768,-2.7256,-2.7256,-2.6919,-2.6301,-2.5683,-2.4998,0.0,0.0,0.0,-2.281,-2.2781,0.0,0.0,0.0,0.0,0.0,-2.2272,-2.2314,0.0,-2.2372,-2.2372,-2.2393,0.0,0.0,0.0,0.0,-2.4205,-2.4506,-2.4725,-2.5435,-2.6097,-2.6097,-2.6298,-2.6499,-2.6499,-2.6499,-2.6499,-2.6499,-2.67,-2.6977,-2.7253,-2.8412,-2.9274,-2.8963,-3.0817,-3.3083,-3.5387,-3.8237,-4.0798,-4.2507,-4.4228,-4.5285,-4.5288,-4.6652,-4.738,-4.7093,-4.6853,-4.6828,-4.7043,-4.6792,-4.6928,-4.7481,-4.6979,-4.6577,-4.6301,-4.6552,-4.6954,-4.7506,-4.8432,-4.924,-4.9926,-5.0739,-5.1183,-5.1372,-5.1534,-5.1471,-5.1309,-5.1183,-5.1183,-5.1309,-5.1183,-5.1309,-5.1622,-5.191,-5.1831,-5.1622,0.0,0.0,0.0,0.0,0.0,0.0,0.0,0.0,0.0,0.0,0.0,0.0,0.0,0.0,0.0,0.0,0.0,0.0,0.0,0.0,0.0,0.0,0.0,-2.7004,-2.7088,-2.765,-2.8044,-2.8213,-2.8213,-2.8185,-2.8072,-2.8072,-2.7621,-2.6778,-2.63,-2.5762,0.0,0.0,-2.4519,-2.3483,-2.3421,0.0,0.0,0.0,0.0,0.0,0.0,0.0,0.0,-2.1493,-2.1493,-2.1568,-2.2046,0.0,0.0,0.0,0.0,0.0,-2.4399,-2.5227,-2.5879,-2.5661,-2.6072,-2.6499,-2.6499,-2.6549,-2.6625,-2.6625,-2.7052,-2.7544,-2.7935,-2.982,-3.0934,-2.9688,-3.339,-3.6972,-3.8555,-3.9308,-4.0536,-4.2737,-4.3769,-4.5003,-4.6706,-4.757,-4.7857,-4.7405,-4.7244,-4.728,-4.738,-4.7305,-4.7481,-4.8033,-4.7456,-4.7004,-4.6677,-4.6979,-4.738,-4.7908,-4.8888,-4.9761,-5.055,-5.0931,-5.1246,-5.1534,0.0,0.0,-5.1596,-5.1309,-5.1372,-5.1596,-5.1309,-5.1424,-5.1805,-5.2302,-5.2223,-5.1936,0.0,0.0,0.0,0.0,0.0,0.0,0.0,0.0,0.0,0.0,0.0,0.0,0.0,0.0,0.0,0.0,0.0,0.0,0.0,0.0,0.0,0.0,0.0,0.0,-2.838,-2.8493,-2.9055,-3.0062,-3.0062,-2.9841,-2.9336,-2.9336,-2.8436,-2.6807,-2.6835,-2.6239,-2.5161,-2.4313,-2.3769,-2.3431,-2.2345,0.0,0.0,0.0,0.0,0.0,0.0,0.0,0.0,-2.1493,-2.1493,-2.1493,-2.1594,0.0,0.0,0.0,0.0,0.0,-2.3346,-2.5344,-2.7083,-2.5895,-2.6072,-2.6499,-2.6499,-2.6851,-2.7203,-2.7203,-2.7595,-2.8625,-3.0735,-3.0119,-2.9949,-3.1737,-3.4807,-3.7775,-4.0032,-4.2171,-4.3348,-4.3135,-4.5134,-4.6402,-4.5991,-4.757,-4.8611,-4.8535,-4.8058,-4.8008,-4.8485,-4.8058,-4.8058,-4.8611,-4.7657,-4.7531,-4.8385,-4.7556,-4.738,-4.7908,-4.8888,-4.9634,-5.0168,-5.0804,-5.112,-5.1183,0.0,-5.1596,-5.1596,-5.1534,-5.1534,-5.1596,-5.1534,-5.1847,-5.238,-5.2459,-5.2746,-5.306,0.0,0.0,0.0,0.0,0.0,0.0,0.0,0.0,0.0,0.0,0.0,0.0,0.0,0.0,0.0,0.0,0.0,0.0,0.0,0.0,0.0,0.0,0.0,0.0,-2.8661,-2.9336,-2.9954,-3.0484,-3.0881,-3.0712,-3.0062,-2.9513,-2.8554,-2.7341,-2.7145,-2.655,-2.5588,-2.4444,-2.3956,-2.3843,0.0,0.0,0.0,0.0,0.0,0.0,0.0,0.0,0.0,0.0,-2.0589,-2.0639,-2.0968,0.0,0.0,0.0,0.0,0.0,-2.3095,-2.4586,-2.6208,-2.6631,-2.8387,-2.9979,-2.9979,-3.0424,-3.0514,-2.9507,-2.9721,-3.0453,-3.1596,-3.2172,-3.372,-3.7502,-3.7773,-3.8359,-4.0821,-4.1444,-4.2083,-4.3208,-4.4694,-4.6056,-4.7192,-4.8149,-4.8536,-4.8213,-4.8156,-4.8258,-4.8532,-4.8472,-4.8636,-4.9188,-4.8435,-4.841,-4.9213,-4.8711,-4.8586,-4.8812,-4.9406,-4.9939,-5.0359,-5.0867,-5.1183,-5.1372,0.0,-5.2093,-5.2119,-5.2433,-5.2563,-5.2563,-5.2563,-5.2537,-5.2485,-5.2485,-5.2877,-5.3295,0.0,0.0,0.0,0.0,0.0,0.0,0.0,0.0,0.0,0.0,0.0,0.0,0.0,0.0,0.0,0.0,0.0,0.0,0.0,0.0,0.0,0.0,0.0,0.0,0.0,-2.9954,-3.0568,-3.0708,-3.1387,-3.1387,-3.0712,-2.96,-2.8612,-2.7791,-2.7456,-2.6833,-2.5986,-2.4739,-2.423,-2.417,0.0,0.0,0.0,0.0,0.0,0.0,0.0,0.0,0.0,0.0,0.0,0.0,0.0,0.0,0.0,-2.1995,-2.2569,-2.312,-2.3271,-2.4367,-2.5893,-2.7631,-2.9875,-3.189,-3.2808,-3.315,-3.3044,-3.2019,-3.2259,-3.2679,-3.2827,-3.4514,-3.7138,-4.1015,-3.9928,-3.9428,-4.1822,-4.1355,-4.1647,-4.3877,-4.467,-4.5931,-4.8224,-4.8535,-4.8403,-4.7986,-4.8283,-4.8476,-4.8476,-4.8796,-4.9163,-4.959,-4.9063,-4.9227,-5.0096,-4.9845,-4.9719,-4.9719,-5.0166,-5.0487,-5.0741,-5.1057,-5.1346,-5.1622,-5.2223,-5.2485,-5.2537,-5.3138,-5.3321,-5.3191,-5.3191,-5.2981,-5.2746,-5.3008,-5.3243,-5.3321,0.0,0.0,0.0,0.0,0.0,0.0,0.0,0.0,0.0,0.0,0.0,0.0,0.0,0.0,0.0,0.0,0.0,0.0,0.0,0.0,0.0,0.0,0.0,0.0,0.0,-3.0147,-3.0825,-3.1415,-3.2033,-3.2033,-3.1387,-3.0122,-2.8914,-2.7791,-2.7909,-2.7173,-2.585,-2.4767,-2.4204,-2.3991,-2.2752,0.0,0.0,0.0,0.0,0.0,0.0,0.0,0.0,0.0,0.0,0.0,0.0,0.0,-2.1493,-2.1543,-2.2297,-2.3221,-2.3778,-2.5694,-2.7779,-2.8906,-2.845,-2.8637,-3.2209,-3.2425,-3.2407,-3.4029,-3.4791,-3.5402,-3.5892,-3.6554,-3.7264,-3.8093,-3.952,-4.1362,-4.3746,-4.4443,-4.4924,-4.5685,-4.6472,-4.7272,-4.7977,-4.8379,-4.8576,-4.8526,-4.8828,-4.9023,-4.9023,-4.9346,-4.9565,-4.959,-4.9063,-4.9707,-5.1651,-5.0611,-5.0078,-5.0065,-5.0869,-5.1229,-5.1057,-5.1408,-5.1596,-5.1622,-5.2223,-5.2485,-5.2537,-5.3138,-5.306,-5.2563,-5.2563,-5.2877,-5.3452,-5.4524,-5.4262,-5.34,0.0,0.0,0.0,0.0,0.0,0.0,0.0,0.0,0.0,0.0,0.0,0.0,0.0,0.0,0.0,0.0,0.0,0.0,0.0,0.0,0.0,0.0,0.0,-2.8352,-2.9588,-3.06,-3.1246,-3.1499,-3.1724,-3.1724,-3.1443,-2.991,-2.8697,-2.7791,-2.757,-2.6862,-2.5823,-2.4664,-2.4129,-2.4019,-2.2823,-2.224,0.0,0.0,0.0,0.0,0.0,0.0,0.0,0.0,-1.9991,-1.9811,-1.9811,-2.0589,-2.1493,-2.1493,-2.2523,-2.3728,-2.3929,-2.6034,-2.8361,-2.9128,-2.9454,-3.0704,-3.4844,-3.5795,-3.5795,-3.5697,-3.6478,-3.7037,-3.6431,-3.8907,-4.0757,-3.9782,-4.1532,-4.3373,-4.4659,-4.5221,-4.5814,-4.6343,-4.7003,-4.7479,-4.7672,-4.7852,-4.7918,-4.7918,-4.8445,-4.8772,-4.8772,-4.9267,-4.9525,-4.9332,-4.9517,-5.024,-5.1488,-5.1478,-5.1779,-5.2334,-5.1949,-5.1536,-5.112,-5.1471,-5.1596,-5.1648,-5.2642,-5.306,-5.3138,-5.4079,-5.4314,-5.4079,-5.3687,-5.3922,-5.4419,-5.4158,-5.3766,-5.3347,0.0,0.0,0.0,0.0,0.0,0.0,0.0,0.0,0.0,0.0,0.0,0.0,0.0,0.0,0.0,0.0,0.0,0.0,0.0,0.0,0.0,0.0,0.0,-2.8352,-2.9588,-3.0656,-3.1274,-3.1499,-3.1499,-3.1387,-3.1162,-2.9572,-2.8471,-2.7791,-2.7258,-2.6581,-2.5823,-2.4613,-2.4078,-2.3991,-2.2871,-2.2454,0.0,0.0,0.0,0.0,0.0,0.0,0.0,0.0,-2.0194,-2.0016,-1.9837,-2.0589,-2.1493,-2.1493,-2.324,-2.5178,-2.5153,-2.7033,-2.9263,-3.0417,-3.0993,-3.2389,-3.6767,-3.7591,-3.7497,-3.7816,-3.8344,-3.8538,-3.7599,-4.0394,-4.2407,-4.0902,-4.2879,-4.4669,-4.5029,-4.5742,-4.6319,-4.668,-4.7185,-4.7497,-4.7497,-4.7497,-4.7497,-4.7497,-4.805,-4.8379,-4.8379,-4.8967,-4.9162,-4.8942,-4.9766,-5.0489,-5.1089,-5.1956,-5.2766,-5.3484,-5.275,-5.2039,-5.1505,-5.1549,-5.1596,-5.1675,-5.2877,-5.3295,-5.3217,-5.455,-5.4994,-5.4785,-5.4367,-5.4445,-5.4733,-5.3949,-5.353,-5.3295,0.0,0.0,0.0,0.0,0.0,0.0,0.0,0.0,0.0,0.0,0.0,0.0,0.0,0.0,0.0,0.0,0.0,0.0,-2.5907,-2.5907,-2.6469,-2.7735,-2.7819,-2.8352,-2.9588,-3.0175,-3.0853,-3.1499,-3.1471,-3.1162,-3.0455,-2.9251,-2.8352,-2.7763,-2.7088,-2.6469,-2.5795,-2.4613,-2.4078,-2.3991,-2.2843,-2.2408,-2.2431,0.0,0.0,0.0,0.0,0.0,0.0,0.0,-2.1042,-2.0523,-1.9991,-2.0589,-2.1493,-2.1493,-2.4439,-2.7656,-2.7668,-2.8881,-3.0704,-3.315,-3.2838,-3.298,-3.7326,-3.6842,-3.66,-4.0443,-4.0499,-3.9916,-3.9916,-4.0789,-4.1347,-4.0813,-4.3168,-4.5077,-4.5077,-4.6054,-4.6704,-4.6728,-4.7185,-4.7497,-4.7497,-4.7497,-4.7497,-4.7497,-4.7828,-4.8026,-4.8026,-4.8379,-4.86,-4.86,-4.975,-5.0472,-5.0687,-5.2001,-5.2791,-5.3125,-5.31,-5.293,-5.2485,-5.1884,-5.1596,-5.1675,-5.2877,-5.306,-5.2642,-5.4367,-5.4733,-5.421,-5.421,-5.421,-5.421,-5.4184,-5.3844,-5.3295,0.0,0.0,0.0,0.0,0.0,0.0,0.0,0.0,0.0,0.0,0.0,0.0,0.0,0.0,0.0,0.0,0.0,0.0,-2.5907,-2.5907,-2.6245,-2.7059,-2.7566,-2.8185,-2.8942,-2.9982,-3.0853,-3.1499,-3.1021,-3.068,-3.0455,-2.883,-2.7988,-2.7763,-2.6666,-2.5823,-2.5231,-2.4416,-2.3825,-2.3347,-2.2578,-2.231,-2.2408,0.0,0.0,0.0,0.0,0.0,0.0,0.0,0.0,0.0,-1.9991,-2.0589,-2.1493,-2.1493,-2.3466,-2.5677,-2.5652,-2.8856,-3.2086,-3.1871,-3.3857,-3.6258,-3.7903,-3.8174,-3.8728,-4.123,-4.0765,-3.9916,-3.9916,-4.1281,-4.2286,-4.1904,-4.3337,-4.4909,-4.6102,-4.6511,-4.6848,-4.7233,-4.7401,-4.7497,-4.7497,-4.7497,-4.787,-4.8828,-4.9217,-4.9836,-5.0764,-5.0334,-5.0063,-5.0117,-5.0056,-5.034,-5.0919,-5.2287,-5.3196,-5.3715,-5.3864,-5.3414,-5.2485,-5.2302,-5.1988,-5.1675,-5.2877,-5.3295,-5.3191,-5.4105,-5.4602,-5.4785,-5.4367,-5.421,-5.4158,-5.3766,-5.3269,-5.2668,0.0,0.0,0.0,0.0,0.0,0.0,0.0,0.0,-2.5907,-2.5907,-2.5907,-2.5907,0.0,0.0,0.0,-2.5907,-2.5907,0.0,-2.5907,-2.5907,-2.616,-2.6778,-2.72,-2.7707,-2.8324,-2.9279,-2.9869,-3.001,-3.0347,-3.0231,-2.9757,-2.8408,-2.7679,-2.734,-2.6329,-2.5542,-2.4978,-2.4359,-2.3713,-2.3041,-2.2494,-2.231,-2.2431,0.0,0.0,0.0,0.0,0.0,0.0,0.0,0.0,0.0,-2.0346,-2.0883,-2.1947,-2.2739,-2.4546,-2.6646,-2.8422,-3.1203,-3.3814,-3.4572,-3.6281,-3.8141,-3.9491,-4.0048,-4.0644,-4.2024,-4.1794,-4.132,-4.132,-4.2662,-4.359,-4.3156,-4.4312,-4.5558,-4.6583,-4.7329,-4.7702,-4.7515,-4.7936,-4.8067,-4.7563,-4.7497,-4.8067,-4.9386,-4.9707,-5.0511,-5.2051,-5.1419,-5.1134,-5.1419,-5.1031,-5.1021,-5.1497,-5.2464,-5.3368,-5.3997,-5.4588,-5.4288,-5.3164,-5.2955,-5.2668,-5.2354,-5.3086,-5.3661,-5.4079,-5.4158,-5.4419,-5.4733,-5.4602,-5.4288,-5.3844,-5.3504,-5.3008,-5.2406,0.0,0.0,0.0,0.0,0.0,0.0,0.0,-2.5907,-2.5907,-2.5907,-2.5907,-2.5907,0.0,0.0,0.0,-2.5907,-2.5907,-2.5907,-2.5907,-2.5907,-2.6132,-2.6694,-2.6778,-2.7116,-2.7791,-2.8324,-2.8324,-2.7819,-2.9504,-2.9757,-2.8577,-2.8016,-2.7369,-2.6778,-2.616,-2.5542,-2.4978,-2.4359,-2.3713,-2.3066,-2.2564,-2.2385,-2.2408,-2.2523,0.0,0.0,0.0,0.0,0.0,0.0,0.0,0.0,-2.0919,-2.1407,-2.2704,-2.4379,-2.6629,-2.9421,-3.3433,-3.4675,-3.5697,-3.9237,-3.9364,-3.9153,-4.1471,-4.2014,-4.2241,-4.2723,-4.312,-4.3457,-4.3505,-4.4323,-4.4813,-4.4477,-4.5694,-4.668,-4.6882,-4.8441,-4.9063,-4.8002,-4.8803,-4.8998,-4.7804,-4.7696,-4.8264,-4.9579,-4.981,-5.0675,-5.2612,-5.2024,-5.1953,-5.2623,-5.2476,-5.2385,-5.2382,-5.3004,-5.3606,-5.4174,-5.5604,-5.5667,-5.4459,-5.3908,-5.3581,-5.3478,-5.3478,-5.4079,-5.5046,-5.4445,-5.4236,-5.4341,-5.4759,-5.4314,-5.34,-5.3347,-5.2929,-5.2328,0.0,0.0,0.0,0.0,0.0,0.0,-2.5907,-2.5907,-2.5907,-2.5907,-2.5907,-2.5907,-2.5907,-2.5907,0.0,-2.5907,-2.5907,-2.5907,-2.5907,-2.5907,-2.5964,-2.6076,-2.6554,-2.7116,-2.7791,-2.7932,-2.7932,-2.7819,-2.8661,-2.8689,-2.7988,-2.7312,-2.6947,-2.6778,-2.616,-2.5542,-2.4978,-2.4359,-2.3713,-2.3041,-2.247,-2.224,-2.224,-2.2263,-2.2287,0.0,0.0,0.0,0.0,0.0,0.0,0.0,-2.0919,-2.1716,-2.2911,-2.2455,-2.5585,-2.9315,-2.9797,-3.3305,-3.7105,-3.7923,-3.9364,-4.082,-4.1808,-4.2362,-4.2675,-4.2795,-4.2916,-4.3048,-4.3433,-4.3697,-4.4251,-4.5405,-4.5862,-4.6754,-4.8635,-4.9246,-4.9746,-5.0575,-4.9938,-4.9386,-4.9127,-4.9063,-4.9643,-5.0954,-5.2051,-5.3302,-5.4734,-5.3724,-5.3551,-5.4592,-5.4054,-5.3674,-5.3535,-5.5773,-5.6466,-5.5604,-5.7524,-5.7751,-5.6424,-5.5895,-5.4986,-5.4027,-5.4027,-5.4445,-5.5046,-5.4445,-5.4471,-5.4837,-5.4053,-5.3609,-5.3347,-5.2877,-5.2302,-5.1779,0.0,0.0,0.0,0.0,0.0,0.0,0.0,0.0,-2.6217,-2.5936,-2.5907,-2.5907,-2.5907,-2.5907,0.0,0.0,-2.5907,-2.5907,-2.5907,-2.5907,-2.5907,-2.5907,-2.6188,-2.6526,-2.6863,-2.7172,-2.7172,-2.6863,-2.7481,-2.7621,-2.7312,-2.6975,-2.6666,-2.6357,-2.6048,-2.5542,-2.4978,-2.4669,-2.3994,-2.3069,-2.276,-2.2475,-2.2194,-2.2194,-2.231,-2.25,-2.2569,0.0,0.0,0.0,0.0,0.0,0.0,0.0,-2.3222,-2.3916,-2.5777,-2.8369,-3.1605,-3.4276,-3.6677,-3.8747,-4.0274,-4.1244,-4.1533,-4.2265,-4.2819,-4.2819,-4.3168,-4.3673,-4.4202,-4.4491,-4.5208,-4.6974,-4.743,-4.8288,-5.0181,-5.0991,-5.1429,-5.1492,-5.1429,-5.1179,-5.0511,-5.0448,-5.0991,-5.2385,-5.312,-5.4231,-5.5817,-5.5264,-5.542,-5.6641,-5.5955,-5.5725,-5.5961,-5.7296,-5.7651,-5.7038,-5.9064,-5.9403,-5.7997,-5.6381,-5.5299,-5.4628,-5.4628,-5.4654,-5.4654,-5.4341,-5.4053,-5.3818,-5.3504,-5.3034,-5.2537,-5.2511,-5.2119,-5.1596,0.0,0.0,0.0,0.0,0.0,0.0,0.0,0.0,0.0,-2.5964,-2.5907,-2.5907,-2.5907,-2.5907,-2.5907,0.0,0.0,0.0,-2.5907,-2.5907,-2.5907,-2.5907,-2.5907,-2.5907,-2.5907,-2.6385,-2.6413,-2.5907,-2.6413,-2.6638,-2.6638,-2.6638,-2.6329,-2.5739,-2.5851,-2.5542,-2.5006,-2.5006,-2.4331,-2.3266,-2.3154,-2.2732,-2.2194,-2.2194,-2.2333,-2.2546,-2.2569,-2.2684,-2.282,-2.2843,0.0,0.0,0.0,0.0,-2.3565,-2.5644,-2.634,-2.7771,-3.4038,-3.555,-3.6368,-4.0224,-4.1172,-4.1196,-4.1293,-4.2121,-4.2843,-4.288,-4.3673,-4.4429,-4.4861,-4.5501,-4.6439,-4.7979,-4.896,-4.9938,-5.1304,-5.2631,-5.318,-5.2297,-5.2937,-5.3059,-5.1927,-5.1891,-5.2385,-5.3544,-5.3752,-5.4588,-5.6279,-5.6394,-5.6967,-5.8292,-5.788,-5.791,-5.8518,-5.8783,-5.8787,-5.8655,-6.0291,-6.0534,-5.9375,-5.6898,-5.567,-5.5405,-5.5232,-5.4944,-5.4643,-5.4367,-5.3635,-5.2825,-5.3138,-5.2642,-5.1805,-5.2197,-5.2014,-5.1596,0.0,0.0,0.0,0.0,0.0,0.0,0.0,0.0,0.0,0.0,-2.5907,-2.5907,-2.5907,-2.5907,-2.5907,-2.5907,-2.5907,-2.5907,-2.5907,0.0,0.0,-2.5907,-2.5907,-2.5907,-2.5907,-2.5964,-2.5964,-2.5907,-2.5964,-2.602,-2.602,-2.602,-2.5683,-2.5147,-2.5655,-2.5542,-2.5006,-2.5006,-2.4613,-2.3909,-2.3322,-2.2732,-2.2194,-2.2194,-2.2217,-2.2263,-2.2408,-2.2454,-2.25,-2.2615,-2.2735,0.0,0.0,0.0,-2.3784,-2.3709,-2.6183,-2.9281,-3.0813,-3.4543,-3.8511,-4.0708,-4.1172,-4.1293,-4.1749,-4.2386,-4.294,-4.3313,-4.3914,-4.4309,-4.4381,-4.5197,-4.5998,-4.6263,-4.8095,-4.9938,-5.1304,-5.2631,-5.3872,-5.488,-5.4112,-5.3423,-5.3241,-5.3241,-5.3544,-5.4236,-5.4852,-5.5584,-5.6337,-5.6394,-5.6995,-5.8285,-5.9277,-5.9829,-5.9815,-6.1585,-6.1821,-6.0716,-6.0957,-6.1017,-6.0776,-5.9251,-5.7961,-5.6769,-5.5604,-5.5749,-5.6542,-5.4918,-5.4105,-5.3896,-5.2981,-5.2511,-5.2328,-5.1884,-5.1675,-5.1596,0.0,0.0,0.0,0.0,0.0,0.0,0.0,0.0,0.0,0.0,0.0,-2.5907,-2.5907,-2.5907,-2.5907,-2.5907,-2.5907,-2.5907,-2.5907,-2.5907,-2.5739,-2.5428,-2.54,-2.526,-2.4894,-2.5231,-2.54,-2.54,-2.54,-2.54,-2.54,-2.5063,-2.4922,-2.5006,-2.4922,-2.4922,-2.5006,-2.5006,-2.4866,-2.4585,-2.4303,-2.4866,-2.5653,-2.4013,-2.4462,-2.5733,-2.4131,-2.3374,-2.313,-2.3107,-2.2976,-2.2764,-2.2529,0.0,0.0,0.0,-2.5652,-2.8191,-3.1902,-3.5627,-3.8904,-4.0725,-4.1413,-4.1605,-4.1557,-4.1942,-4.2743,-4.4116,-4.4754,-4.5047,-4.4784,-4.5342,-4.6558,-4.8572,-4.9848,-5.1429,-5.3664,-5.4378,-5.4821,-5.5437,-5.4998,-5.4616,-5.4616,-5.4616,-5.4852,-5.547,-5.5526,-5.5903,-5.6851,-5.6908,-5.7484,-5.8753,-6.0056,-6.0732,-6.0627,-6.2263,-6.2817,-6.2204,-6.2204,-6.185,-6.1077,-6.0505,-5.9527,-5.8151,-5.6769,-5.6321,-5.6485,-5.4851,-5.4246,-5.4187,-5.2986,-5.2717,-5.2908,-5.1924,-5.1596,-5.1648,0.0,0.0,0.0,0.0,0.0,0.0,0.0,0.0,0.0,0.0,0.0,-2.5907,-2.5907,0.0,0.0,0.0,-2.5907,-2.5907,-2.5907,-2.5739,-2.5458,-2.5035,-2.4866,-2.4556,-2.4106,-2.4528,-2.4781,-2.4781,-2.4781,-2.4781,-2.4753,-2.4134,-2.4078,-2.45,-2.4219,-2.4331,-2.4781,-2.4922,-2.5006,-2.5063,-2.5797,-2.7086,-2.843,-2.6947,-2.7817,-2.9417,-2.6523,-2.5211,-2.4797,-2.3973,-2.3412,-2.304,-2.304,-2.2948,0.0,0.0,0.0,-2.7199,-3.2555,-3.5381,-3.7434,-3.9873,-4.1101,-4.158,-4.1272,-4.1871,-4.2971,-4.4439,-4.5334,-4.5775,-4.5747,-4.6029,-4.7208,-5.001,-5.1014,-5.2383,-5.5088,-5.5554,-5.5613,-5.5496,-5.5496,-5.5496,-5.5496,-5.5613,-5.5903,-5.6337,-5.6019,-5.6164,-5.7247,-5.7303,-5.7941,-5.9393,-6.0511,-6.1248,-6.1584,-6.2585,-6.3079,-6.3079,-6.3079,-6.2585,-6.1584,-6.1584,-6.1164,-6.0218,-5.8396,-5.7559,-5.7307,-5.603,-5.5437,-5.5299,-5.4333,-5.3957,-5.3822,-5.2864,-5.2355,-5.2119,0.0,0.0,0.0,0.0,0.0,0.0,0.0,0.0,0.0,0.0,0.0,-2.5907,-2.5907,-2.5907,-2.5907,-2.5907,-2.5907,-2.5907,-2.5907,-2.5372,-2.5035,-2.5006,-2.4444,0.0,-2.4078,-2.4106,-2.4134,-2.4134,-2.4134,-2.4134,-2.4106,-2.3459,-2.3154,-2.321,-2.3825,-2.4106,-2.4163,-2.4753,-2.5006,-2.5233,-2.7915,-2.8713,-2.8598,-3.1144,-3.2176,-3.1928,-2.9121,-2.8168,-2.7844,-2.5166,-2.3997,-2.3645,-2.3645,-2.3311,-2.3033,0.0,0.0,0.0,-3.0602,-3.2028,-3.3604,-3.7633,-3.9724,-4.0846,-4.1135,-4.2658,-4.3941,-4.379,-4.485,-4.6141,-4.7257,-4.7409,-4.7572,-4.8375,-5.0045,-5.1903,-5.3822,-5.5175,-5.5845,-5.5554,-5.5496,-5.5496,-5.5496,-5.6019,-5.6337,-5.6394,-5.6337,-5.6623,-5.7247,-5.7303,-5.8196,-6.0084,-6.0767,-6.1676,-6.2991,-6.3079,-6.3079,-6.3079,-6.3079,-6.3079,-6.3021,-6.3021,-6.3262,-6.3593,-6.0369,-5.9683,-6.0718,-5.947,-5.8581,-5.7992,-5.7992,-5.6864,-5.5166,-5.5103,-5.4367,-5.3295,0.0,0.0,0.0,0.0,0.0,0.0,0.0,0.0,0.0,0.0,0.0,0.0,0.0,-2.6324,-2.6179,-2.6179,-2.6179,-2.6008,-2.5611,-2.5277,-2.4744,-2.3925,-2.3597,-2.3291,-2.2897,-2.3262,-2.3459,-2.3459,-2.3459,-2.3459,-2.3459,-2.2812,-2.2531,-2.2531,-2.2784,-2.3094,-2.3516,-2.4163,-2.4641,-2.5289,-2.8652,-3.1114,-3.2688,-3.2286,-3.4453,-3.7191,-3.277,-3.0991,-3.0428,-2.8928,-2.6857,-2.485,-2.4451,-2.3899,-2.3542,-2.4302,-2.5309,-2.6816,-2.9871,-3.1428,-3.2934,-3.6037,-3.9351,-4.1736,-4.1543,-4.3454,-4.5564,-4.6382,-4.6783,-4.7427,-4.8788,-4.8152,-4.812,-5.0255,-5.0433,-5.1376,-5.4506,-5.5223,-5.5451,-5.5817,-5.5787,-5.5729,-5.5496,-5.6077,-5.6394,-5.6394,-5.6737,-5.7247,-5.7863,-5.7863,-5.8561,-6.0111,-6.0767,-6.1732,-6.3079,-6.3079,-6.3079,-6.3079,-6.3079,-6.3288,-6.3677,-6.3677,-6.4036,-6.4576,-6.3413,-6.2662,-6.2206,-6.0876,-6.0217,-5.9979,-5.9187,-5.7925,-5.6421,-5.5585,-5.451,-5.3452,0.0,0.0,0.0,0.0,0.0,-2.7937,-2.7937,-2.7995,-2.8024,-2.7966,0.0,0.0,0.0,0.0,-2.6542,-2.6342,-2.6313,-2.6028,-2.5454,-2.512,-2.4472,-2.342,-2.3045,-2.2663,-2.2292,-2.2639,-2.2788,-2.2788,-2.2788,-2.2788,-2.2788,-2.239,-2.2194,-2.2194,-2.2194,-2.2672,-2.3487,-2.396,-2.4608,-2.5711,-3.0427,-3.2919,-3.3956,-3.4871,-3.7013,-3.9075,-3.5648,-3.4186,-3.3768,-3.3111,-3.1265,-2.9,-2.7363,-2.5574,-2.4206,-2.4969,-2.5513,-2.6321,-2.8822,-3.0215,-3.1578,-3.4073,-3.7531,-4.0572,-4.1391,-4.3094,-4.5182,-4.7473,-4.7534,-4.77,-4.9433,-4.8693,-4.869,-5.1342,-5.1034,-5.1552,-5.4601,-5.4799,-5.4941,-5.5565,-5.565,-5.5677,-5.5817,-5.648,-5.668,-5.6308,-5.7078,0.0,-5.7863,-5.8085,-5.8926,-6.0395,-6.1297,-6.2181,-6.3079,-6.3079,-6.3079,-6.3079,-6.3079,-6.3288,-6.3707,-6.3917,-6.4366,-6.5054,-6.5263,-6.4694,-6.3608,-6.2918,-6.2612,-6.2348,-6.1444,-5.9929,-5.8015,-5.699,-5.5772,-5.469,0.0,0.0,0.0,0.0,-2.8254,-2.8254,-2.8254,-2.8254,-2.8254,-2.8254,0.0,0.0,0.0,0.0,0.0,-2.6399,-2.6313,-2.6056,-2.5454,-2.4851,-2.4193,-2.3512,-2.279,-2.2408,-2.2408,-2.2263,-2.2194,-2.2194,-2.2194,-2.2194,-2.2194,-2.2194,-2.2194,-2.2194,-2.2194,-2.2897,-2.4103,-2.423,-2.4914,-2.6497,-3.322,-3.4027,-3.2041,-3.9154,-4.0035,-3.7552,-3.7714,-3.7861,-3.7854,-3.749,-3.692,-3.5679,-3.2119,-2.8137,-2.4969,-2.5604,-2.5803,-2.6068,0.0,0.0,0.0,-3.1626,-3.4263,-3.7177,-4.067,-4.158,-4.2885,-4.6824,-4.684,-4.6867,-4.9085,-4.9039,-4.9282,-5.1459,-5.1763,-5.2267,-5.3838,-5.4119,-5.429,-5.4913,-5.497,-5.5339,-5.6251,-5.7247,-5.7247,-5.6105,-5.736,-5.7974,-5.736,-5.7892,-5.9122,-6.1018,-6.2361,-6.3049,-6.3079,-6.3079,-6.3079,-6.3079,-6.3079,-6.3079,-6.3139,-6.3737,-6.4395,-6.5084,-6.5742,-6.5682,-6.5144,-6.5772,-6.5652,-6.5054,-6.5054,-6.3074,-6.009,-5.9442,-5.834,-5.7184,0.0,0.0,0.0,-2.8883,-2.9283,-2.9597,-2.9597,-2.9658,-2.9688,0.0,0.0,0.0,-2.8857,-2.8079,-2.75,-2.7326,-2.6893,-2.6399,-2.5734,-2.4952,-2.4218,-2.3684,-2.2743,-2.2287,-2.2408,-2.2263,-2.2194,-2.2194,-2.2194,-2.2194,-2.2194,-2.2194,-2.2194,-2.2194,-2.2287,-2.2993,-2.4078,-2.4129,-2.4836,-2.6497,-3.3326,-3.5789,-3.5891,-4.0701,-4.3602,-4.4881,-4.3318,-4.1692,-4.042,-4.1523,-3.7595,-3.1743,-2.8886,-2.6857,-2.5546,-2.5749,-2.5803,-2.5981,-2.6823,0.0,0.0,0.0,0.0,0.0,-3.7459,-4.1577,-4.5241,-4.5978,-4.7891,-4.9675,-5.0303,-5.063,-5.096,-5.1389,-5.0656,-5.0906,-5.338,-5.3742,-5.3859,-5.4317,-5.4346,-5.4629,-5.531,-5.6216,-5.6559,0.0,-5.7751,-5.836,-5.736,-5.8748,-6.0041,-6.1074,-6.1942,-6.26,-6.3079,-6.3079,-6.3079,-6.3079,-6.3079,-6.3318,-6.3767,-6.4425,-6.5114,-6.5772,-6.643,-6.661,-6.646,-6.664,-6.634,-6.5742,-6.5742,-6.4298,-6.2092,-6.1459,-6.0365,-5.9205,0.0,0.0,-2.9462,-2.972,-3.0066,-3.0325,-3.0325,-3.0357,-3.0473,0.0,0.0,0.0,-2.9522,-2.8682,-2.8129,-2.8129,-2.7549,-2.691,-2.6268,-2.5477,-2.4677,-2.3826,-2.3117,-2.2663,-2.25,-2.2287,-2.2194,-2.2194,-2.224,-2.2263,-2.2263,-2.2263,-2.2287,-2.2385,-2.231,-2.3041,-2.4283,-2.4462,-2.5254,-2.6976,-3.3896,-3.6372,-3.6531,-4.1831,-4.4518,-4.538,-4.5382,-4.4319,-4.3262,-4.5571,-4.0943,-3.395,-3.2191,-2.9319,-2.6533,-2.6271,-2.6239,-2.6297,-2.6704,-2.7258,-2.7869,-2.8623,0.0,0.0,-3.6456,-3.9985,-4.336,-4.5601,-4.7715,-4.9267,-4.9771,-5.0658,-5.1395,-5.1656,-5.1045,-5.1115,-5.2809,-5.2778,-5.2921,-5.3803,-5.3861,-5.4172,-5.4798,-5.5756,-5.6241,-5.5823,-5.7716,-5.8664,-5.8085,-5.9313,-6.0416,-6.1104,-6.1762,-6.254,-6.3468,-6.3199,-6.3199,-6.3468,-6.3199,-6.3258,-6.3647,-6.4306,-6.4814,-6.5203,-6.5892,-6.6161,-6.6161,-6.6161,-6.6101,-6.5981,-6.5712,-6.451,-6.2939,-6.2238,-6.1549,-6.0841,0.0,0.0,-2.99,-3.051,-3.0598,-3.0627,-3.0685,-3.0714,-3.0916,0.0,-3.1148,-3.0568,-2.9987,-2.9319,-2.8912,-2.8912,-2.8245,-2.755,-2.6939,-2.6271,-2.5371,-2.4152,-2.3712,-2.325,-2.2729,-2.2413,-2.224,-2.224,-2.2385,-2.2431,-2.2431,-2.2431,-2.25,-2.2592,-2.2441,-2.3174,-2.4537,-2.5149,-2.6319,-2.8394,-3.4619,-3.6306,-3.5854,-4.2699,-4.42,-4.2992,-4.5717,-4.6195,-4.5886,-4.8348,-4.4997,-3.9678,-3.841,-3.3808,-2.8654,-2.7289,-2.7142,-2.7289,-2.691,-2.72,-2.7608,-2.7666,-2.9,0.0,-3.5913,-3.7153,-3.8919,-4.4411,-4.5928,-4.6572,-4.7558,-4.8921,-5.0176,-5.0982,-5.1385,-5.1775,-5.2216,-5.1821,-5.1932,-5.3257,-5.3511,-5.3852,-5.4535,-5.5721,-5.6208,-5.5735,-5.7514,-5.8862,-5.9308,-5.9817,-6.0416,-6.1104,-6.1822,-6.272,-6.3767,-6.3378,-6.3438,-6.3887,-6.3348,-6.3079,-6.3109,-6.3707,-6.4006,-6.4036,-6.4725,-6.5024,-6.5024,-6.5024,-6.5383,-6.5832,-6.5263,-6.4245,-6.3123,-6.2482,-6.2249,-6.222,-3.0248,-3.0423,-3.0452,-3.0569,-3.0598,-3.0772,-3.1264,-3.1322,-3.1584,-3.222,-3.2222,-3.2106,-3.193,-3.0916,-3.0249,-3.0249,-2.9174,-2.8216,-2.755,-2.6859,-2.6139,-2.5458,-2.4172,-2.3497,-2.3477,-2.2849,-2.2523,-2.2523,-2.2569,-2.2569,-2.2569,-2.2569,-2.2569,-2.2615,-2.3154,-2.3813,-2.4594,-2.5917,-2.8799,-3.2668,-3.4554,-3.6779,-3.9404,-4.3867,-4.7045,-4.9089,-4.9253,-4.832,-4.672,-4.4475,-4.3636,-4.2612,-3.7272,-3.5911,-3.5168,-2.9262,-2.9204,-3.044,-2.7581,-2.6881,-2.7084,-2.7579,-2.7985,0.0,-3.0179,-3.3277,-3.6182,-3.7366,-4.0502,-4.3019,-4.3019,-4.3668,-4.4203,-4.4138,-4.6309,-4.9102,-5.217,-5.2512,-5.238,-5.2146,-5.279,-5.3632,-5.4535,-5.5858,-5.677,-5.6959,-5.7804,-5.8999,-6.0599,-6.0326,-6.0416,-6.1104,-6.2271,-6.275,-6.248,-6.3348,-6.3617,-6.3258,-6.3139,-6.3079,-6.3109,-6.3707,-6.4006,-6.4036,-6.4725,-6.5024,-6.5024,-6.5024,-6.5114,-6.5203,-6.5084,-6.4845,-6.4546,-6.3862,-6.3624,-6.3564,-3.0539,-3.0598,-3.0598,-3.0598,-3.0598,-3.0801,-3.1438,-3.1495,-3.1874,-3.2861,-3.3006,-3.2861,-3.2542,-3.1932,-3.1555,-3.1555,-3.0394,-2.9522,-2.9174,-2.819,-2.7234,-2.6355,-2.5484,-2.4632,-2.3702,-2.3268,-2.2907,-2.2615,-2.2689,-2.2712,-2.2712,-2.2712,-2.3865,-2.5821,-2.4296,-2.5159,-2.7767,-2.733,-2.8886,-3.2015,-3.5589,-3.9552,-4.3613,-4.6961,-4.9361,-5.0885,-5.0575,-4.9728,-4.8398,-4.6296,-4.4365,-4.2531,-4.0404,-3.8563,-3.631,-3.208,-3.1645,-3.1786,-2.822,-2.7026,-2.6852,-2.7171,-2.7463,0.0,0.0,-3.1734,-3.4004,-3.4909,-3.7972,-4.0435,-4.028,-4.1396,-4.2305,-4.2178,-4.5084,-4.7472,-4.7625,-5.0427,-5.2452,-5.2482,-5.2757,0.0,-5.4285,-5.5293,-5.6479,-5.7915,-5.8434,-5.927,-6.051,-6.0595,-6.0745,-6.1104,-6.2391,-6.3079,-6.3049,-6.3677,-6.4006,-6.4036,-6.3378,-6.3079,-6.3079,-6.3408,-6.3528,-6.3558,-6.3917,-6.4066,-6.4066,-6.4066,-6.4066,-6.4096,-6.4395,-6.4515,-6.4485,-6.4126,-6.4006,-6.3947,-3.0598,-3.0598,-3.0598,-3.0598,-3.0714,-3.0974,-3.1613,-3.1816,-3.2309,-3.3532,-3.408,-3.4129,-3.3574,-3.3801,-3.3999,-3.3999,-3.293,-3.2069,-3.1464,-3.0363,-2.9291,-2.8303,-2.7236,-2.62,-2.5221,-2.4143,-2.3349,-2.2833,-2.2838,-2.2803,-2.2803,-2.2803,-2.4657,-2.791,-2.5878,-2.6879,-3.0034,-2.9375,-3.0096,-3.2115,-3.7643,-4.1909,-4.5364,-4.828,-4.9756,-5.0319,-5.0632,-5.035,-4.9732,-4.8972,-4.5929,-4.2533,-4.3267,-4.1014,-3.752,-3.4427,-3.3848,-3.3326,-2.9175,-2.7636,-2.714,-2.6997,-2.7345,-2.8053,0.0,0.0,0.0,-3.3132,-3.5263,-3.6896,-3.7007,-3.8581,-3.9828,-3.9712,0.0,0.0,0.0,-4.6397,0.0,-5.1193,-5.2206,0.0,-5.3122,-5.3978,-5.5663,-5.8614,-5.847,-5.8936,-6.0595,-6.0835,-6.0984,-6.1104,-6.2391,-6.3258,-6.3617,-6.3887,-6.4276,-6.4814,-6.3647,-6.3079,-6.3079,-6.3079,-6.3079,-6.3079,-6.3079,-6.3079,-6.3079,-6.3079,-6.3079,-6.3139,-6.3617,-6.3827,-6.3827,-6.3827,-6.3827,-6.3827,-3.0598,-3.0598,-3.0598,-3.0598,-3.1032,-3.1642,-3.2278,-3.289,-3.3499,-3.4225,-3.6079,-3.7287,-3.7221,-3.8521,-3.9401,-3.9401,-3.8745,-3.7253,-3.4692,-3.383,-3.3441,-3.3525,-2.9203,-2.7956,-3.0567,-2.6187,-2.3838,-2.3751,-2.3178,-2.2888,-2.2888,-2.2888,-2.3155,-2.3797,-2.8254,-2.88,-2.677,-3.2507,-3.6519,-3.9162,-4.1028,-4.0925,-3.9974,-4.2893,-4.561,-4.8048,-4.9559,-4.9679,-4.8977,-4.7969,-4.7299,-4.5902,-4.1009,-4.2566,-4.4294,-3.4617,-3.503,-3.7272,-3.1081,-2.8942,-2.8332,-2.7753,-2.7637,-2.761,-2.7272,0.0,-2.8254,-2.8454,0.0,-3.0009,-3.0557,0.0,0.0,-3.1148,-3.5241,-3.7858,-3.6035,-4.0094,-4.3488,-4.4146,-4.9693,0.0,0.0,-5.1503,-5.4465,-5.8896,-5.6459,-5.7132,-6.245,-6.1134,-6.0475,-6.1104,-6.2391,-6.2839,-6.2331,-6.3438,-6.4036,-6.4096,-6.3408,-6.3079,-6.3079,-6.3079,-6.3079,-6.3079,-6.3079,-6.3079,-6.3079,-6.3079,-6.3079,-6.3079,-6.3169,-6.3169,-6.3169,-6.3169,-6.3169,-6.3169,-3.0598,-3.0598,-3.0598,-3.0598,-3.109,-3.1758,-3.2394,-3.3383,-3.4109,-3.437,-3.5578,-3.6404,-3.6433,-3.7362,-3.84,-3.9333,-3.8846,-3.7758,-3.6207,-3.5461,-3.4214,-3.228,-3.0162,-2.8941,-2.8768,-2.6678,-2.5048,-2.3891,-2.363,-2.3287,-2.2888,-2.2888,-2.4409,-2.7275,-3.0097,-3.1792,-3.2806,-3.6917,-3.8513,-3.8549,-4.168,-4.1464,-3.9957,-4.5874,-4.8703,-4.9526,-4.9844,-4.9792,-4.9483,-4.9052,-4.7165,-4.5004,-4.5241,-4.4482,-4.2695,-3.8388,-3.7758,-3.7272,-3.2095,-3.1488,-3.1711,-2.9407,-3.01,-3.0762,-2.842,-2.81,-2.8187,-2.7782,0.0,0.0,0.0,0.0,0.0,0.0,-3.2774,-3.4888,-3.2699,0.0,-4.1914,0.0,0.0,0.0,0.0,0.0,0.0,0.0,-5.7986,-5.8882,-6.1224,-6.0924,-6.0625,-6.0505,-6.2181,-6.275,-6.2121,-6.3348,-6.4006,-6.3977,-6.3378,-6.3079,-6.3079,-6.3079,-6.3079,-6.3079,-6.3079,-6.3079,-6.3079,-6.3079,-6.3079,-6.3079,-6.3079,-6.3079,-6.3079,-6.3079,-6.3079,-6.3079,-3.0598,-3.0598,-3.0598,-3.0598,-3.1264,-3.2046,-3.2887,-3.3819,-3.4486,-3.4661,-3.5642,-3.6389,-3.6555,-3.8196,-3.9629,-4.0592,-4.0866,-4.0523,-3.9339,-3.793,-3.656,-3.5253,-3.2249,-3.0569,-3.0422,-2.8042,-2.6123,-2.4675,-2.4152,-2.3746,-2.3409,-2.3258,-2.516,-2.8828,-3.0964,-3.3513,-3.6427,-3.9693,-4.0506,-3.9796,-4.3039,-4.3681,-4.332,-4.8443,-5.0463,-5.0632,-5.0182,-5.0013,-4.9928,-4.9474,-4.708,0.0,-4.7511,-4.5695,-4.2396,-4.171,-4.0741,-3.8921,-3.4254,-3.4185,-3.4571,-3.0998,-3.1476,-3.2119,-2.9522,-2.8683,-2.8281,-2.7813,-2.81,0.0,0.0,0.0,-2.8303,-2.7982,0.0,-3.2077,-2.9871,-3.4254,-3.8312,0.0,0.0,0.0,0.0,0.0,0.0,0.0,0.0,-5.915,-5.9787,-6.0116,-6.0236,-6.0086,-6.1672,-6.2391,-6.2091,-6.3199,-6.3827,-6.3977,-6.3378,-6.3079,-6.3079,-6.3079,-6.3079,-6.3079,-6.3079,-6.3079,-6.3079,-6.3079,-6.3079,-6.3079,-6.3079,-6.3079,-6.3079,-6.3079,-6.3079,-6.3079,-3.0598,-3.0598,-3.0598,-3.0598,-3.1642,-3.2887,-3.4167,-3.4399,-3.4632,-3.5276,-3.7321,-3.8917,-3.9521,-4.3827,-4.6282,-4.5477,-4.7659,-4.8028,-4.5468,-4.2079,-4.2167,-4.6667,-3.644,-3.3474,-3.9538,-3.1206,-2.6791,-2.6733,-2.482,-2.4181,-2.4737,-2.4152,-2.4244,-2.5206,-3.0582,-3.304,-3.355,-3.9613,-4.3698,-4.6231,-4.6373,-4.8082,-5.0238,-4.7709,-4.811,-5.0041,-5.0013,-5.0013,0.0,-4.8104,-4.7497,0.0,0.0,-4.5657,-4.6611,-4.319,-4.3698,-4.4089,-3.8274,-3.6724,-3.5899,-3.233,-3.0599,-2.9721,-2.9608,-2.8568,-2.7654,-2.7674,-2.7724,-2.755,-2.6939,-2.7316,-2.7318,-2.6068,-2.7576,0.0,0.0,-2.8186,-3.0016,-3.2539,0.0,0.0,0.0,0.0,0.0,0.0,0.0,0.0,-5.8979,-5.856,-5.88,-6.0057,-6.0805,-6.1463,-6.2091,-6.278,-6.3408,-6.3977,-6.3378,-6.3079,-6.3079,-6.3079,-6.3079,-6.3079,-6.3079,-6.3079,-6.3079,-6.3079,-6.3079,-6.3079,-6.3079,-6.3079,-6.3079,-6.3079,-6.3079,-6.3079,-3.0598,-3.0598,-3.0598,-3.0598,-3.1642,-3.2948,-3.4225,-3.4777,-3.57,-3.7428,-3.9042,-4.0703,-4.2424,-4.4464,-4.6101,-4.7031,-4.7913,-4.7685,-4.5978,-4.3754,-4.2754,-4.3281,-3.6756,-3.4211,-3.6605,-3.1809,-2.8505,-2.682,-2.6152,-2.5487,-2.4824,-2.4646,-2.4878,-2.5691,-3.0969,-3.4519,-3.6978,-4.3054,-4.6357,-4.7458,-4.7458,-4.8518,-5.0143,-4.9658,-5.0431,-5.1787,-5.1787,-5.204,0.0,-5.1304,-4.9945,-4.8692,-4.8641,-4.7327,-4.5761,-4.5194,-4.4532,-4.3515,0.0,0.0,-4.1511,-3.6839,-3.6109,-3.5533,-3.1608,-3.0076,-2.9333,-2.8896,-2.8914,-2.8623,-2.7579,-2.755,-2.7434,-2.6591,-2.7023,-2.7314,0.0,-2.752,-2.8592,-3.0075,-3.4409,-3.7893,0.0,0.0,0.0,0.0,0.0,0.0,0.0,-5.8231,-5.871,-6.0057,-6.0745,-6.1433,-6.2091,-6.275,-6.3169,-6.3378,-6.3169,-6.3079,-6.3079,-6.3079,-6.3079,-6.3079,-6.3079,-6.3079,-6.3079,-6.3079,-6.3079,-6.3079,-6.3079,-6.3079,-6.3079,-6.3079,-6.3079,-6.3079,-3.0656,-3.0772,-3.0916,-3.0916,-3.199,-3.3296,-3.4545,-3.5131,-3.6389,-3.9129,-4.021,-4.1764,-4.4612,-4.6071,-4.7243,-4.8174,-4.9059,-4.881,-4.6974,-4.5556,-4.4543,-4.3946,-3.9812,-3.7936,-3.8964,-3.4582,-3.1498,-2.9871,-2.7808,-2.6474,-2.5839,-2.5429,-2.5662,-2.662,-3.022,-3.4468,-3.9309,-4.344,-4.6776,-4.9269,-4.9269,-4.9751,-5.0573,-5.1302,-5.1672,-5.1952,0.0,-5.3304,-5.3613,-5.3192,-5.2093,-5.0907,-5.1391,-4.9662,-4.7518,-4.7913,-4.7003,-4.5647,-4.456,-4.5279,0.0,-4.0783,-4.0153,-3.9354,-3.4679,-3.3042,-3.2354,-3.1933,-3.0838,-3.0422,-3.1845,-2.99,-2.839,-2.9348,-2.8158,-2.7055,0.0,-2.7142,-2.7744,-2.8658,-3.2248,-3.5502,0.0,0.0,0.0,0.0,0.0,0.0,0.0,0.0,-5.8351,-5.9697,-6.0625,-6.1433,-6.2091,-6.2959,-6.3288,-6.3079,-6.3288,-6.3288,-6.3079,-6.3079,-6.3079,-6.3079,-6.3079,-6.3079,-6.3079,-6.3079,-6.3079,-6.3079,-6.3079,-6.3079,-6.3079,-6.3079,-6.3079,-6.3079,-3.083,-3.1177,-3.1613,-3.1642,-3.2687,-3.3968,-3.5218,-3.5566,-3.6903,-4.0469,-4.106,-4.2582,-4.6361,-4.8919,-5.0026,-4.9223,-5.1395,-5.1579,-4.8827,-4.7714,-4.7689,-4.8974,-4.5203,-4.4095,-4.6379,-3.9237,-3.5479,-3.5392,-2.9755,-2.7258,-2.7724,-2.6504,-2.6591,-2.7782,-2.8477,-3.3058,-4.0247,-4.0971,-4.5345,-5.1841,-5.1869,-5.1841,-5.1787,-5.2517,-5.1809,-5.0699,-5.2938,-5.3726,-5.3754,-5.3726,-5.3726,-5.3613,-5.2967,-5.2349,-5.1759,-5.114,-5.0944,-5.0322,-4.7518,-4.7172,-4.691,-4.4055,-4.2483,0.0,0.0,-3.7177,-3.641,-3.6533,-3.3636,-3.2916,-3.8841,-3.3935,-3.0132,-3.3616,-3.0509,-2.7492,-2.691,-2.682,-2.7129,0.0,0.0,0.0,0.0,0.0,0.0,0.0,0.0,0.0,0.0,0.0,-5.7603,-5.9099,-6.0416,-6.1433,-6.2121,-6.3378,-6.3707,-6.3139,-6.3767,-6.3737,-6.3169,-6.3139,-6.3109,-6.3109,-6.3079,-6.3079,-6.3079,-6.3079,-6.3079,-6.3079,-6.3079,-6.3079,-6.3079,-6.3079,-6.3079,-6.3079,-3.2048,-3.2542,-3.3122,-3.3587,-3.3935,-3.4428,-3.5276,-3.7647,-4.0469,-4.3494,-4.5995,-4.8581,-5.1491,-5.2559,-5.3008,-5.2812,-5.338,-5.324,-5.2079,-5.0161,-4.9654,-5.0989,-4.6405,-4.4726,-4.6738,-4.0445,-3.6627,-3.5392,-3.1527,-2.9232,-2.8419,-2.8128,-2.8157,-2.8477,-2.961,-3.3863,-4.0275,-4.1667,-4.6054,-5.2169,-5.265,-5.1946,-5.0904,0.0,-5.305,-5.1861,-5.3726,-5.4653,-5.4962,-5.4512,-5.4344,-5.4231,-5.3613,-5.3304,-5.3051,-5.2433,-5.1899,-5.1365,-5.0632,-4.9925,-4.8878,-4.6854,-4.5012,-4.3147,0.0,0.0,0.0,-3.9704,-3.9078,-3.8149,-3.7164,-3.4986,-3.2745,-3.1087,-2.9058,-2.7637,-2.7492,-2.7164,-2.7036,-2.729,0.0,0.0,0.0,0.0,0.0,0.0,0.0,0.0,0.0,0.0,0.0,-5.9697,-6.0655,-6.1672,-6.281,-6.3588,-6.3917,-6.3767,-6.4455,-6.4695,-6.4515,-6.4006,-6.3767,-6.3737,-6.3258,-6.3079,-6.3079,-6.3079,-6.3079,-6.3079,-6.3079,-6.3079,-6.3079,-6.3079,-6.3079,-6.3079,-3.2539,-3.3238,-3.408,-3.4719,-3.6353,-3.761,-3.7696,-3.8823,-4.0986,-4.4932,-4.7241,-4.962,-5.2507,-5.3836,-5.4488,-5.4516,-5.4516,-5.3893,-5.2422,-5.1932,-5.1424,-5.0766,-4.9272,-4.8566,-4.883,-4.4342,-4.0867,-3.8543,-3.4461,-3.149,-2.9522,-2.897,-2.8999,-2.9581,-3.0278,-3.3787,-3.9413,-4.318,-4.7125,-5.1063,-5.2426,-5.2653,0.0,-5.3979,-5.4148,-5.3726,-5.4654,-5.5215,-5.544,-5.5102,-5.499,-5.4878,-5.4259,-5.4063,-5.395,-5.3304,-5.2883,-5.2545,-5.2264,-5.1674,-5.0885,-4.9695,-4.8616,-4.7186,-4.4909,-4.3714,-4.3301,0.0,-4.2527,-4.1639,0.0,0.0,-3.4577,-3.1,-2.961,-2.8884,-2.8565,-2.8068,-2.7769,0.0,-3.0925,0.0,0.0,0.0,0.0,0.0,0.0,0.0,0.0,0.0,-5.4221,-5.7423,-6.0416,-6.2181,-6.266,-6.4425,-6.4874,-6.4006,-6.4994,-6.5293,-6.5024,-6.4635,-6.4276,-6.3977,-6.3617,-6.3318,-6.3079,-6.3079,-6.3079,-6.3079,-6.3079,-6.3079,-6.3079,-6.3079,-6.3079,-6.3079,-3.3122,-3.3906,-3.4893,-3.5654,-3.9015,-4.1647,-4.1506,-4.0562,-4.1472,-4.6073,-4.7584,-4.9287,-5.206,-5.4258,-5.5481,-5.5366,-5.5424,-5.4488,-5.203,-5.3441,-5.3073,-5.0218,-5.2509,-5.3134,-5.1623,-4.8873,-4.5873,-4.2639,-3.7701,-3.3782,-3.083,-2.9726,-2.9813,-3.0859,-3.0946,-3.3768,-3.8914,-4.5014,-4.8415,-4.994,-5.1982,-5.3529,-5.4597,-5.4681,-5.5046,-5.5496,-5.5496,-5.5496,-5.5496,-5.5496,-5.5496,-5.5412,-5.4878,-5.4709,-5.4597,-5.3978,-5.3782,-5.3641,-5.2995,-5.2826,-5.2686,-5.2068,-5.2006,-5.1434,-4.8669,-4.7765,-4.7677,-4.8304,-4.5221,-4.4425,0.0,0.0,-3.6359,-3.2825,-3.2191,-3.1959,-3.1321,-3.0918,-3.0484,0.0,0.0,0.0,0.0,0.0,0.0,0.0,0.0,0.0,0.0,0.0,-5.2576,-5.479,-5.9937,-6.254,-6.2241,0.0,-6.5892,-6.4276,-6.5533,-6.5832,-6.5293,-6.5203,-6.4814,-6.4246,-6.4066,-6.3707,-6.3199,-6.3109,-6.3079,-6.3079,-6.3079,-6.3079,-6.3079,-6.3079,-6.3079,-6.3079,-3.5677,-3.5822,-3.6344,-3.7506,-4.0108,-4.2853,-4.5424,-4.7338,-4.8945,-5.0124,-5.3163,-5.5362,-5.5935,-5.7513,-5.8204,-5.7381,-5.7794,-5.7394,-5.5613,-5.5561,-5.5054,-5.3782,-5.319,-5.2988,-5.3172,-4.9456,-4.5977,-4.2907,-3.9139,-3.5539,-3.2164,-3.1961,-3.1961,-3.2193,-3.2777,-3.6411,-4.2408,-4.6498,-4.9747,-5.2207,-5.3163,-5.395,-5.4625,-5.5159,-5.5412,-5.5496,-5.5496,-5.5496,-5.5496,-5.5496,-5.5496,-5.5468,-5.5383,-5.5327,-5.5215,-5.4597,-5.4428,-5.4288,-5.3669,-5.3501,-5.336,-5.2714,-5.2207,-5.1701,-5.1166,-5.0629,-5.04,-5.102,-5.0094,-4.9019,-4.8516,0.0,0.0,-3.6852,-3.865,-4.0331,-3.9963,-4.0578,-3.945,0.0,0.0,0.0,0.0,0.0,0.0,0.0,0.0,0.0,0.0,0.0,-5.1259,0.0,-5.9787,0.0,0.0,0.0,-6.5473,-6.5652,-6.646,-6.6759,-6.664,-6.6071,-6.5772,-6.5592,-6.4485,-6.3947,-6.3797,-6.3288,-6.3079,-6.3079,-6.3079,-6.3079,-6.3079,-6.3079,-6.3079,-6.3079,-3.6838,-3.736,-3.8405,-4.035,-4.3241,-4.6414,-4.9653,-5.2525,-5.3818,-5.2152,-5.4067,-5.5697,-5.5908,-5.8263,-5.9421,-5.8367,-5.8772,-5.8568,-5.7466,-5.6976,-5.6552,-5.6076,-5.5254,-5.4737,-5.4601,-5.2468,-4.8933,-4.3979,-4.1649,-3.8081,-3.3467,-3.28,-3.2687,-3.3122,-3.5589,-3.8417,-4.1667,-4.6367,0.0,-5.1584,-5.3079,-5.4231,-5.5102,-5.5383,-5.5693,-5.5973,-5.5973,-5.6198,-5.6367,-5.5721,-5.5721,-5.5917,-5.5608,-5.5496,-5.544,-5.5159,-5.5074,-5.4934,-5.4316,-5.4147,-5.3978,-5.336,-5.2995,-5.277,-5.277,-5.2264,-5.1899,-5.2208,-5.1787,-5.0547,-4.7991,-4.5495,0.0,0.0,0.0,-4.1512,-4.2876,-4.3483,-4.2868,0.0,0.0,0.0,0.0,0.0,0.0,0.0,0.0,0.0,0.0,0.0,-5.0152,0.0,0.0,0.0,0.0,0.0,0.0,-6.5503,-6.652,-6.6999,-6.6969,-6.667,-6.634,-6.5981,-6.5323,-6.4635,-6.3947,-6.3318,-6.3079,-6.3079,-6.3079,-6.3079,-6.3079,-6.3079,-6.3079,-6.3079,-3.8609,-3.9421,-4.0902,-4.3718,-4.6986,-5.0162,-5.2876,-5.6043,-5.7053,-5.4221,-5.4944,-5.5771,-5.6014,-5.8813,-6.0324,-5.939,-5.9764,-5.9644,-5.8746,-5.8329,-5.7985,-5.7799,-5.7254,-5.6642,-5.6016,-5.5245,-5.1946,-4.6104,-4.4298,-4.0419,-3.467,-3.362,-3.3794,-3.5146,-3.8392,-4.0527,0.0,0.0,-4.9595,-5.1211,-5.3135,-5.4512,-5.5524,-5.5636,-5.6002,-5.6451,-5.6564,-5.7041,-5.7407,-5.6283,-5.6226,-5.6535,-5.6058,-5.5805,-5.5693,-5.5693,-5.5608,-5.5412,-5.4906,-5.4793,-5.4625,-5.4007,-5.3866,-5.3838,-5.3697,-5.3276,-5.2911,-5.2911,-5.2405,-5.1107,-4.8148,-4.725,0.0,0.0,0.0,-4.3544,-4.6032,-4.6634,-4.6475,0.0,0.0,0.0,0.0,0.0,0.0,0.0,0.0,0.0,-4.707,0.0,0.0,0.0,0.0,-6.1104,-6.0475,0.0,-6.6131,-6.5263,-6.643,-6.6999,-6.6999,-6.6999,-6.67,-6.6191,-6.6071,-6.5233,-6.3947,-6.3468,-6.3199,-6.3079,-6.3079,-6.3079,-6.3079,-6.3079,-6.3079,-6.3079,-4.2905,-4.2963,-4.3805,-4.755,-5.0423,-5.2584,-5.3765,-5.6904,-5.8841,-5.7911,-5.8898,-5.9566,-5.9358,-6.091,-6.1644,-6.1019,-6.1762,-6.1645,-6.009,-6.0267,-5.9976,-5.919,-5.7971,-5.7414,-5.7605,-5.5604,-5.3085,-5.0058,-4.6486,-4.1604,-3.5678,-3.5292,-3.6843,-3.9933,-4.0343,0.0,0.0,-4.9544,-5.1318,-5.3445,-5.4175,-5.4906,-5.5552,-5.6114,-5.6367,-5.6507,-5.7097,-5.7688,-5.8109,-5.7435,-5.7238,-5.7294,-5.7238,-5.6816,-5.6339,-5.6339,-5.5945,-5.5496,-5.544,-5.5412,-5.5271,-5.4653,-5.4512,-5.4344,-5.3782,-5.3613,-5.3585,-5.3585,-5.3079,-5.1668,-4.8454,-5.0157,-5.1689,0.0,0.0,0.0,0.0,-5.5594,-5.4703,-4.9921,0.0,0.0,0.0,0.0,0.0,0.0,-4.2611,0.0,0.0,0.0,0.0,-5.494,-5.5628,-5.6735,-5.8381,-6.2929,-6.5443,-6.5922,-6.664,-6.6999,-6.6999,-6.6999,-6.6969,-6.6879,-6.6251,-6.5233,-6.4006,-6.3947,-6.3588,-6.3079,-6.3079,-6.3079,-6.3079,-6.3079,-6.3079,-6.3079,-4.6308,-4.6679,-4.7985,-5.1062,-5.2775,-5.4492,-5.6816,-5.8697,-5.9915,-5.9994,-6.0293,-6.0558,-6.0638,-6.1878,-6.241,-6.1791,-6.2292,-6.2233,-6.138,-6.1085,-6.0969,-6.0999,-6.009,-5.9468,-5.9203,-5.7937,-5.5538,0.0,0.0,-4.4044,-3.9976,-3.948,-4.0842,-4.382,0.0,-4.7962,-4.9941,-5.2734,-5.4405,-5.5332,-5.559,-5.6279,-5.7225,-5.7484,-5.8057,-5.8686,-5.9004,-5.9251,-5.9399,-5.9172,-5.8588,-5.7884,-5.7491,-5.721,-5.6985,-5.6985,-5.6816,-5.6535,-5.617,-5.6058,-5.5917,-5.5299,-5.5131,-5.5074,-5.4821,-5.4765,-5.4681,-5.4288,-5.4177,-5.3415,-5.1183,-5.1779,-5.2673,-5.2858,0.0,0.0,0.0,-5.724,-5.7013,-5.4522,0.0,-5.2187,0.0,0.0,0.0,0.0,0.0,0.0,0.0,0.0,0.0,-5.5688,0.0,-5.9488,-6.1074,-6.3707,-6.5173,-6.5443,-6.649,-6.6999,-6.6999,-6.6999,-6.6999,-6.6939,-6.6281,-6.5712,-6.5144,-6.4336,-6.3857,-6.3588,-6.3228,-6.3079,-6.3079,-6.3079,-6.3079,-6.3139,-4.9931,-5.0336,-5.173,-5.4691,-5.562,-5.6752,-5.919,-6.009,-6.0671,-6.1135,-6.0966,-6.0938,-6.1135,-6.2052,-6.2469,-6.2027,-6.2262,-6.2409,-6.2263,-6.1791,-6.1791,-6.2351,-6.1758,-6.1159,-6.0685,-5.9638,-5.767,-5.4738,-5.0679,-4.7228,-4.4353,-4.282,-4.4181,0.0,-5.0245,-5.1628,-5.2423,-5.5342,-5.6602,-5.672,-5.6895,-5.7621,-5.8609,-5.8812,-5.9452,-6.0206,-6.038,-6.049,-6.047,-6.047,-5.9879,-5.8965,-5.8175,-5.78,-5.7659,-5.7659,-5.7519,-5.7294,-5.6816,-5.6704,-5.6592,-5.617,-5.5917,-5.5777,-5.5777,-5.5636,-5.5327,-5.4709,-5.4741,-5.4573,-5.3585,-5.3537,-5.4,-5.4996,0.0,0.0,-5.6676,-5.7655,-5.7606,-5.6147,-5.46,-5.3234,-5.2187,-5.093,0.0,0.0,0.0,0.0,0.0,0.0,0.0,0.0,0.0,0.0,-6.1882,-6.3977,-6.5114,-6.5323,-6.646,-6.6999,-6.6999,-6.6999,-6.6999,-6.6969,-6.649,-6.6191,-6.5951,-6.4994,-6.4485,-6.4246,-6.3588,-6.3468,-6.3588,-6.3228,-6.3318,-6.3677,-5.4054,-5.3907,-5.4691,-5.8552,-5.9248,-5.9451,-6.009,-6.0758,-6.1193,-6.1193,-6.1193,-6.1193,-6.1193,-6.1464,-6.1613,-6.1613,-6.191,-6.2234,-6.2556,-6.2615,-6.2731,0.0,0.0,-6.2091,-6.2061,-6.0116,-5.9069,-5.9039,0.0,0.0,-4.797,-4.4496,-4.6456,-5.2811,-5.2245,-5.3921,-5.7217,-5.7222,-5.7276,-5.7474,-5.8028,-5.8696,-5.9365,-5.9946,-6.0207,-6.0264,-6.0874,-6.1077,-6.1106,-6.1106,-6.1077,-6.0837,-5.9611,-5.8783,-5.8278,-5.8278,-5.7856,-5.7378,-5.7378,-5.7378,-5.7378,-5.735,-5.6873,-5.6395,-5.6395,-5.5945,-5.5327,-5.4709,-5.4597,-5.4683,-5.4941,-5.5766,-5.6738,-5.7628,0.0,0.0,-5.7274,-5.7863,-5.704,-5.3743,-5.5559,-5.6286,-5.4371,-5.5867,0.0,0.0,-5.7633,-5.868,0.0,0.0,0.0,-5.6248,-5.6248,0.0,-5.9129,-6.3049,-6.5353,-6.6011,-6.667,-6.6999,-6.6999,-6.6999,-6.6999,-6.6999,-6.6969,-6.661,-6.6011,-6.5981,-6.5592,-6.4934,-6.4246,-6.4395,-6.4844,-6.3558,-6.3887,-6.4904,-5.7786,-5.7611,-5.8023,-5.9132,-5.9626,-5.9974,-6.0177,-6.0758,-6.1193,-6.1193,-6.1193,-6.1193,-6.1193,-6.1313,-6.1404,0.0,-6.1732,-6.191,0.0,-6.2234,-6.2292,-6.241,-6.2407,-6.2195,-6.1776,-6.135,-6.0685,-5.9787,0.0,0.0,0.0,-5.0657,-5.227,-5.6422,-5.6243,-5.7027,-5.856,-5.8977,-5.9462,-5.9918,-6.0126,-6.06,-6.1223,-6.1401,-6.1757,-6.2201,-6.2379,-6.2145,-6.1791,-6.1791,-6.1465,-6.1046,-6.0624,-6.0083,-5.9574,-5.9574,-5.9154,-5.8531,-5.8137,-5.7997,-5.7912,-5.7491,-5.7238,-5.7069,-5.7069,-5.6592,-5.5945,-5.5327,-5.5534,-5.5766,-5.5367,-5.6249,-5.7192,-5.7734,-5.8249,0.0,-5.9463,-5.9559,-5.8947,-5.7428,-5.7587,-5.7214,0.0,-5.6915,0.0,0.0,0.0,-5.6376,-5.0182,0.0,0.0,0.0,-5.859,0.0,-6.3109,-6.4395,-6.5353,-6.6011,-6.667,-6.6999,-6.6999,-6.6999,-6.6999,-6.6999,-6.6999,-6.6879,-6.664,-6.6191,-6.5892,-6.5622,-6.4964,-6.4844,-6.4934,-6.4545,-6.4665,-6.5054,-6.0161,-5.9915,-6.0092,-6.018,-6.0382,-6.0584,-6.0584,-6.0932,-6.1193,-6.1193,-6.1193,-6.1193,-6.1193,-6.1193,0.0,-6.1464,-6.1464,-6.1554,-6.191,-6.191,-6.1969,-6.2116,-6.2292,-6.229,-6.1991,-6.1925,0.0,-6.0835,-5.853,-5.7214,-5.6795,-5.6346,-5.7274,-5.9249,-5.9249,-5.9488,-5.9877,-6.0296,-6.0864,-6.1493,-6.1493,-6.1882,-6.248,-6.248,-6.272,-6.3079,-6.3079,-6.2847,-6.2468,-6.2468,-6.2204,-6.1821,-6.1821,-6.1434,-6.0834,-6.0592,-6.0226,-5.9834,-5.9436,-5.9351,-5.9237,-5.8867,-5.8643,-5.8415,-5.8187,-5.7757,-5.7359,-5.6961,-5.7053,-5.6967,-5.665,-5.7334,-5.8102,-5.827,-5.9221,-6.0093,-6.0707,-6.0633,-5.9937,-5.853,0.0,0.0,0.0,-5.6466,-5.6406,0.0,0.0,-5.7184,-5.3294,0.0,-5.9368,-5.862,-6.0715,0.0,-6.4994,-6.5263,-6.5712,-6.637,-6.6789,-6.6999,-6.6999,-6.6999,-6.6999,-6.6999,-6.6999,-6.6999,-6.6939,-6.6281,-6.6161,-6.6281,-6.5383,-6.5323,-6.5712,-6.5203,-6.5353,-6.5802,-6.143,-6.1057,-6.0999,-6.1496,-6.1404,-6.1193,-6.1193,-6.1193,-6.1193,-6.1193,-6.1193,-6.1193,-6.1193,-6.1193,-6.1193,-6.1193,0.0,0.0,-6.1554,-6.1554,-6.1732,-6.2057,-6.2057,-6.2234,-6.2498,-6.1991,-6.1836,-6.2091,-6.1433,-6.1104,-6.1104,-6.1104,-6.1104,-6.1104,-6.1104,-6.1134,-6.1194,-6.1194,-6.1553,-6.2181,-6.2211,-6.26,-6.3139,-6.3139,-6.3139,-6.3139,-6.3079,-6.3079,-6.3079,-6.3079,-6.3079,-6.3079,-6.3079,-6.2643,-6.2057,-6.1346,-6.1166,-6.1106,-6.1106,-6.1106,-6.1106,-6.1106,-6.0642,-6.012,-5.951,-5.9365,-5.9365,-5.9335,-5.8812,-5.8434,-5.8434,-5.8889,-5.9313,-5.9428,-6.0354,-6.1138,-6.1253,-6.1224,-6.0236,0.0,0.0,0.0,0.0,-5.5269,-5.5987,0.0,0.0,-6.0116,0.0,0.0,-5.9757,-6.1194,-6.245,-6.3737,-6.5084,-6.5712,-6.634,-6.6999,-6.6999,-6.6999,-6.6999,-6.6999,-6.6999,-6.6999,-6.6999,-6.6999,-6.6939,-6.6281,-6.64,-6.6879,-6.5592,-6.5862,-6.6849,-6.5622,-6.5951,-6.6909,0.0,0.0,-6.1998,-6.1643,-6.1554,-6.1464,-6.1253,-6.1193,-6.1193,-6.1193,-6.1193,-6.1193,-6.1193,-6.1193,-6.1193,-6.1193,-6.1193,-6.1253,-6.1284,-6.1284,-6.1313,-6.1433,-6.1642,-6.1791,-6.185,-6.2203,-6.2255,-6.2091,-6.1433,-6.1104,-6.1104,-6.1104,-6.1104,-6.1104,-6.1104,-6.1403,-6.1852,-6.1852,-6.2241,-6.2899,-6.3348,-6.3647,-6.3767,-6.3767,-6.3767,-6.3707,-6.3258,-6.3079,-6.3079,-6.3079,-6.3079,-6.3079,-6.3079,-6.3021,-6.2701,-6.2028,-6.1465,-6.1106,-6.1106,-6.1106,-6.1106,-6.1106,-6.099,-6.07,-6.012,-6.0004,-5.9858,-5.9394,-5.9537,-5.9764,-5.9764,-5.9878,-6.0282,-6.124,-6.1278,-6.1518,-6.2483,-6.2181,-6.1642,0.0,-5.9727,-5.88,-5.8441,-5.8141,-5.7513,0.0,0.0,-5.7363,-5.8022,-5.871,-6.0176,-6.254,-6.2899,-6.3947,-6.5772,-6.5922,-6.634,-6.6999,-6.6999,-6.6999,-6.6999,-6.6999,-6.6999,-6.6999,-6.6999,-6.6999,-6.6939,-6.6281,-6.64,-6.6909,-6.6101,-6.6281,-6.6939,-6.664,-6.6729,-6.6969,-6.3021,-6.2731,-6.2439,-6.191,-6.1732,-6.1494,-6.1253,-6.1193,-6.1193,-6.1193,-6.1193,-6.1193,-6.1193,-6.1193,-6.1193,-6.1193,-6.1193,-6.1193,-6.1193,-6.1193,-6.1193,-6.1193,-6.1344,-6.1434,-6.1613,-6.1969,-6.2173,-6.2311,-6.1953,-6.1831,-6.2002,-6.2002,-6.2002,-6.2002,-6.2002,-6.2211,-6.254,-6.254,-6.2929,-6.3528,-6.3857,-6.4186,-6.4425,-6.4126,-6.4006,-6.3917,-6.3288,-6.3079,-6.3079,-6.3079,-6.3079,-6.3079,-6.3079,-6.3079,-6.3021,-6.2643,-6.2263,-6.2028,-6.2028,-6.2028,-6.2087,-6.2352,-6.244,-6.241,-6.2381,-6.2381,-6.2204,-6.1556,-6.1493,-6.1456,-6.1159,-6.0805,-6.0919,-6.1945,-6.0794,-6.0678,-6.3141,-6.2151,-6.1613,-6.2839,-6.2061,-6.1074,-6.0116,-5.9727,-5.9219,-5.8411,-5.868,0.0,-6.0655,-6.1403,-6.2211,-6.3049,-6.3947,-6.4934,-6.6011,-6.6311,-6.664,-6.6999,-6.6999,-6.6999,-6.6999,-6.6999,-6.6999,-6.6999,-6.6999,-6.6999,-6.6939,-6.6281,-6.64,-6.6939,-6.6251,-6.64,-6.6999,-6.6999,-6.6999,-6.6999,-6.3337,-6.2933,-6.2498,-6.2175,-6.1791,-6.1494,-6.1253,-6.1193,-6.1193,-6.1193,-6.1193,-6.1193,-6.1193,-6.1193,-6.1193,-6.1193,-6.1193,-6.1193,-6.1193,-6.1193,-6.1193,-6.1193,-6.1193,-6.1313,-6.1554,-6.1613,-6.191,-6.2615,-6.2615,-6.2789,-6.3079,-6.3079,-6.3079,-6.3079,-6.3079,-6.3079,-6.3079,-6.3169,-6.3528,-6.4006,-6.4216,-6.4665,-6.5114,-6.4515,-6.4306,-6.4216,-6.3468,-6.3228,-6.3199,-6.3109,-6.3079,-6.3079,-6.3079,-6.3079,-6.3079,-6.3079,-6.3079,-6.3079,-6.3079,-6.3079,-6.3199,-6.3737,-6.3857,-6.4006,-6.4605,-6.4725,-6.4575,-6.3977,-6.3438,-6.2899,-6.2361,-6.1792,-6.1493,-6.1762,-6.0236,-6.0086,-6.3139,-6.2002,-6.1642,-6.3887,-6.3528,-6.263,-6.1523,-6.0805,-6.0894,-6.2151,-6.2331,-6.3169,-6.4934,-6.5114,-6.4665,-6.3558,-6.5144,-6.6071,-6.6161,-6.67,-6.6999,-6.6999,-6.6999,-6.6999,-6.6999,-6.6999,-6.6999,-6.6999,-6.6999,-6.6999,-6.6939,-6.6281,-6.64,-6.6939,-6.6251,-6.64,-6.6999,-6.6999,-6.6999,-6.6999,-6.4457,-6.3448,-6.2498,-6.2175,-6.1791,-6.1494,-6.1253,-6.1193,-6.1193,-6.1193,-6.1193,-6.1193,-6.1193,-6.1193,-6.1193,-6.1193,-6.1193,-6.1193,-6.1193,-6.1193,-6.1193,-6.1193,-6.1193,-6.1193,-6.1253,-6.1494,-6.191,-6.2615,-6.2615,-6.2789,-6.3079,-6.3079,-6.3079,-6.3079,-6.3079,-6.3079,-6.3109,-6.3617,-6.3917,-6.4096,-6.5233,-6.5772,-6.5832,-6.5742,-6.5712,-6.5533,-6.4306,-6.3857,-6.3767,-6.3258,-6.3079,-6.3079,-6.3079,-6.3079,-6.3079,-6.3079,-6.3079,-6.3079,-6.3079,-6.3079,-6.3109,-6.3199,-6.3228,-6.3258,-6.3348,-6.3378,-6.3348,-6.3228,-6.3139,-6.3049,-6.2929,-6.2839,-6.2241,-6.0655,-6.1912,-6.272,-6.1702,-6.3109,-6.4425,-6.4814,-6.3797,-6.2989,-6.278,-6.2181,-6.2091,-6.2869,-6.3408,-6.4096,-6.4934,-6.5562,-6.5772,-6.5562,-6.5832,-6.6281,-6.6819,-6.6939,-6.6999,-6.6999,-6.6999,-6.6999,-6.6999,-6.6999,-6.6999,-6.6999,-6.6999,-6.6999,-6.6939,-6.6281,-6.64,-6.6939,-6.6251,-6.64,-6.6999,-6.6999,-6.6999,-6.6999,-6.3732,-6.3049,-6.2439,-6.191,-6.1732,-6.1494,-6.1253,-6.1193,-6.1193,-6.1193,-6.1193,-6.1193,-6.1193,-6.1193,-6.1193,-6.1193,-6.1193,-6.1193,-6.1193,-6.1193,-6.1193,-6.1193,-6.1193,-6.1193,-6.1193,-6.1284,-6.1583,-6.2057,-6.2234,-6.2468,-6.2847,-6.3021,-6.3079,-6.3079,-6.3079,-6.3258,-6.3588,-6.3887,-6.4425,-6.5144,-6.5772,-6.6221,-6.649,-6.6131,-6.5802,-6.5353,-6.4366,-6.3767,-6.3468,-6.3169,-6.3079,-6.3079,-6.3079,-6.3079,-6.3079,-6.3079,-6.3079,-6.3079,-6.3079,-6.3079,-6.3169,-6.3498,-6.3558,-6.3677,-6.4036,-6.4126,-6.4006,-6.3647,-6.3558,-6.3468,-6.3139,-6.3079,-6.278,-6.1852,-6.1523,-6.1792,-6.3049,-6.3049,-6.3588,-6.5353,-6.5024,-6.4246,-6.3169,-6.3109,-6.3258,-6.3558,-6.4186,-6.4994,-6.6041,-6.637,-6.655,-6.655,-6.655,-6.67,-6.6999,-6.6999,-6.6999,-6.6999,-6.6999,-6.6999,-6.6999,-6.6999,-6.6999,-6.6969,-6.661,-6.646,-6.64,-6.5742,-6.5652,-6.5892,-6.5592,-6.5652,-6.5922,-6.5922,-6.5922,-6.5922,-6.3364,-6.2759,-6.2292,-6.1791,-6.1613,-6.1464,-6.1253,-6.1193,-6.1193,-6.1193,-6.1193,-6.1193,-6.1193,-6.1193,-6.1193,-6.1193,-6.1193,-6.1193,-6.1193,-6.1193,-6.1193,-6.1193,-6.1193,-6.1193,-6.1193,-6.1193,-6.1344,-6.1613,-6.185,-6.2175,-6.2615,-6.2847,-6.3021,-6.3079,-6.3228,-6.3558,-6.4006,-6.4336,-6.5054,-6.6011,-6.6191,-6.655,-6.6939,-6.643,-6.5922,-6.5383,-6.4545,-6.3917,-6.3498,-6.3169,-6.3079,-6.3079,-6.3079,-6.3079,-6.3079,-6.3079,-6.3079,-6.3079,-6.3079,-6.3079,-6.3199,-6.3677,-6.3767,-6.3917,-6.4455,-6.4575,-6.4425,-6.3887,-6.3767,-6.3647,-6.3169,-6.3079,-6.2929,-6.245,-6.1194,-6.1134,-6.3737,-6.2899,-6.3019,-6.5682,-6.5862,-6.5203,-6.3677,-6.3827,-6.4066,-6.4216,-6.4725,-6.5592,-6.6909,-6.6999,-6.6999,-6.6999,-6.6999,-6.6999,-6.6999,-6.6999,-6.6999,-6.6999,-6.6999,-6.6999,-6.6999,-6.6999,-6.6999,-6.6939,-6.6281,-6.6011,-6.5951,-6.5293,-6.5024,-6.5024,-6.5024,-6.5024,-6.5024,-6.5024,-6.5024,-6.5024,-6.4789,-6.3246,-6.2116,-6.2057,-6.1583,-6.1193,-6.1193,-6.1193,-6.1193,-6.1193,-6.1193,-6.1193,-6.1193,-6.1193,-6.1193,-6.1193,-6.1193,-6.1193,-6.1193,-6.1193,-6.1193,-6.1193,-6.1193,-6.1193,-6.1193,-6.1193,-6.1344,-6.1613,-6.1613,-6.1969,-6.2615,-6.2615,-6.2789,-6.3109,-6.3677,-6.3947,-6.4066,-6.5323,-6.5922,-6.6071,-6.667,-6.6939,-6.6999,-6.6939,-6.6879,-6.667,-6.5413,-6.4934,-6.4695,-6.3498,-6.3079,-6.3079,-6.3079,-6.3079,-6.3079,-6.3079,-6.3079,-6.3079,-6.3079,-6.3079,-6.3079,-6.3139,-6.3139,-6.3169,-6.3199,-6.3228,-6.3199,-6.3169,-6.3139,-6.3139,-6.3079,-6.3079,-6.248,-6.0595,-6.2181,-6.3109,-6.1613,-6.3318,-6.5054,-6.5922,-6.5473,-6.5054,-6.4904,-6.4336,-6.4276,-6.4904,-6.4994,-6.5592,-6.6909,-6.6999,-6.6999,-6.6999,-6.6999,-6.6999,-6.6999,-6.6999,-6.6999,-6.6999,-6.6999,-6.6999,-6.6999,-6.6999,-6.6999,-6.6939,-6.6281,-6.6011,-6.5951,-6.5293,-6.5024,-6.5024,-6.5024,-6.5024,-6.5024,-6.5024,-6.5024,-6.5024,-6.4226,-6.3149,-6.2469,-6.1671,-6.1373,-6.1193,-6.1193,-6.1193,-6.1193,-6.1193,-6.1193,-6.1193,-6.1193,-6.1193,-6.1193,-6.1193,-6.1193,-6.1193,-6.1193,-6.1193,-6.1193,-6.1193,-6.1193,-6.1193,-6.1193,-6.1193,-6.1253,-6.1344,-6.1494,-6.1732,-6.1998,-6.2854,-6.3267,-6.3415,-6.4248,-6.4874,-6.5263,-6.5802,-6.6251,-6.664,-6.6879,-6.6999,-6.6999,-6.6999,-6.6729,-6.6251,-6.5353,-6.4755,-6.4246,-6.3378,-6.3079,-6.3079,-6.3079,-6.3079,-6.3079,-6.3079,-6.3079,-6.3079,-6.3079,-6.3079,-6.3079,-6.3079,-6.3079,-6.3079,-6.3079,-6.3079,-6.3079,-6.3079,-6.3079,-6.3079,-6.3079,-6.3079,-6.2839,-6.2061,-6.278,-6.3318,-6.2959,-6.3767,-6.4635,-6.5323,-6.5533,-6.5293,-6.4485,-6.5263,-6.5622,-6.5054,-6.5772,-6.646,-6.6969,-6.6999,-6.6999,-6.6999,-6.6999,-6.6999,-6.6999,-6.6999,-6.6999,-6.6999,-6.6999,-6.6999,-6.6999,-6.6999,-6.6759,-6.634,-6.5682,-6.5144,-6.4725,-6.4066,-6.3827,-6.3827,-6.3827,-6.3827,-6.3827,-6.3827,-6.3827,-6.3827,-6.4336,-6.3564,-6.3146,-6.2284,-6.1924,-6.1803,-6.1803,-6.1803,-6.1716,-6.1513,-6.1483,-6.1396,-6.1222,-6.1193,-6.1193,-6.1193,-6.1193,-6.1193,-6.1193,-6.1193,-6.1193,-6.1193,-6.1193,-6.1193,-6.1193,-6.1193,-6.1193,-6.1193,-6.1404,-6.1494,-6.1613,-6.2617,-6.3328,-6.3624,-6.4547,-6.5383,-6.6011,-6.6221,-6.658,-6.6999,-6.6999,-6.6999,-6.6999,-6.6999,-6.67,-6.6221,-6.5562,-6.4904,-6.4216,-6.3588,-6.3228,-6.3079,-6.3079,-6.3079,-6.3079,-6.3079,-6.3079,-6.3079,-6.3079,-6.3079,-6.3079,-6.3079,-6.3079,-6.3079,-6.3079,-6.3079,-6.3079,-6.3079,-6.3079,-6.3079,-6.3079,-6.3079,-6.3079,-6.3079,-6.3079,-6.3228,-6.3647,-6.3707,-6.3947,-6.4635,-6.5114,-6.5084,-6.4395,-6.5562,-6.6071,-6.5383,-6.6161,-6.67,-6.67,-6.6879,-6.6879,-6.67,-6.6879,-6.6999,-6.6999,-6.6999,-6.6999,-6.6999,-6.6999,-6.6999,-6.6999,-6.6999,-6.664,-6.5981,-6.5323,-6.4635,-6.3947,-6.3318,-6.3079,-6.3079,-6.3079,-6.3079,-6.3079,-6.3079,-6.3079,-6.3109,-6.5467,-6.4515,-6.4091,-6.4091,-6.3512,-6.308,-6.308,-6.308,-6.2848,-6.218,-6.2093,-6.1861,-6.128,-6.1222,-6.1222,-6.1222,-6.1193,-6.1193,-6.1193,-6.1193,-6.1193,-6.1193,-6.1193,-6.1193,-6.1193,-6.1193,-6.1193,-6.1193,-6.1193,-6.1344,-6.1613,-6.1939,-6.2647,-6.3624,-6.4576,-6.5413,-6.6041,-6.67,-6.6999,-6.6999,-6.6999,-6.6999,-6.6999,-6.6999,-6.6999,-6.6909,-6.6251,-6.5592,-6.4934,-6.4246,-6.3588,-6.3079,-6.3079,-6.3079,-6.3079,-6.3079,-6.3079,-6.3079,-6.3079,-6.3079,-6.3079,-6.3079,-6.3079,-6.3079,-6.3079,-6.3079,-6.3079,-6.3079,-6.3079,-6.3079,-6.3079,-6.3079,-6.3079,-6.3079,-6.3079,-6.3079,-6.3079,-6.3079,-6.3318,-6.3917,-6.4006,-6.4276,-6.4964,-6.5024,-6.5293,-6.5951,-6.6011,-6.6011,-6.6011,-6.664,-6.67,-6.6041,-6.664,-6.6999,-6.6999,-6.6999,-6.6999,-6.6999,-6.6999,-6.6999,-6.6969,-6.6969,-6.661,-6.5951,-6.5293,-6.4635,-6.3947,-6.3318,-6.3079,-6.3079,-6.3079,-6.3079,-6.3079,-6.3079,-6.3079,-6.3169,-6.5802,-6.5016,-6.4531,-6.3845,-6.3389,-6.308,-6.308,-6.308,-6.3022,-6.2819,-6.279,-6.2732,-6.2558,-6.2093,-6.1832,-6.1832,-6.1425,-6.1193,-6.1193,-6.1193,-6.1193,-6.1193,-6.1193,-6.1193,-6.1193,-6.1193,-6.1193,-6.1193,-6.1193,-6.1253,-6.1373,-6.2111,-6.2613,-6.2968,-6.4603,-6.55,-6.5708,-6.6638,-6.6999,-6.6999,-6.6999,-6.6999,-6.6999,-6.6999,-6.6999,-6.6909,-6.6251,-6.5592,-6.4994,-6.4784,-6.3977,-6.3079,-6.3079,-6.3079,-6.3079,-6.3079,-6.3079,-6.3079,-6.3079,-6.3079,-6.3079,-6.3079,-6.3079,-6.3079,-6.3079,-6.3079,-6.3079,-6.3079,-6.3079,-6.3079,-6.3079,-6.3079,-6.3079,-6.3079,-6.3079,-6.3079,-6.3079,-6.3079,-6.3139,-6.3318,-6.3737,-6.4066,-6.4276,-6.5173,-6.5802,-6.5981,-6.6011,-6.6011,-6.6011,-6.6191,-6.6221,-6.6011,-6.664,-6.6999,-6.6999,-6.6999,-6.6999,-6.6999,-6.6999,-6.6759,-6.6311,-6.6311,-6.5682,-6.4605,-6.4395,-6.3947,-6.3348,-6.3139,-6.3079,-6.3079,-6.3079,-6.3348,-6.3707,-6.3707,-6.4036,-6.4336,-6.643,-6.582,-6.5394,-6.4826,-6.4334,-6.4023,-6.4023,-6.396,-6.3748,-6.3486,-6.3457,-6.337,-6.3138,-6.2732,-6.2499,-6.2499,-6.1919,-6.1454,-6.1222,-6.1193,-6.1193,-6.1193,-6.1193,-6.1193,-6.1193,-6.1193,-6.1193,-6.1193,-6.1193,-6.1193,-6.1193,-6.1872,-6.2345,-6.2666,-6.4211,-6.5136,-6.5586,-6.6455,-6.6876,-6.6999,-6.6999,-6.6999,-6.6999,-6.6999,-6.6999,-6.6939,-6.655,-6.5802,-6.5024,-6.5024,-6.4156,-6.3079,-6.3079,-6.3079,-6.3079,-6.3079,-6.3079,-6.3079,-6.3079,-6.3079,-6.3079,-6.3079,-6.3079,-6.3079,-6.3079,-6.3079,-6.3079,-6.3079,-6.3079,-6.3079,-6.3079,-6.3079,-6.3079,-6.3079,-6.3079,-6.3079,-6.3079,-6.3079,-6.3079,-6.3079,-6.3408,-6.3827,-6.4366,-6.5144,-6.5712,-6.5981,-6.6011,-6.5772,-6.5233,-6.5712,-6.5892,-6.5622,-6.652,-6.6999,-6.6999,-6.6999,-6.6999,-6.6999,-6.6729,-6.64,-6.6011,-6.5742,-6.5024,-6.4006,-6.4006,-6.3647,-6.3079,-6.3079,-6.3079,-6.3109,-6.3348,-6.3677,-6.4036,-6.4306,-6.4665,-6.4845,-6.7396,-6.6785,-6.6506,-6.6506,-6.5978,-6.5538,-6.5538,-6.5222,-6.4856,-6.4183,-6.4125,-6.3893,-6.3312,-6.3225,-6.3167,-6.3167,-6.2558,-6.1919,-6.1309,-6.128,-6.1251,-6.1193,-6.1193,-6.1193,-6.1193,-6.1193,-6.1193,-6.1193,-6.1193,-6.1193,-6.1193,-6.1464,-6.1904,-6.2577,-6.3615,-6.4538,-6.5464,-6.6209,-6.6691,-6.6937,-6.6999,-6.6999,-6.6999,-6.6999,-6.6939,-6.6909,-6.6909,-6.6071,-6.4934,-6.4874,-6.4096,-6.3139,-6.3109,-6.3079,-6.3079,-6.3079,-6.3079,-6.3079,-6.3079,-6.3079,-6.3079,-6.3079,-6.3079,-6.3079,-6.3079,-6.3079,-6.3079,-6.3079,-6.3079,-6.3079,-6.3079,-6.3079,-6.3079,-6.3079,-6.3079,-6.3079,-6.3079,-6.3079,-6.3079,-6.3079,-6.3139,-6.3647,-6.4904,-6.5084,-6.5353,-6.5951,-6.5892,-6.5293,-6.4066,-6.5173,-6.5562,-6.4964,-6.6221,-6.6879,-6.6819,-6.6879,-6.6909,-6.6879,-6.6281,-6.5951,-6.5802,-6.5203,-6.4575,-6.3917,-6.3917,-6.3588,-6.3079,-6.3079,-6.3109,-6.3228,-6.3767,-6.3978,-6.4097,-6.4666,-6.4905,-6.4725,-6.8444,-6.7366,-6.6506,-6.6506,-6.6195,-6.5882,-6.5882,-6.563,-6.5353,-6.5173,-6.4954,-6.4735,-6.459,-6.4125,-6.3835,-6.3835,-6.3254,-6.2587,-6.1948,-6.189,-6.1687,-6.1222,-6.1193,-6.1193,-6.1193,-6.1193,-6.1193,-6.1193,-6.1193,-6.1193,-6.1193,-6.1253,-6.1633,-6.2244,-6.3281,-6.4109,-6.4817,-6.5961,-6.6568,-6.6629,-6.6876,-6.6999,-6.6999,-6.6999,-6.667,-6.6221,-6.6221,-6.5353,-6.4156,-6.3647,-6.3617,-6.3707,-6.3228,-6.3079,-6.3079,-6.3079,-6.3079,-6.3079,-6.3079,-6.3079,-6.3079,-6.3079,-6.3079,-6.3079,-6.3079,-6.3079,-6.3079,-6.3079,-6.3079,-6.3079,-6.3079,-6.3079,-6.3079,-6.3079,-6.3079,-6.3079,-6.3079,-6.3079,-6.3079,-6.3079,-6.3498,-6.4126,-6.4934,-6.5503,-6.5862,-6.6011,-6.5024,-6.4306,-6.4006,-6.4276,-6.4366,-6.4216,-6.5533,-6.5981,-6.5473,-6.5951,-6.6221,-6.6221,-6.6071,-6.5443,-6.4425,-6.4276,-6.3887,-6.3288,-6.3288,-6.3199,-6.3079,-6.3079,-6.3378,-6.3827,-6.3947,-6.401,-6.4097,-6.4215,-6.3971,-6.3421,-6.8766,-6.7698,-6.6753,-6.6753,-6.6444,-6.6195,-6.6007,-6.5756,-6.5412,-6.5285,-6.5124,-6.4996,-6.4996,-6.4706,-6.4357,-6.4004,-6.3719,-6.3254,-6.2616,-6.2558,-6.2296,-6.1658,-6.1629,-6.1483,-6.1222,-6.1193,-6.1193,-6.1193,-6.1193,-6.1193,-6.1193,-6.1193,-6.1367,-6.1716,-6.2858,-6.3626,-6.4191,-6.547,-6.6195,-6.6506,-6.6691,-6.6876,-6.6969,-6.664,-6.6311,-6.5981,-6.5652,-6.4874,-6.3917,-6.3288,-6.3288,-6.3498,-6.3169,-6.3079,-6.3079,-6.3079,-6.3079,-6.3079,-6.3079,-6.3079,-6.3079,-6.3079,-6.3079,-6.3079,-6.3079,-6.3079,-6.3079,-6.3079,-6.3079,-6.3079,-6.3079,-6.3079,-6.3079,-6.3079,-6.3079,-6.3079,-6.3079,-6.3079,-6.3079,-6.3079,-6.3617,-6.4395,-6.5413,-6.6101,-6.6221,-6.5592,-6.4874,-6.4216,-6.3588,-6.3827,-6.4006,-6.4006,-6.4994,-6.5383,-6.5024,-6.5383,-6.5383,-6.5054,-6.5054,-6.4695,-6.3977,-6.3707,-6.3378,-6.3079,-6.3079,-6.3079,-6.3079,-6.3079,-6.3438,-6.4036,-6.4366,-6.4338,-6.4122,-6.4447,-6.3746,-6.264,-6.8825,-6.7819,-6.6999,-6.6999,-6.6753,-6.6506,-6.6132,-6.5819,-6.5475,-6.5124,-6.506,-6.4996,-6.4996,-6.4996,-6.4764,-6.4241,-6.4212,-6.3922,-6.3283,-6.3254,-6.2964,-6.2296,-6.2151,-6.1861,-6.1367,-6.1251,-6.1193,-6.1193,-6.1193,-6.1193,-6.1193,-6.1193,-6.1251,-6.1396,-6.2558,-6.3324,-6.3746,-6.4978,-6.579,-6.6319,-6.6382,-6.6629,-6.6848,-6.6129,-6.5891,-6.5742,-6.5084,-6.4425,-6.3767,-6.3258,-6.3079,-6.3079,-6.3079,-6.3079,-6.3079,-6.3079,-6.3079,-6.3079,-6.3079,-6.3079,-6.3079,-6.3079,-6.3079,-6.3079,-6.3079,-6.3079,-6.3079,-6.3079,-6.3079,-6.3079,-6.3079,-6.3079,-6.3079,-6.3079,-6.3079,-6.3079,-6.3079,-6.3079,-6.3079,-6.3079,-6.3707,-6.4695,-6.6041,-6.658,-6.637,-6.5263,-6.4994,-6.4366,-6.3288,-6.3617,-6.3827,-6.3827,-6.4515,-6.4814,-6.4695,-6.4814,-6.4515,-6.3827,-6.3827,-6.3827,-6.3827,-6.3318,-6.3079,-6.3079,-6.3079,-6.3079,-6.3079,-6.3079,-6.3438,-6.4066,-6.4755,-6.4516,-6.3909,-6.4191,-6.3449,-6.2365,-6.9,-6.7819,-6.6999,-6.6999,-6.6999,-6.6814,-6.6506,-6.6132,-6.5819,-6.5475,-6.5158,-6.4996,-6.4996,-6.4996,-6.4938,-6.4851,-6.4851,-6.459,-6.3951,-6.3922,-6.3632,-6.2993,-6.2412,-6.2064,-6.1977,-6.1454,-6.1193,-6.1193,-6.1193,-6.1193,-6.1193,-6.1193,-6.1483,-6.2006,-6.2761,-6.3399,-6.4014,-6.5056,-6.5538,-6.5664,-6.5945,-6.6257,-6.6478,-6.5824,-6.5411,-6.5084,-6.4395,-6.3737,-6.3199,-6.3109,-6.3079,-6.3079,-6.3079,-6.3079,-6.3079,-6.3079,-6.3079,-6.3079,-6.3079,-6.3079,-6.3079,-6.3079,-6.3079,-6.3079,-6.3079,-6.3079,-6.3079,-6.3079,-6.3079,-6.3079,-6.3079,-6.3079,-6.3079,-6.3079,-6.3079,-6.3079,-6.3079,-6.3079,-6.3079,-6.3079,-6.4156,-6.5413,-6.6729,-6.643,-6.6071,-6.5892,-6.4784,-6.4066,-6.3887,-6.3438,-6.3199,-6.3199,-6.3827,-6.3887,-6.3348,-6.3857,-6.3827,-6.3199,-6.3199,-6.3199,-6.3199,-6.3109,-6.3079,-6.3079,-6.3079,-6.3079,-6.3079,-6.3079,-6.3438,-6.4066,-6.4755,-6.4214,-6.3051,-6.1975,-6.216,-6.2815,-6.9058,-6.7819,-6.6999,-6.6999,-6.6999,-6.6814,-6.6319,-6.607,-6.5819,-6.5285,-6.5124,-6.4996,-6.4996,-6.4996,-6.4996,-6.4996,-6.4996,-6.4851,-6.459,-6.4561,-6.427,-6.3661,-6.3341,-6.2848,-6.2122,-6.1832,-6.1542,-6.1193,-6.1193,-6.1193,-6.1193,-6.1193,-6.1513,-6.2122,-6.279,-6.3457,-6.4067,-6.4896,-6.5348,-6.5538,-6.5664,-6.5709,-6.5606,-6.4924,-6.4394,-6.3892,-6.3356,-6.3027,-6.2847,-6.3021,-6.3079,-6.3079,-6.3079,-6.3079,-6.3079,-6.3079,-6.3079,-6.3079,-6.3079,-6.3079,-6.3079,-6.3079,-6.3079,-6.3079,-6.3079,-6.3079,-6.3079,-6.3079,-6.3079,-6.3079,-6.3079,-6.3079,-6.3079,-6.3079,-6.3079,-6.3079,-6.3079,-6.3079,-6.3348,-6.4066,-6.4665,-6.5533,-6.6879,-6.6729,-6.64,-6.6041,-6.5443,-6.4784,-6.4036,-6.3737,-6.3438,-6.3079,-6.3348,-6.3348,-6.3079,-6.3348,-6.3348,-6.3079,-6.3079,-6.3079,-6.3079,-6.3079,-6.3079,-6.3079,-6.3079,-6.3079,-6.3079,-6.3079,-6.3677,-6.4516,-6.407,-6.3344,-6.2457,-6.226,-6.2252,-6.2434]},{"header":{"parameterUnit":"m.s-1","parameterCategory":1,"la1":30.6,"la2":28.766,"lo1":-90.7593,"lo2":-88.6598,"dx":0.0162,"dy":0.0183,"nx":116,"ny":114,"refTime":"2022-11-25T06:00:00:Z","depth":0,"parameterNumber":3,"parameterNumberName":"V-component_of_WINDS"},"data":[0.0,0.0,0.0,0.0,0.0,0.0,0.0,0.0,0.0,0.0,0.0,0.0,0.0,0.0,0.0,0.0,0.0,0.0,0.0,0.0,0.0,0.0,0.0,0.0,0.0,0.0,0.0,0.0,0.0,0.0,0.0,0.0,0.0,0.0,0.0,0.0,0.0,0.0,0.0,0.0,0.0,0.0,0.0,0.0,0.0,0.0,0.0,0.0,0.0,0.0,0.0,0.0,0.0,0.0,0.0,0.0,0.0,0.0,0.0,0.0,0.0,0.0,0.0,0.0,0.0,0.0,0.0,0.0,0.0,0.0,0.0,0.0,0.0,0.0,0.0,0.0,0.0,0.0,0.0,0.0,0.0,0.0,0.0,0.0,0.0,0.0,0.0,0.0,0.0,0.0,0.0,0.0,0.0,0.0,0.0,0.0,0.0,0.0,0.0,0.0,0.0,0.0,0.0,0.0,0.0,0.0,0.0,0.0,0.0,0.0,0.0,0.0,0.0,0.0,0.0,0.0,0.0,0.0,0.0,0.0,0.0,0.0,0.0,0.0,0.0,0.0,0.0,0.0,0.0,0.0,0.0,0.0,0.0,0.0,0.0,0.0,0.0,0.0,0.0,0.0,0.0,0.0,0.0,0.0,0.0,0.0,0.0,0.0,0.0,0.0,0.0,0.0,0.0,0.0,0.0,0.0,0.0,0.0,0.0,0.0,0.0,0.0,0.0,0.0,0.0,0.0,0.0,0.0,0.0,0.0,0.0,0.0,0.0,0.0,0.0,0.0,0.0,0.0,0.0,0.0,0.0,0.0,0.0,0.0,0.0,0.0,0.0,0.0,0.0,0.0,0.0,0.0,0.0,0.0,0.0,0.0,0.0,0.0,0.0,0.0,0.0,0.0,0.0,0.0,0.0,0.0,0.0,0.0,0.0,0.0,0.0,0.0,0.0,0.0,0.0,0.0,0.0,0.0,0.0,0.0,0.0,0.0,0.0,0.0,0.0,0.0,0.0,0.0,0.0,0.0,0.0,0.0,0.0,0.0,0.0,0.0,0.0,0.0,0.0,0.0,0.0,0.0,0.0,0.0,0.0,0.0,0.0,0.0,0.0,0.0,0.0,0.0,0.0,0.0,0.0,0.0,0.0,0.0,0.0,0.0,0.0,0.0,0.0,0.0,0.0,0.0,0.0,0.0,0.0,0.0,0.0,0.0,0.0,0.0,0.0,0.0,0.0,0.0,0.0,0.0,0.0,0.0,0.0,0.0,0.0,0.0,0.0,0.0,0.0,0.0,0.0,0.0,0.0,0.0,0.0,0.0,0.0,0.0,0.0,0.0,0.0,0.0,0.0,0.0,0.0,0.0,0.0,0.0,0.0,0.0,0.0,0.0,0.0,0.0,0.0,0.0,0.0,0.0,0.0,0.0,0.0,0.0,0.0,0.0,0.0,0.0,0.0,0.0,0.0,0.0,0.0,0.0,0.0,0.0,0.0,0.0,0.0,0.0,0.0,0.0,0.0,0.0,0.0,0.0,0.0,0.0,0.0,0.0,0.0,0.0,0.0,0.0,0.0,0.0,0.0,0.0,0.0,0.0,0.0,0.0,0.0,0.0,0.0,0.0,0.0,0.0,0.0,0.0,0.0,0.0,0.0,0.0,0.0,0.0,0.0,0.0,0.0,0.0,0.0,0.0,0.0,0.0,0.0,0.0,0.0,0.0,0.0,0.0,0.0,0.0,0.0,0.0,0.0,0.0,0.0,0.0,0.0,0.0,0.0,0.0,0.0,0.0,0.0,0.0,0.0,0.0,0.0,0.0,0.0,0.0,0.0,0.0,0.0,0.0,0.0,0.0,0.0,0.0,0.0,0.0,0.0,0.0,0.0,0.0,0.0,0.0,0.0,0.0,0.0,0.0,0.0,0.0,0.0,0.0,0.0,0.0,0.0,0.0,0.0,0.0,0.0,0.0,0.0,0.0,0.0,0.0,0.0,0.0,0.0,0.0,0.0,0.0,0.0,0.0,0.0,0.0,0.0,0.0,0.0,0.0,0.0,0.0,0.0,0.0,0.0,0.0,0.0,0.0,0.0,0.0,0.0,0.0,0.0,0.0,0.0,0.0,0.0,0.0,0.0,0.0,0.0,0.0,0.0,0.0,0.0,0.0,0.0,0.0,0.0,0.0,0.0,0.0,0.0,0.0,0.0,0.0,0.0,0.0,0.0,0.0,0.0,0.0,0.0,0.0,0.0,0.0,0.0,0.0,0.0,0.0,0.0,0.0,0.0,0.0,0.0,0.0,0.0,0.0,0.0,0.0,0.0,0.0,0.0,0.0,0.0,0.0,0.0,0.0,0.0,0.0,0.0,0.0,0.0,0.0,0.0,0.0,0.0,0.0,0.0,0.0,0.0,0.0,0.0,0.0,0.0,0.0,0.0,0.0,0.0,0.0,0.0,0.0,0.0,0.0,0.0,0.0,0.0,0.0,0.0,0.0,0.0,0.0,0.0,0.0,0.0,0.0,0.0,0.0,0.0,0.0,0.0,0.0,0.0,0.0,0.0,0.0,0.0,0.0,0.0,0.0,0.0,0.0,0.0,0.0,0.0,0.0,0.0,0.0,0.0,0.0,0.0,0.0,0.0,0.0,0.0,0.0,0.0,0.0,0.0,0.0,0.0,0.0,0.0,0.0,0.0,0.0,0.0,0.0,0.0,0.0,0.0,0.0,0.0,0.0,0.0,0.0,0.0,0.0,0.0,0.0,0.0,0.0,0.0,0.0,0.0,0.0,0.0,0.0,0.0,0.0,0.0,0.0,0.0,0.0,0.0,0.0,0.0,0.0,0.0,0.0,0.0,0.0,0.0,0.0,0.0,0.0,0.0,0.0,0.0,0.0,0.0,0.0,0.0,0.0,0.0,0.0,0.0,0.0,0.0,0.0,0.0,0.0,0.0,0.0,0.0,0.0,0.0,0.0,0.0,0.0,0.0,0.0,0.0,0.0,0.0,0.0,0.0,0.0,0.0,0.0,0.0,0.0,0.0,0.0,0.0,0.0,0.0,0.0,0.0,0.0,0.0,0.0,0.0,0.0,0.0,0.0,0.0,0.0,0.0,0.0,0.0,0.0,0.0,0.0,0.0,0.0,0.0,0.0,0.0,0.0,0.0,0.0,0.0,0.0,0.0,0.0,0.0,0.0,0.0,0.0,0.0,0.0,0.0,0.0,0.0,0.0,0.0,0.0,0.0,0.0,0.0,0.0,0.0,0.0,0.0,0.0,0.0,0.0,0.0,0.0,0.0,0.0,0.0,0.0,0.0,0.0,0.0,0.0,0.0,0.0,0.0,0.0,0.0,0.0,0.0,0.0,0.0,0.0,0.0,0.0,0.0,0.0,0.0,0.0,0.0,0.0,0.0,0.0,0.0,0.0,0.0,0.0,0.0,0.0,0.0,0.0,0.0,0.0,0.0,0.0,0.0,0.0,0.0,0.0,0.0,0.0,0.0,0.0,0.0,0.0,0.0,0.0,0.0,0.0,0.0,0.0,0.0,0.0,0.0,0.0,0.0,0.0,0.0,0.0,0.0,0.0,0.0,0.0,0.0,0.0,0.0,0.0,0.0,0.0,0.0,0.0,0.0,0.0,0.0,0.0,0.0,0.0,0.0,0.0,0.0,0.0,0.0,0.0,0.0,0.0,0.0,0.0,0.0,0.0,0.0,0.0,0.0,0.0,0.0,0.0,0.0,0.0,0.0,0.0,0.0,0.0,0.0,0.0,0.0,0.0,0.0,0.0,0.0,0.0,0.0,0.0,0.0,0.0,0.0,0.0,0.0,0.0,0.0,0.0,0.0,0.0,0.0,0.0,0.0,0.0,0.0,0.0,0.0,0.0,0.0,0.0,0.0,0.0,0.0,0.0,0.0,0.0,0.0,0.0,0.0,0.0,0.0,0.0,0.0,0.0,0.0,0.0,0.0,0.0,0.0,0.0,0.0,0.0,0.0,0.0,0.0,0.0,0.0,0.0,0.0,0.0,0.0,0.0,0.0,0.0,0.0,0.0,0.0,0.0,0.0,0.0,0.0,0.0,0.0,0.0,0.0,0.0,0.0,0.0,0.0,0.0,0.0,0.0,0.0,0.0,0.0,0.0,0.0,0.0,0.0,0.0,0.0,0.0,0.0,0.0,0.0,0.0,0.0,0.0,0.0,0.0,0.0,0.0,0.0,0.0,0.0,0.0,0.0,0.0,0.0,0.0,0.0,0.0,0.0,0.0,0.0,0.0,0.0,0.0,0.0,0.0,0.0,0.0,0.0,0.0,0.0,0.0,0.0,0.0,0.0,0.0,0.0,0.0,0.0,0.0,0.0,0.0,0.0,0.0,0.0,0.0,0.0,0.0,0.0,0.0,0.0,0.0,0.0,0.0,0.0,0.0,0.0,0.0,0.0,0.0,0.0,0.0,0.0,0.0,0.0,0.0,0.0,0.0,0.0,0.0,0.0,0.0,0.0,0.0,0.0,0.0,0.0,0.0,0.0,0.0,0.0,0.0,0.0,0.0,0.0,0.0,0.0,0.0,0.0,0.0,0.0,0.0,0.0,0.0,0.0,0.0,0.0,0.0,0.0,0.0,0.0,0.0,0.0,0.0,0.0,0.0,0.0,0.0,0.0,0.0,0.0,0.0,0.0,0.0,0.0,0.0,0.0,0.0,0.0,0.0,0.0,0.0,0.0,0.0,0.0,0.0,0.0,0.0,0.0,0.0,0.0,0.0,0.0,0.0,0.0,0.0,0.0,0.0,0.0,0.0,0.0,0.0,0.0,0.0,0.0,0.0,0.0,0.0,0.0,0.0,0.0,0.0,0.0,0.0,0.0,0.0,0.0,0.0,0.0,0.0,0.0,0.0,0.0,0.0,0.0,0.0,0.0,0.0,0.0,0.0,0.0,0.0,0.0,0.0,0.0,0.0,0.0,0.0,0.0,0.0,0.0,0.0,0.0,0.0,0.0,0.0,0.0,0.0,0.0,0.0,0.0,0.0,0.0,0.0,0.0,0.0,0.0,0.0,0.0,0.0,0.0,0.0,0.0,0.0,0.0,0.0,0.0,0.0,0.0,0.0,0.0,0.0,0.0,0.0,0.0,0.0,0.0,0.0,0.0,0.0,0.0,0.0,0.0,0.0,0.0,0.0,0.0,0.0,0.0,0.0,0.0,0.0,0.0,0.0,0.0,0.0,0.0,0.0,0.0,0.0,0.0,0.0,0.0,0.0,0.0,0.0,0.0,0.0,0.0,0.0,0.0,0.0,0.0,0.0,0.0,0.0,0.0,0.0,0.0,0.0,0.0,0.0,0.0,0.0,0.0,0.0,0.0,0.0,0.0,0.0,0.0,0.0,0.0,0.0,0.0,0.0,0.0,0.0,0.0,0.0,0.0,0.0,0.0,0.0,0.0,0.0,0.0,0.0,0.0,0.0,0.0,0.0,0.0,0.0,0.0,0.0,0.0,0.0,0.0,0.0,0.0,0.0,0.0,0.0,0.0,0.0,0.0,0.0,0.0,0.0,0.0,0.0,0.0,0.0,0.0,0.0,0.0,0.0,0.0,0.0,0.0,0.0,0.0,0.0,0.0,0.0,0.0,0.0,0.0,0.0,0.0,0.0,0.0,0.0,0.0,0.0,0.0,0.0,0.0,0.0,0.0,0.0,0.0,0.0,0.0,0.0,0.0,0.0,0.0,0.0,0.0,0.0,0.0,0.0,0.0,0.0,0.0,0.0,0.0,0.0,0.0,0.0,0.0,0.0,0.0,0.0,0.0,0.0,0.0,0.0,0.0,0.0,0.0,0.0,0.0,0.0,0.0,0.0,0.0,0.0,0.0,0.0,0.0,0.0,0.0,0.0,0.0,0.0,0.0,0.0,0.0,0.0,0.0,0.0,0.0,0.0,0.0,0.0,0.0,0.0,0.0,0.0,0.0,0.0,0.0,0.0,0.0,0.0,0.0,0.0,0.0,0.0,0.0,0.0,0.0,0.0,0.0,0.0,0.0,0.0,0.0,0.0,0.0,0.0,0.0,0.0,0.0,0.0,0.0,0.0,0.0,0.0,0.0,0.0,0.0,0.0,0.0,0.0,0.0,0.0,3.1486,2.7717,0.0,0.0,0.0,0.0,0.0,0.0,0.0,0.0,0.0,0.0,0.0,0.0,0.0,0.0,0.0,0.0,0.0,0.0,0.0,0.0,0.0,0.0,0.0,1.7712,1.7902,1.7902,1.7902,0.0,0.0,0.0,0.0,0.0,0.0,0.0,1.7421,1.7739,1.8038,1.8337,1.8751,1.933,2.0031,2.0128,2.0122,2.001,0.0,0.0,0.0,0.0,0.0,0.0,0.0,0.0,0.0,0.0,0.0,0.0,0.0,0.0,0.0,0.0,0.0,0.0,0.0,0.0,0.0,0.0,0.0,0.0,0.0,0.0,0.0,0.0,0.0,0.0,0.0,0.0,0.0,0.0,0.0,0.0,0.0,0.0,0.0,0.0,0.0,0.0,0.0,0.0,0.0,0.0,0.0,0.0,0.0,0.0,0.0,0.0,0.0,0.0,0.0,0.0,0.0,0.0,0.0,0.0,0.0,0.0,0.0,0.0,0.0,0.0,0.0,0.0,0.0,0.0,3.4575,3.1883,0.0,0.0,0.0,0.0,0.0,0.0,0.0,0.0,0.0,0.0,0.0,0.0,0.0,0.0,0.0,0.0,0.0,0.0,0.0,0.0,0.0,1.7983,1.7902,1.7963,1.8003,1.8003,1.7942,1.7922,1.8003,1.7922,0.0,0.0,0.0,0.0,1.8065,1.8228,1.857,1.9083,1.9619,2.0604,2.1973,2.2458,2.1889,2.0508,2.0839,0.0,0.0,0.0,0.0,0.0,0.0,0.0,0.0,0.0,0.0,0.0,0.0,0.0,0.0,0.0,0.0,0.0,0.0,0.0,0.0,0.0,0.0,0.0,0.0,0.0,0.0,0.0,0.0,0.0,0.0,0.0,0.0,0.0,0.0,0.0,0.0,0.0,0.0,0.0,0.0,0.0,0.0,0.0,0.0,0.0,0.0,0.0,0.0,0.0,0.0,0.0,0.0,0.0,0.0,0.0,0.0,0.0,0.0,0.0,0.0,0.0,0.0,0.0,3.8731,3.898,3.8434,3.8404,3.985,4.207,3.8019,3.6886,3.7556,3.3171,0.0,0.0,0.0,0.0,0.0,0.0,0.0,0.0,0.0,0.0,0.0,0.0,0.0,0.0,0.0,0.0,0.0,0.0,0.0,1.8293,1.7942,1.8214,1.8403,1.8403,1.8095,1.8063,1.8411,1.7975,0.0,0.0,0.0,1.8557,1.8684,1.9586,2.0105,2.0189,2.1015,2.1984,2.3099,2.3743,2.3907,2.3651,2.2567,2.2063,2.1997,0.0,0.0,0.0,0.0,0.0,0.0,0.0,0.0,0.0,0.0,0.0,0.0,0.0,0.0,0.0,0.0,0.0,0.0,0.0,0.0,0.0,0.0,0.0,0.0,0.0,0.0,0.0,0.0,0.0,0.0,0.0,0.0,0.0,0.0,0.0,0.0,0.0,0.0,0.0,0.0,0.0,2.9121,2.9303,0.0,0.0,0.0,0.0,0.0,0.0,0.0,0.0,0.0,0.0,0.0,0.0,0.0,3.5772,3.6821,4.0152,4.1435,4.0661,4.3809,4.5145,4.4854,4.4863,4.5381,4.6221,4.5832,0.0,4.0593,3.8652,0.0,0.0,0.0,0.0,0.0,0.0,0.0,0.0,0.0,0.0,0.0,0.0,0.0,0.0,0.0,0.0,0.0,0.0,0.0,0.0,0.0,1.8499,1.8854,1.9352,1.9353,1.9488,1.9927,1.9488,0.0,0.0,1.9515,1.9654,1.9697,2.0791,2.1816,2.2834,2.3539,2.4494,2.561,2.5887,2.6257,2.6565,2.558,2.4317,2.2809,2.2151,0.0,0.0,0.0,0.0,0.0,0.0,0.0,0.0,0.0,0.0,0.0,0.0,0.0,0.0,0.0,0.0,0.0,0.0,0.0,0.0,0.0,0.0,0.0,0.0,0.0,0.0,0.0,0.0,0.0,0.0,0.0,0.0,0.0,0.0,0.0,0.0,0.0,0.0,0.0,2.7511,2.8817,2.9619,2.9757,2.9279,0.0,0.0,0.0,0.0,0.0,0.0,0.0,0.0,0.0,3.9403,3.991,4.1496,4.4317,4.6327,4.6772,4.5728,4.7267,4.7612,4.6933,4.6956,4.7156,4.7489,4.7385,4.6275,4.4436,4.2224,3.9627,3.6909,0.0,0.0,0.0,0.0,3.3936,3.4241,0.0,0.0,0.0,0.0,0.0,0.0,0.0,0.0,0.0,0.0,0.0,0.0,1.893,1.9296,1.9806,2.045,2.0439,2.0599,2.1029,2.0641,2.0443,2.0655,2.0737,2.09,2.1267,2.2323,2.3689,2.5379,2.5794,2.6654,2.7919,2.7919,2.8288,2.8879,2.8227,2.6595,2.4287,2.324,2.2809,2.2717,0.0,0.0,0.0,0.0,0.0,0.0,0.0,0.0,0.0,0.0,0.0,0.0,0.0,0.0,0.0,0.0,0.0,0.0,0.0,0.0,0.0,0.0,0.0,0.0,0.0,0.0,0.0,0.0,0.0,0.0,0.0,0.0,0.0,0.0,0.0,0.0,0.0,2.9031,3.0148,3.0876,3.1951,3.1848,0.0,0.0,0.0,0.0,0.0,0.0,3.7593,3.7519,3.9247,4.3248,4.3888,4.5783,4.9092,4.9891,4.9846,4.9046,4.8978,4.8627,4.8035,4.7801,4.7793,4.795,4.7809,4.7652,4.7238,4.4876,4.281,4.1014,3.9139,3.7819,3.6998,3.7513,3.7694,3.7967,0.0,0.0,0.0,0.0,0.0,0.0,0.0,0.0,0.0,0.0,0.0,2.0446,2.006,2.0932,2.1585,2.1625,2.0864,2.0578,2.0967,2.0507,2.0547,2.1336,2.1588,2.2315,2.3618,2.4564,2.5764,2.7249,2.7163,2.7867,2.9279,2.9279,2.9648,3.0263,2.9587,2.8535,2.7057,2.5056,2.4194,2.4102,2.2778,0.0,0.0,0.0,0.0,0.0,0.0,0.0,0.0,0.0,0.0,0.0,0.0,0.0,0.0,0.0,0.0,0.0,0.0,0.0,0.0,0.0,0.0,0.0,0.0,0.0,0.0,0.0,0.0,0.0,0.0,0.0,0.0,0.0,0.0,0.0,0.0,0.0,0.0,3.4844,3.6569,0.0,0.0,0.0,0.0,3.6511,3.6695,3.8148,4.1425,4.1607,4.2933,4.5926,4.6018,4.6269,4.6669,4.7415,4.8073,4.866,4.8466,4.8624,4.9202,4.8357,4.8,4.8012,4.8879,4.8789,4.7878,4.6781,4.5033,4.3067,4.2938,4.1608,3.9905,4.1849,4.2546,4.2887,0.0,0.0,0.0,1.9045,1.875,1.8539,1.8674,1.8693,1.8883,1.9301,1.9933,2.0519,2.107,2.1303,2.1787,2.2656,2.2296,2.2491,2.3691,2.2855,2.2798,2.3925,2.3674,2.4225,2.5836,2.6681,2.7595,2.8566,2.8945,2.9832,3.1178,3.0746,3.1171,3.2182,3.1129,3.0412,2.9797,2.7334,2.6041,2.5518,2.4133,2.3579,0.0,0.0,0.0,0.0,0.0,0.0,0.0,0.0,0.0,0.0,0.0,0.0,0.0,0.0,0.0,0.0,0.0,0.0,0.0,0.0,0.0,0.0,0.0,0.0,0.0,0.0,0.0,0.0,0.0,0.0,0.0,0.0,0.0,0.0,0.0,0.0,0.0,3.6043,3.8071,0.0,3.7499,3.893,4.0168,4.0661,4.194,4.3144,4.4206,4.4178,4.5193,4.7681,4.7743,4.843,4.9872,5.0156,5.029,5.0256,5.0215,5.0165,5.012,4.9812,4.9426,4.8998,4.9052,4.868,4.7934,4.728,4.6362,4.5385,4.5253,4.4439,4.3457,4.4188,4.4459,4.4609,0.0,0.0,0.0,1.9082,1.875,1.8577,1.8865,1.8903,1.919,2.0002,2.0548,2.1296,2.2445,2.2617,2.3112,2.4255,2.3985,2.42,2.5279,2.4545,2.4644,2.5966,2.6142,2.6545,2.731,2.8198,2.9042,2.9816,3.0407,3.132,3.2444,3.2229,3.2595,3.3387,3.2673,3.2084,3.1562,2.9802,2.8319,2.6965,2.5826,2.521,2.4872,0.0,0.0,0.0,0.0,0.0,0.0,0.0,0.0,0.0,0.0,0.0,0.0,0.0,0.0,0.0,0.0,0.0,0.0,0.0,0.0,0.0,0.0,0.0,0.0,0.0,0.0,0.0,0.0,0.0,0.0,0.0,0.0,0.0,0.0,3.589,3.7773,3.7053,3.9686,4.1025,3.9617,4.1782,4.3568,4.4318,4.5626,4.652,4.6803,4.6706,4.731,4.8785,4.8858,4.9512,5.0917,5.0991,5.0913,5.0857,5.0654,5.0511,5.0449,5.0279,4.9913,4.9474,4.9169,4.884,4.8417,4.8099,4.7785,4.7435,4.6873,4.6381,4.5963,4.5963,4.6112,4.6411,0.0,0.0,1.8635,1.9026,1.8769,1.8769,1.9581,1.9672,2.0086,2.1154,2.1848,2.2801,2.4194,2.4891,2.5567,2.6318,2.5794,2.5414,2.5497,2.5331,2.585,2.7174,2.8876,2.9238,2.7991,2.9077,3.0117,3.1025,3.1583,3.2278,3.3059,3.3606,3.3909,3.394,3.4119,3.3505,3.2285,3.2361,3.0905,2.8473,2.7734,2.7026,2.638,0.0,0.0,0.0,0.0,0.0,0.0,0.0,0.0,0.0,0.0,0.0,0.0,0.0,0.0,0.0,0.0,0.0,0.0,0.0,0.0,0.0,0.0,0.0,0.0,0.0,0.0,0.0,0.0,0.0,0.0,0.0,0.0,0.0,3.5953,3.8007,3.9299,3.8266,4.1814,4.3908,4.2836,4.4338,4.5903,4.7249,4.7369,4.7908,4.9239,4.9299,4.9329,4.9329,4.9329,4.9359,4.9389,4.9389,4.9673,5.0285,4.9703,4.9733,5.0255,4.9673,4.9419,4.9359,4.9359,4.9359,4.9299,4.9299,4.9299,4.9179,4.7878,4.7369,4.7369,4.7369,4.7788,4.8446,1.9101,1.9007,1.8969,1.9082,1.9007,1.9026,1.9232,1.9325,1.9874,2.1373,2.1486,2.2344,2.4744,2.4589,2.4821,2.616,2.5748,2.595,2.7182,2.6742,2.7023,2.8368,2.922,2.9529,2.9292,3.0541,3.1317,3.1585,3.2673,3.3517,3.4211,3.391,3.4,3.4453,3.4273,3.3994,3.3628,3.3251,3.2413,3.112,2.8996,2.8011,2.7734,0.0,0.0,0.0,0.0,0.0,0.0,0.0,0.0,0.0,0.0,0.0,0.0,0.0,0.0,0.0,0.0,0.0,0.0,0.0,0.0,0.0,0.0,0.0,0.0,0.0,0.0,0.0,0.0,0.0,0.0,0.0,3.8288,3.9841,3.9677,4.1163,4.2655,4.3607,4.4499,4.5274,4.5915,4.6484,4.7309,4.8626,4.876,4.894,4.9299,4.9299,4.9494,4.9942,4.9972,5.0421,5.1379,5.1379,5.1708,5.2366,5.2187,5.2187,5.2366,5.2187,5.1588,5.069,5.069,5.0152,4.9299,4.9299,4.9299,4.9269,4.8865,4.876,4.876,4.876,4.9134,4.9673,1.9101,1.9101,1.9101,1.9101,1.9101,1.9157,1.9325,1.941,2.0002,2.1446,2.1433,2.2211,2.4736,2.4509,2.4858,2.6489,2.6555,2.7041,2.8253,2.8383,2.8648,2.9178,2.9963,3.043,3.0511,3.1563,3.2254,3.2525,3.3547,3.4207,3.4598,3.4508,3.4658,3.5018,3.4879,3.4668,3.4395,3.4238,3.3591,3.2576,3.0786,2.9735,2.9095,2.8073,2.7488,2.7149,2.6441,2.5764,2.5118,2.4718,0.0,0.0,0.0,0.0,0.0,0.0,0.0,0.0,0.0,0.0,0.0,0.0,0.0,0.0,0.0,0.0,0.0,0.0,0.0,0.0,0.0,0.0,0.0,0.0,4.1009,4.2668,4.3249,4.4028,4.4937,4.5966,4.6371,4.686,4.7638,4.7967,4.8566,4.9583,4.9673,4.9793,5.0062,5.0092,5.0272,5.0584,5.0614,5.1139,5.2187,5.2187,5.2546,5.3174,5.3174,5.3174,5.3174,5.3174,5.2755,5.2037,5.2037,5.1468,5.0481,5.0481,5.0331,0.0,0.0,0.0,0.0,0.0,4.9912,5.0166,1.9026,1.9026,1.9026,1.9007,1.9082,1.9232,1.946,1.9759,2.0329,2.1366,2.1513,2.232,2.438,2.4528,2.5199,2.6927,2.7693,2.8314,2.8835,2.9891,3.0255,2.9749,3.0854,3.154,3.1629,3.2287,3.2946,3.3604,3.4262,3.4623,3.4623,3.522,3.5519,3.5519,3.5653,3.5386,3.4812,3.5064,3.4514,3.3381,3.2821,3.177,3.0417,2.9771,2.915,2.8565,2.795,2.7242,2.6649,2.6649,0.0,0.0,0.0,0.0,0.0,0.0,0.0,0.0,0.0,0.0,0.0,0.0,0.0,0.0,0.0,0.0,0.0,0.0,0.0,0.0,0.0,0.0,0.0,0.0,4.3479,4.5843,4.6471,4.6621,4.6621,4.6518,4.7638,4.8416,4.8506,4.9045,4.9643,5.0255,5.0315,5.0554,5.1199,5.1229,0.0,0.0,0.0,5.1558,5.2306,5.2306,5.2665,5.3414,5.3414,5.3384,5.3294,5.3384,5.3294,5.3084,5.3234,5.2845,5.2097,5.2187,5.1798,5.1109,4.9942,4.9539,4.9553,5.0122,5.0315,5.0375,1.8539,1.8616,1.8577,1.8461,1.8997,1.9203,1.8502,1.9792,2.0863,2.095,2.1316,2.2348,2.4365,2.4143,2.4475,2.6165,2.7303,2.8318,2.9316,3.0063,3.0503,3.0572,3.1188,3.1808,3.2435,3.3036,3.3634,3.4324,3.4981,3.531,3.531,3.5459,3.5519,3.5519,3.5653,3.5627,3.5508,3.5153,3.4942,3.4759,3.4116,3.2793,3.112,3.0448,3.0109,2.9986,2.9863,2.9058,2.8011,2.8011,2.7303,2.6327,2.6061,2.6008,0.0,0.0,0.0,0.0,0.0,0.0,0.0,0.0,0.0,0.0,0.0,0.0,0.0,0.0,0.0,0.0,0.0,0.0,0.0,4.2662,4.5544,4.7758,4.7878,4.8356,4.8506,4.7967,4.8596,4.9284,4.9823,4.9927,5.0331,5.099,5.0973,5.1079,5.1199,5.1229,5.1229,5.1229,5.1229,5.1798,5.2965,5.2995,5.3593,5.479,0.0,0.0,5.4012,5.4551,5.3922,5.2456,5.3533,5.3025,5.1439,5.1977,5.1798,5.1199,5.093,5.084,5.087,5.099,5.0973,5.105,1.8257,1.8364,1.8364,1.8218,1.8703,1.9046,1.8886,1.9916,2.0846,2.1119,2.1352,2.2141,2.377,2.3431,2.3879,2.5769,2.7361,2.8737,2.9924,3.0324,3.0678,3.1131,3.1692,3.2347,3.3096,3.3696,3.4322,3.4981,3.534,3.5519,3.5519,3.5519,3.5519,3.5489,3.5587,3.5589,3.5589,3.5419,3.5213,3.491,3.4699,3.3661,3.2158,3.162,3.1182,3.0874,3.0509,2.993,2.9296,2.9296,2.8572,2.7673,2.7552,2.7261,2.6903,0.0,0.0,0.0,0.0,0.0,0.0,0.0,0.0,0.0,0.0,0.0,0.0,0.0,0.0,3.8811,4.0091,0.0,4.4257,4.5603,4.7189,4.8386,4.876,4.9344,4.9494,4.8865,4.9344,4.9883,5.0166,5.0495,5.0823,5.1199,5.1229,5.1229,5.1229,5.1229,5.1229,5.1229,5.1229,5.1678,5.2665,5.3025,5.3683,5.47,5.47,5.488,5.5179,5.485,5.4521,5.4221,5.4551,5.3952,5.2725,5.2695,5.2486,5.2187,5.2187,5.2007,5.1738,5.2067,5.2187,5.2187,1.7941,1.8048,1.8108,1.808,1.8414,1.8805,1.9228,1.9929,2.057,2.1131,2.1313,2.1817,2.2904,2.2745,2.344,2.5639,2.7097,2.8537,3.0066,3.0036,3.0361,3.1277,3.1812,3.2524,3.3484,3.4017,3.4609,3.5294,3.5424,3.5424,3.5294,3.5424,3.5519,3.5519,3.5519,3.5519,3.5519,3.5621,3.5354,3.4903,3.4939,3.4243,3.3119,3.2706,3.2084,3.144,3.0891,3.0562,3.0361,3.0361,2.9855,2.9178,2.9048,2.8604,2.8067,2.737,2.8828,0.0,0.0,0.0,0.0,0.0,0.0,0.0,0.0,3.522,3.6148,3.8781,4.0307,4.1773,4.3858,4.4945,4.6142,4.8147,4.8686,4.9045,4.9583,5.0092,5.0272,4.9928,5.0182,5.0375,5.0375,5.0853,5.1229,5.1229,5.1229,5.1229,5.1229,5.1229,5.1229,5.1229,5.1229,5.1588,5.2396,5.3054,5.3713,5.4401,5.4521,5.4999,5.5748,5.482,5.485,5.5619,5.5029,5.4581,5.4162,5.3473,5.3174,5.3204,5.3324,5.3054,5.2636,5.3025,5.3174,5.3174,1.7344,1.7406,1.7618,1.7948,1.8344,1.8548,1.8307,1.9433,2.0273,2.0181,2.089,2.153,2.1935,2.2238,2.339,2.5795,2.563,2.641,2.876,2.8335,2.8768,3.054,3.0654,3.1536,3.3454,3.3512,3.3802,3.4413,3.5166,3.5133,3.4447,3.5166,3.5519,3.5519,3.5519,3.5519,3.5519,3.5522,3.5559,3.5537,3.4965,3.4394,3.3817,3.3178,3.2509,3.1931,3.184,3.1417,3.0901,3.0901,3.0448,2.9875,2.9716,2.9659,2.9542,2.9319,2.9472,2.9648,2.9262,3.15,3.4302,3.5737,3.7158,3.9214,0.0,4.3,4.2961,4.5663,4.677,4.7369,4.7668,4.8745,4.9448,4.9239,5.0122,5.09,5.099,5.1079,5.1289,5.1798,5.1409,5.1109,5.1109,5.1169,5.1229,5.1229,5.1229,5.1229,5.1229,5.1229,5.1229,5.1229,5.1229,5.1828,5.3054,5.3743,5.4431,5.5089,5.5658,5.5418,5.4431,5.488,5.4521,5.3503,5.3443,5.3713,5.4162,5.3473,5.3174,5.3234,5.3862,5.4042,5.3922,5.3384,5.3174,5.3174,1.7743,1.7502,1.735,1.7509,1.7666,1.7947,1.8494,1.9346,2.0173,2.0731,2.1153,2.1554,2.1931,2.2795,2.3768,2.4803,2.5245,2.605,2.751,2.7651,2.8218,2.9394,3.0485,3.1272,3.1719,3.2483,3.3184,3.3823,3.4149,3.4551,3.5004,3.5359,3.5519,3.5519,3.5519,3.5519,3.5519,3.5519,3.5314,3.4988,3.4688,3.3998,3.3096,3.2825,3.2284,3.1741,3.194,3.1758,0.0,3.149,3.0923,3.0268,3.0243,2.9976,2.9675,2.9621,3.0754,3.2884,3.6611,3.7086,3.7308,4.0794,4.1586,4.2114,4.4439,4.4408,4.4646,4.7339,4.8686,4.9434,4.9434,4.9837,5.0226,5.0391,5.0541,5.0734,5.1169,5.1229,5.1319,5.1588,5.1379,5.1229,5.1229,5.1229,5.1229,5.1229,5.1229,5.1229,5.1229,5.1229,5.1379,5.1768,5.1798,5.2247,5.3174,5.3862,5.4341,5.461,5.491,5.5149,5.5329,5.485,5.4521,5.4341,5.4341,5.4521,5.476,5.4461,5.4341,5.4371,5.467,5.479,5.476,5.4461,5.4341,5.4341,1.8367,1.7978,1.7691,1.7712,1.7691,1.7957,1.8767,1.9375,2.0086,2.1083,2.1218,2.1367,2.1866,2.2765,2.3464,2.3824,2.4614,2.5522,2.6524,2.6825,2.7466,2.8635,2.98,3.0422,3.0527,3.1439,3.2144,3.263,3.2828,3.3351,3.4113,3.4502,3.4664,3.4664,3.4887,3.4951,3.4951,3.4951,3.4651,3.4234,3.3993,3.3365,3.2497,3.2288,3.1929,3.1539,3.1769,3.1798,3.1742,3.1742,3.1296,3.0791,3.0791,3.0492,3.0163,3.0342,3.1985,3.4906,4.0365,4.0637,4.0366,4.4342,4.5323,4.5393,4.5705,4.5751,4.6346,4.8386,4.9583,5.0255,5.0435,5.0465,5.0614,5.1139,5.0913,5.0913,5.1439,5.1498,5.1498,5.1498,5.1319,5.1229,5.1229,5.1229,5.1229,5.1229,5.1229,5.1289,5.1468,5.1498,5.1798,5.2456,5.2486,5.2785,5.3443,5.4132,5.4491,5.4491,5.467,5.5149,5.5867,5.491,5.473,5.5179,5.5179,5.5179,5.5179,5.5179,5.5179,5.5179,5.5179,5.5179,5.5179,5.5179,5.5179,5.5179,1.9054,1.8963,1.8891,1.9027,1.8937,1.8872,1.8898,1.9394,2.002,2.062,2.0724,2.0908,2.1459,2.1538,2.2009,2.3134,2.3265,2.405,2.5893,2.5442,2.616,2.8577,2.8023,2.8523,3.0435,3.0488,3.0481,3.0508,3.1216,3.1216,3.0603,3.194,3.2579,3.2611,3.3268,3.3544,3.3544,3.3544,3.3544,3.3455,3.2826,3.2557,3.2437,3.178,3.1511,3.1511,3.1511,3.1511,3.1511,3.1511,3.1481,3.1481,3.1481,3.1451,3.157,3.2198,3.2916,3.4145,3.7168,3.9945,4.2484,4.4591,4.7596,4.9822,4.8736,4.901,4.9584,5.0032,5.0166,5.0375,5.1079,5.1199,5.1199,5.1229,5.1738,5.2157,5.2157,5.2187,5.2187,5.2187,5.1618,5.1229,5.1229,5.1229,5.1229,5.1229,5.1229,5.1498,5.2127,5.2187,5.2486,5.3144,5.3144,5.3473,5.4162,5.482,5.5149,5.5179,5.5807,5.5807,5.5209,5.5179,5.5179,5.5179,5.5179,5.5179,5.5179,5.5179,5.5179,5.5179,5.5179,5.5179,5.5179,5.5179,5.5179,5.5179,1.9546,1.9208,1.8898,1.8966,1.9261,1.9499,1.9499,1.9682,2.0022,2.062,2.0699,0.0,0.0,0.0,0.0,0.0,2.2738,2.3478,2.4103,2.4692,2.5361,2.6213,2.7122,2.7739,2.7991,2.872,2.9366,2.978,3.048,3.116,3.1817,3.271,3.3146,3.3146,3.3392,3.3484,3.3484,3.3484,3.3245,3.2826,3.2587,3.2228,3.1809,3.16,3.1511,3.1511,0.0,3.1511,3.1511,3.1511,3.1511,3.1511,3.1511,3.1809,3.2288,3.2976,3.4688,3.6987,3.9854,4.2666,4.5513,4.8661,4.9463,4.9704,5.0831,5.0089,4.9414,5.0276,4.9058,4.7992,4.8506,4.8626,4.8775,4.9194,5.0571,5.1558,5.1558,5.1558,5.1558,5.1558,5.1349,5.1229,5.1229,5.1229,5.1409,5.1828,5.1858,5.2157,5.2815,5.2845,5.3174,5.3832,5.3862,5.4192,5.485,5.5089,5.5179,5.5179,5.5418,5.5418,5.5179,5.5179,5.5179,5.5179,5.5179,5.5179,5.5179,5.5179,5.5179,5.5179,5.5179,5.5179,5.5179,5.5179,5.5179,5.5179,2.0199,1.9884,1.9622,1.9622,1.9937,0.0,0.0,0.0,0.0,0.0,0.0,0.0,0.0,0.0,0.0,0.0,0.0,2.3001,2.3182,2.4125,2.4783,2.4992,2.6104,2.6716,2.6693,2.7482,2.8163,2.8785,2.922,2.9868,3.0745,3.1384,3.1727,3.1727,3.2191,3.2434,3.2434,3.2706,3.2826,3.2796,3.2078,3.1809,3.178,3.1092,3.0793,0.0,3.0793,3.0793,3.0883,3.1361,3.1511,3.1511,3.1511,3.2108,3.3185,3.4866,3.686,3.939,4.3259,4.5624,4.774,5.1195,5.1185,5.0673,5.2001,5.1011,5.0042,5.091,4.8736,4.6798,4.7332,4.7143,4.695,4.689,4.8716,5.0182,5.0182,5.0361,5.069,5.1169,5.1229,5.1319,5.1558,5.1558,5.1738,5.2157,5.2426,5.2845,5.3503,5.3563,5.3862,5.4551,5.4551,5.476,5.5179,5.5179,5.5179,5.5179,5.5179,5.5179,5.5179,5.5179,5.5179,5.5179,5.5179,5.5179,5.5179,5.5179,5.5179,5.5179,5.5179,5.5179,5.5179,5.5179,5.5179,5.5179,2.0901,2.0901,2.0901,0.0,0.0,0.0,0.0,0.0,0.0,0.0,0.0,0.0,0.0,0.0,0.0,0.0,0.0,0.0,2.3104,2.3704,2.4334,2.494,2.4966,2.5515,2.6588,2.6641,2.6896,2.7411,2.7445,2.7478,2.7478,2.8174,2.8438,2.8502,2.9789,3.0393,3.0452,3.1101,3.2108,3.3125,3.121,3.124,3.2168,3.0283,2.9621,2.9621,2.9621,2.9621,2.9774,3.1032,3.157,3.1779,3.1928,3.2886,3.4626,3.8043,3.9622,4.1425,4.6895,4.8519,4.9297,5.2038,5.2698,5.2577,5.2352,5.1801,5.1375,5.1653,4.8957,4.6641,4.7184,4.6641,4.5723,4.4526,4.6621,4.8386,4.8416,4.903,4.9823,5.1079,5.1229,5.1468,5.2127,5.2217,5.2276,5.2306,5.2875,5.3533,5.4221,5.4251,5.4551,5.5179,5.5179,5.5179,5.5179,5.5179,5.5179,5.5179,5.5179,5.5179,5.5179,5.5179,5.5179,5.5179,5.5179,5.5179,5.5179,5.5179,5.5179,5.5179,5.5179,5.5179,5.5179,5.5128,5.5209,5.5239,0.0,0.0,0.0,0.0,0.0,0.0,0.0,0.0,0.0,0.0,0.0,0.0,0.0,0.0,0.0,0.0,0.0,0.0,2.2584,2.3132,2.3707,2.4308,2.4783,2.5123,2.5437,2.5824,2.6112,2.6211,2.6752,2.6974,2.6974,2.7677,2.7977,2.8007,2.8333,2.8742,2.9173,2.9344,2.986,3.055,3.0013,3.0013,3.0283,2.9801,2.9621,2.9621,2.9621,2.9621,2.9741,3.0492,3.2526,3.5177,3.7815,3.9217,4.0284,4.2203,4.4386,4.6519,4.8018,4.9941,5.1792,5.2499,5.2329,5.2038,5.2485,5.1686,5.0371,4.8609,4.6001,4.3507,4.1836,4.253,4.3569,4.4197,4.7369,4.9867,5.0391,5.0631,5.084,5.1169,5.1229,5.1468,5.2127,5.2636,5.3144,5.3653,5.3862,5.4251,5.491,5.494,5.5029,5.5179,5.5179,5.5179,5.5179,5.5179,5.5179,5.5179,5.5179,5.5179,5.5179,5.5179,5.5179,5.5179,5.5179,5.5179,5.5179,5.5179,5.5179,5.5179,5.5006,5.4905,5.4905,5.4641,5.4989,5.5537,0.0,0.0,0.0,0.0,0.0,0.0,0.0,0.0,0.0,0.0,0.0,0.0,0.0,0.0,0.0,0.0,0.0,0.0,0.0,2.2766,2.3339,2.3678,2.4282,2.473,2.4992,2.5275,2.5563,2.5793,2.6202,2.636,2.636,2.6755,2.6936,2.6966,2.7502,2.7939,2.8283,2.8566,2.9226,0.0,0.0,2.9121,2.959,2.8973,2.8723,2.8723,2.8723,2.9705,3.1261,3.2884,3.5301,3.8159,4.072,4.1791,4.2619,4.5227,4.7109,4.8764,5.0279,5.1686,5.279,5.3098,5.2637,5.1884,5.101,5.0242,4.8959,4.6275,4.3571,4.1206,3.9836,4.11,4.244,4.2581,4.6172,4.9194,4.9853,4.9942,5.0242,5.1109,5.1229,5.1588,5.2546,5.2965,5.3593,5.4581,5.464,5.479,5.5179,5.5179,5.5179,5.5179,5.5179,5.5179,5.5179,5.5179,5.5179,5.5179,5.5179,5.5179,5.5179,5.5179,5.5179,5.5179,5.5179,5.5179,5.5209,5.5508,5.5628,5.5658,5.5773,5.5841,5.576,5.5575,5.576,5.6117,0.0,0.0,0.0,0.0,0.0,0.0,0.0,0.0,0.0,2.0935,2.0804,2.0725,0.0,0.0,0.0,0.0,0.0,0.0,0.0,0.0,2.3026,2.3182,2.3678,2.4256,2.4887,2.4887,2.5092,2.5558,2.5558,2.5558,2.5558,2.5558,2.5558,2.562,2.6667,2.7139,2.7284,2.7823,2.8796,2.9784,2.8094,2.8119,2.9021,0.0,2.7465,2.7465,2.7555,2.9907,3.3366,3.628,3.8689,4.0858,4.2572,4.3182,4.4014,4.7834,4.904,4.9788,5.2868,5.3283,5.2975,5.356,5.3221,5.1946,4.904,4.8385,4.7487,4.4195,4.1516,3.9682,3.9315,4.0701,4.1632,4.0905,4.4377,4.7519,4.8536,4.8686,4.9314,5.102,5.1229,5.1738,5.3054,5.3174,5.3743,5.5089,5.5179,5.5179,5.5179,5.5179,5.5179,5.5179,5.5179,5.5179,5.5179,5.5179,5.5179,5.5179,5.5179,5.5179,5.5179,5.5179,5.5179,5.5179,5.5269,5.5329,5.5359,5.6017,5.6286,5.6346,5.678,5.6937,5.6989,5.6885,5.6816,5.6693,0.0,0.0,0.0,0.0,0.0,0.0,0.0,0.0,0.0,0.0,2.1302,2.0857,0.0,0.0,0.0,0.0,0.0,0.0,0.0,0.0,0.0,2.3184,2.3287,2.3655,2.4256,2.4256,2.4308,2.4383,2.4383,2.4383,2.4383,2.4383,2.4383,2.4387,2.4094,2.4252,2.4723,2.4789,2.5223,2.5908,2.5928,2.6098,2.6361,2.6667,2.6752,0.0,2.7405,3.0208,3.4091,3.6949,4.0135,4.3455,4.7231,4.8736,4.9566,5.1423,5.2346,5.293,5.3514,5.3652,5.356,5.3637,5.3221,5.1946,4.904,4.8385,4.6895,4.1644,4.0172,3.9068,3.6697,3.7798,3.9888,4.2363,4.4885,4.7489,5.0301,5.072,5.084,5.1169,5.1229,5.1738,5.3054,5.3174,5.3743,5.5089,5.5179,5.5179,5.5179,5.5179,5.5179,5.5179,5.5179,5.5179,5.5179,5.5179,5.5179,5.5179,5.5179,5.5179,5.5179,5.5179,5.5179,5.5209,5.5777,0.0,5.6047,5.6445,5.6765,5.6892,5.6244,5.6196,5.6385,5.5904,5.6201,5.6778,0.0,0.0,0.0,0.0,0.0,0.0,0.0,2.2401,2.2401,2.2401,2.1904,2.1668,2.1956,2.1747,2.1668,0.0,0.0,0.0,0.0,0.0,0.0,0.0,2.2609,2.3054,2.3629,2.3626,2.3812,2.4096,0.0,2.3626,2.3655,2.3367,2.321,2.3212,2.3201,2.3339,2.3606,2.3595,2.3768,2.4019,2.4245,2.4521,2.4878,2.5869,2.6614,0.0,2.7495,3.0057,3.3547,3.5273,3.9211,4.4143,4.8347,5.0143,5.0882,5.1898,5.2667,5.3345,5.4052,5.3745,5.3375,5.4037,5.3468,5.1533,4.717,4.5908,4.399,3.8224,3.6767,3.6222,3.5162,3.6836,3.902,4.0928,4.4366,4.7399,4.8955,5.0361,5.1229,5.1229,5.1229,5.1738,5.3054,5.3174,5.3743,5.5089,5.5179,5.5179,5.5179,5.5179,5.5179,5.5179,5.5179,5.5179,5.5179,5.5179,5.5179,5.5179,5.5179,5.5179,5.5179,5.5179,5.5388,5.5718,5.6047,5.6324,5.6475,5.7024,5.7155,5.7185,5.708,5.7172,5.7281,5.6954,5.7049,5.7313,0.0,0.0,0.0,0.0,0.0,0.0,0.0,2.2796,2.2824,2.2877,2.2877,2.2877,2.2877,2.2585,2.2452,0.0,0.0,0.0,0.0,0.0,0.0,0.0,0.0,0.0,2.3027,0.0,0.0,2.3733,2.3263,0.0,0.0,0.0,0.0,0.0,2.2776,2.2904,2.2878,2.2846,2.2843,0.0,0.0,2.3275,2.3911,0.0,0.0,0.0,0.0,2.9432,3.2099,3.3366,3.7251,4.2285,4.6361,4.8563,4.9762,5.0716,5.1392,5.2192,5.3976,5.3745,5.3191,5.4191,5.3622,5.1195,4.5401,4.3556,4.1474,3.5679,3.3994,3.3664,3.4204,3.6091,3.7913,3.902,4.2821,4.6022,4.716,4.9075,5.0601,5.1139,5.1229,5.1738,5.3054,5.3174,5.3743,5.5089,5.5179,5.5179,5.5179,5.5179,5.5179,5.5179,5.5179,5.5179,5.5179,5.5179,5.5179,5.5179,5.5179,5.5179,5.5179,5.5329,5.5688,5.6248,5.6466,5.6728,5.6947,5.7547,5.7621,5.7433,5.7823,5.8029,5.8114,5.8029,5.7863,5.7669,0.0,0.0,0.0,0.0,0.0,0.0,0.0,2.4121,2.4204,2.4374,2.4403,2.4403,2.4403,2.3194,2.2609,0.0,0.0,0.0,0.0,0.0,0.0,0.0,0.0,0.0,0.0,0.0,0.0,2.2558,2.2505,0.0,0.0,0.0,0.0,0.0,0.0,2.1953,2.1823,2.1792,0.0,0.0,0.0,0.0,0.0,0.0,0.0,0.0,0.0,2.8184,2.9469,3.2703,3.4606,3.6213,3.9847,4.3227,4.6251,4.8151,4.8764,4.9542,5.2899,5.3714,5.3652,5.373,5.3252,5.1195,4.5401,4.3556,4.1474,3.5679,3.3994,3.3514,3.3574,3.4294,3.5672,3.8093,3.9409,4.1833,4.6621,4.7519,4.8536,5.093,5.1229,5.1738,5.3054,5.3174,5.3743,5.5089,5.5179,5.5179,5.5179,5.5179,5.5179,5.5179,5.5179,5.5179,5.5179,5.5179,5.5179,5.5179,5.5179,5.5179,5.5209,5.5807,5.6158,5.6226,5.7423,5.7832,0.0,5.8035,5.8107,5.8051,5.7555,5.7584,5.7781,5.7472,5.736,5.736,0.0,0.0,0.0,0.0,0.0,0.0,2.4171,2.4279,2.4392,2.4563,2.4591,2.4591,2.4591,2.4078,2.3753,2.385,0.0,0.0,0.0,0.0,0.0,0.0,0.0,0.0,0.0,0.0,2.2897,2.2871,2.2639,0.0,0.0,0.0,0.0,0.0,0.0,2.1342,2.1266,2.1249,0.0,0.0,0.0,0.0,0.0,0.0,0.0,0.0,0.0,0.0,2.8846,3.0664,3.2854,3.4907,3.5358,3.7392,4.0512,4.5222,4.7436,4.9071,5.2253,5.3129,5.3221,5.3622,5.1594,4.8458,4.4425,4.1322,3.8179,3.4146,3.2766,3.2407,3.2826,3.3455,3.4352,3.5821,3.7943,4.0121,4.2252,4.5633,4.8147,4.8775,5.0601,5.2187,5.3084,5.3174,5.3743,5.5089,5.5179,5.5179,5.5179,5.5179,5.5179,5.5179,5.5179,5.5179,5.5179,5.5179,5.5179,5.5179,5.5179,5.5388,5.5777,5.6098,5.6563,5.713,5.7636,5.7813,0.0,5.7886,5.7807,5.764,5.7416,5.736,5.7472,5.736,5.7303,5.7303,0.0,0.0,0.0,0.0,0.0,2.3745,2.4341,2.445,2.4507,2.4706,2.4734,2.4734,2.4734,2.4734,2.4649,2.4478,2.3889,0.0,0.0,0.0,0.0,0.0,0.0,0.0,0.0,0.0,2.2975,2.2947,2.272,2.23,0.0,0.0,2.1231,2.1071,0.0,0.0,0.0,0.0,0.0,0.0,0.0,0.0,0.0,0.0,0.0,0.0,0.0,0.0,0.0,0.0,0.0,3.3096,3.2167,3.3276,3.5963,4.1736,4.4747,4.6936,5.023,5.1607,5.2236,5.2698,4.9923,4.6324,4.3449,3.9707,3.5961,3.3096,3.1959,3.166,3.2108,3.2766,3.3425,3.4114,3.6297,3.8302,3.9254,4.318,4.6082,4.6381,4.8805,5.096,5.2187,5.3204,5.4162,5.5119,5.5179,5.5179,5.5179,5.5179,5.5179,5.5179,5.5179,5.5179,5.5179,5.5179,5.5179,5.5179,5.5388,5.5667,5.6064,5.6482,5.6981,5.7552,5.773,5.7812,0.0,5.7781,5.7613,5.7303,5.7303,5.7303,5.7303,5.7303,5.7303,5.7303,0.0,0.0,0.0,0.0,0.0,0.0,2.4736,2.4791,2.4848,2.499,2.5018,2.5018,2.5018,2.5018,2.4962,2.482,2.4002,0.0,0.0,0.0,0.0,0.0,0.0,0.0,0.0,0.0,2.2401,2.2426,2.2536,2.23,2.1719,2.1975,2.1755,2.1218,0.0,0.0,0.0,0.0,0.0,0.0,0.0,0.0,0.0,0.0,0.0,0.0,0.0,0.0,0.0,0.0,0.0,0.0,0.0,3.145,3.3365,3.762,3.9945,4.2077,4.6293,4.9032,5.0728,5.0728,4.8541,4.5651,4.2779,3.9373,3.5961,3.3096,3.1959,3.1511,3.1511,3.2049,3.2736,3.3395,3.4114,3.5669,3.896,4.0038,4.1444,4.4047,4.5502,4.7355,4.9956,5.3234,5.5179,5.5179,5.5179,5.5179,5.5179,5.5179,5.5179,5.5179,5.5179,5.5179,5.5179,5.5179,5.5179,5.5209,5.5837,5.5982,5.5753,5.709,5.7522,5.7227,5.793,5.8029,0.0,5.7781,5.7613,5.7303,5.7303,5.7303,5.7303,5.7303,5.7303,5.7303,0.0,0.0,0.0,0.0,0.0,0.0,0.0,2.482,2.4848,2.499,2.5018,2.5018,2.5018,2.5018,2.4962,2.482,2.4547,0.0,0.0,0.0,0.0,0.0,0.0,0.0,0.0,0.0,2.351,2.3142,2.3307,2.3097,2.2616,2.2773,2.2744,2.2555,2.2198,2.2009,0.0,0.0,0.0,0.0,0.0,0.0,2.3174,0.0,0.0,0.0,0.0,0.0,0.0,0.0,0.0,0.0,0.0,0.0,0.0,3.3276,3.62,3.946,4.2321,4.3922,4.4816,4.4816,4.2321,3.9621,3.8702,3.572,3.2946,3.2018,3.166,3.1511,3.1511,3.2049,3.2736,3.3395,3.4053,3.5011,3.6537,4.0786,4.3898,4.4257,4.8686,5.1858,5.2217,5.4042,5.5179,5.5179,5.5179,5.5179,5.5179,5.5179,5.5179,5.5179,5.5179,5.5179,5.5179,5.5179,5.5179,5.5209,5.5632,5.6013,5.6384,5.7084,5.7433,5.7599,5.786,5.7892,5.7781,5.7781,5.7725,5.7669,5.7669,5.7472,5.7303,5.7303,5.7303,5.7303,0.0,0.0,0.0,0.0,0.0,0.0,0.0,2.4877,2.4934,2.499,2.5018,2.5018,2.5018,2.5018,2.499,2.4877,2.4877,0.0,0.0,0.0,0.0,0.0,0.0,0.0,0.0,2.4178,2.4262,2.3917,2.4058,2.3848,2.3339,2.3473,2.3418,2.3201,2.2795,2.2632,0.0,0.0,0.0,0.0,0.0,0.0,2.3487,0.0,0.0,0.0,0.0,0.0,0.0,0.0,0.0,0.0,0.0,0.0,0.0,0.0,3.2976,3.5688,3.8671,4.0385,4.137,4.137,3.8857,3.6418,3.6418,3.3848,3.1511,3.1511,3.1511,3.1511,3.1511,3.2049,3.2736,3.3395,3.4053,3.5102,3.6746,4.0935,4.4227,4.5304,4.9972,5.2905,5.2486,5.4102,5.5179,5.5179,5.5179,5.5179,5.5179,5.5179,5.5179,5.5179,5.5179,5.5179,5.5179,5.5179,5.5329,5.5568,5.5887,5.6331,5.6906,5.7256,5.7511,5.7613,5.7613,5.7613,0.0,5.7725,5.7725,5.7613,5.7725,5.7613,5.7303,5.7303,5.7303,5.7303,0.0,0.0,0.0,0.0,0.0,0.0,0.0,2.5018,2.5018,2.5018,2.5018,2.5018,2.5018,2.5018,2.5018,2.5018,0.0,0.0,0.0,0.0,0.0,0.0,0.0,0.0,0.0,2.4673,2.47,2.4753,2.4869,2.4603,2.4066,2.4176,2.3906,2.3337,2.3283,2.3202,0.0,0.0,0.0,0.0,2.2056,2.2933,0.0,0.0,0.0,0.0,0.0,0.0,0.0,0.0,0.0,0.0,0.0,0.0,0.0,0.0,0.0,0.0,0.0,3.7849,3.9508,3.9508,3.7488,3.548,3.548,3.3427,0.0,3.1511,3.1511,3.1511,3.157,3.2079,3.2736,3.3455,3.4114,3.5672,3.902,4.0973,4.3468,4.7173,4.9942,5.1498,5.1319,5.3713,5.5269,5.5269,5.5209,5.5209,5.5269,5.5209,5.5209,5.5269,5.5209,5.5179,5.5179,5.5179,5.5538,5.6166,5.6541,5.69,5.7252,5.7654,5.7613,0.0,5.7303,5.7303,5.736,5.7669,5.7613,5.736,5.7669,5.7613,5.7303,5.7303,5.7303,5.7303,0.0,0.0,0.0,0.0,0.0,0.0,0.0,0.0,0.0,0.0,2.5018,2.5018,2.5018,2.5018,2.5018,0.0,0.0,0.0,0.0,0.0,0.0,0.0,0.0,0.0,0.0,2.5376,2.5649,2.6133,2.6163,2.5899,2.5422,2.548,2.5154,2.4584,2.4096,2.3258,0.0,0.0,0.0,0.0,2.1694,2.2422,0.0,0.0,0.0,0.0,2.728,2.761,0.0,0.0,0.0,0.0,0.0,0.0,0.0,0.0,2.9415,3.0041,3.1026,0.0,3.3517,3.3517,3.3006,3.2496,0.0,3.1988,3.1511,3.1511,3.1511,3.166,3.2168,3.2378,3.2886,3.4053,3.4414,3.5917,3.9907,4.5253,4.9216,5.0442,5.3423,5.4439,5.2157,5.4371,5.5927,5.5927,5.5478,5.5418,5.5927,5.5478,5.5418,5.5927,5.5448,5.5179,5.5179,5.5179,5.5538,5.6166,5.6541,5.7007,5.7552,5.7709,5.7781,5.7669,5.7416,5.7416,5.7669,5.7781,5.7725,5.7669,5.7781,5.7613,5.7303,5.7303,5.7303,5.7303,0.0,0.0,0.0,0.0,0.0,0.0,0.0,0.0,0.0,0.0,0.0,0.0,0.0,0.0,0.0,0.0,0.0,0.0,0.0,0.0,0.0,0.0,0.0,0.0,2.5622,2.6007,2.6364,2.6715,2.6715,2.6556,2.6321,2.6321,2.5995,2.5398,2.4801,2.3879,0.0,0.0,0.0,2.1645,2.1619,0.0,0.0,0.0,0.0,0.0,2.6542,2.6711,0.0,2.6662,2.6662,2.6746,0.0,0.0,0.0,0.0,2.8846,2.9205,2.9532,3.0313,3.1032,3.1032,3.1271,3.1511,3.1511,3.1511,3.1511,3.1511,3.175,3.2079,3.2407,3.4086,3.5198,3.4593,3.7218,4.0311,4.3119,4.6592,4.9492,5.1222,5.3296,5.4449,5.4091,5.5598,5.6466,5.6248,5.5837,5.5807,5.6188,5.5888,5.5927,5.6585,5.5987,5.5508,5.5179,5.5478,5.5957,5.6615,5.6958,5.7398,5.7942,5.7856,5.7725,5.7557,5.736,5.7416,5.7613,5.7725,5.7725,5.7613,5.7725,5.7613,5.7332,5.7652,5.7565,5.7332,0.0,0.0,0.0,0.0,0.0,0.0,0.0,0.0,0.0,0.0,0.0,0.0,0.0,0.0,0.0,0.0,0.0,0.0,0.0,0.0,0.0,0.0,0.0,2.5851,2.6158,2.6701,2.7023,2.7186,2.7186,2.7159,2.705,2.705,2.6674,2.586,2.5343,2.4662,0.0,0.0,2.2964,2.1898,2.1793,0.0,0.0,0.0,0.0,0.0,0.0,0.0,0.0,2.5615,2.5615,2.5704,2.6273,0.0,0.0,0.0,0.0,0.0,2.9142,3.0131,3.0909,3.0582,3.1002,3.1511,3.1511,3.157,3.166,3.166,3.2168,3.2826,3.3365,3.6014,3.7526,3.5617,4.0867,4.5758,4.7189,4.7684,4.8848,5.1386,5.251,5.3871,5.5909,5.6817,5.7034,5.6496,5.6428,5.6346,5.6466,5.6376,5.6585,5.7244,5.6555,5.6017,5.5628,5.5987,5.6466,5.7094,5.7494,5.7878,5.828,5.7948,5.7669,5.736,0.0,0.0,5.7303,5.7613,5.7557,5.7303,5.7613,5.7615,5.7536,5.8087,5.8,5.7681,0.0,0.0,0.0,0.0,0.0,0.0,0.0,0.0,0.0,0.0,0.0,0.0,0.0,0.0,0.0,0.0,0.0,0.0,0.0,0.0,0.0,0.0,0.0,0.0,2.7406,2.7515,2.8058,2.9094,2.9094,2.8817,2.8329,2.8329,2.7461,2.5887,2.5689,2.4955,2.3877,2.3633,2.2903,2.1897,2.1958,0.0,0.0,0.0,0.0,0.0,0.0,0.0,0.0,2.5615,2.5615,2.5615,2.5734,0.0,0.0,0.0,0.0,0.0,2.7884,3.0541,3.2854,3.0998,3.1002,3.1511,3.1511,3.1929,3.2348,3.2348,3.2886,3.4265,3.7285,3.6375,3.6009,3.8586,4.2887,4.7067,5.0214,5.3254,5.4863,5.3985,5.5736,5.6667,5.5792,5.7071,5.7932,5.7842,5.7274,5.7214,5.7782,5.7274,5.7274,5.7932,5.6795,5.6645,5.7663,5.6675,5.6466,5.7094,5.7494,5.7986,5.8609,5.8059,5.7781,5.7725,0.0,5.7303,5.7303,5.736,5.736,5.7303,5.736,5.7708,5.8174,5.8261,5.8581,5.8929,0.0,0.0,0.0,0.0,0.0,0.0,0.0,0.0,0.0,0.0,0.0,0.0,0.0,0.0,0.0,0.0,0.0,0.0,0.0,0.0,0.0,0.0,0.0,0.0,2.7678,2.8329,2.8926,2.9502,2.9821,2.9659,2.9094,2.8314,2.7394,2.6345,2.5873,2.5195,2.4335,2.3554,2.2933,2.2429,0.0,0.0,0.0,0.0,0.0,0.0,0.0,0.0,0.0,0.0,2.4537,2.4597,2.4933,0.0,0.0,0.0,0.0,0.0,2.7585,2.9495,3.1652,3.2163,3.4513,3.6693,3.6693,3.7237,3.7265,3.5716,3.5894,3.686,3.8499,3.9289,4.1455,4.6936,4.7169,4.7901,5.1434,5.2336,5.3025,5.4077,5.5439,5.6748,5.7889,5.867,5.901,5.8618,5.8159,5.8023,5.8354,5.7895,5.7962,5.862,5.7723,5.7693,5.865,5.8052,5.7902,5.8171,5.8232,5.8342,5.8445,5.8003,5.7725,5.7557,0.0,5.7855,5.7884,5.8232,5.8377,5.8377,5.8377,5.8348,5.829,5.829,5.8726,5.919,0.0,0.0,0.0,0.0,0.0,0.0,0.0,0.0,0.0,0.0,0.0,0.0,0.0,0.0,0.0,0.0,0.0,0.0,0.0,0.0,0.0,0.0,0.0,0.0,0.0,2.8926,2.9583,2.9719,3.031,3.031,2.9659,2.8336,2.739,2.6779,2.6112,2.5464,2.4768,2.3528,2.3043,2.2936,0.0,0.0,0.0,0.0,0.0,0.0,0.0,0.0,0.0,0.0,0.0,0.0,0.0,0.0,0.0,2.6213,2.6956,2.7615,2.7794,2.9169,3.1202,3.3668,3.6728,3.9469,4.0786,4.1212,4.0897,3.9364,3.9571,4.0086,4.0268,4.2622,4.6377,5.2027,5.0197,4.9347,5.2933,5.2107,5.2124,5.4792,5.5658,5.7101,5.9818,6.0069,5.9773,5.9257,5.8964,5.8806,5.8806,5.8541,5.859,5.9099,5.8471,5.8537,5.9439,5.914,5.8991,5.8991,5.8867,5.8593,5.8114,5.7836,5.7528,5.7332,5.8,5.829,5.8348,5.9016,5.9219,5.9074,5.9074,5.8842,5.8581,5.8871,5.9132,5.9219,0.0,0.0,0.0,0.0,0.0,0.0,0.0,0.0,0.0,0.0,0.0,0.0,0.0,0.0,0.0,0.0,0.0,0.0,0.0,0.0,0.0,0.0,0.0,0.0,0.0,2.9176,2.9767,3.0337,3.0934,3.0934,3.031,2.9089,2.7922,2.6779,2.66,2.5956,2.4909,2.3555,2.307,2.3067,2.1876,0.0,0.0,0.0,0.0,0.0,0.0,0.0,0.0,0.0,0.0,0.0,0.0,0.0,2.5615,2.5674,2.6572,2.7735,2.8338,3.0962,3.3849,3.53,3.436,3.4509,3.9864,4.0041,3.9753,4.221,4.3252,4.3913,4.4521,4.5342,4.6326,4.7463,4.9573,5.235,5.5992,5.6884,5.75,5.8343,5.8817,5.9429,6.0316,6.0144,5.9986,5.9925,5.9629,5.9469,5.9469,5.9201,5.9069,5.9099,5.8471,5.8847,6.0476,5.9258,5.8634,5.8748,5.9037,5.8673,5.7836,5.7472,5.7303,5.7332,5.8,5.829,5.8348,5.9016,5.8929,5.8377,5.8377,5.8726,5.9364,6.0555,6.0264,5.9306,0.0,0.0,0.0,0.0,0.0,0.0,0.0,0.0,0.0,0.0,0.0,0.0,0.0,0.0,0.0,0.0,0.0,0.0,0.0,0.0,0.0,0.0,0.0,2.7379,2.8573,2.955,3.0174,3.0418,3.0635,3.0635,3.0364,2.8633,2.7471,2.6779,2.622,2.5603,2.4937,2.3663,2.3149,2.3094,2.1801,2.1337,0.0,0.0,0.0,0.0,0.0,0.0,0.0,0.0,2.3458,2.361,2.361,2.4537,2.5615,2.5615,2.6841,2.8278,2.8517,3.1441,3.4635,3.5572,3.581,3.7412,4.3609,4.49,4.47,4.4378,4.5654,4.6457,4.5291,4.8913,5.1584,5.0013,5.2565,5.539,5.7161,5.8011,5.8639,5.9316,5.9891,6.0362,6.0607,6.0564,6.0512,6.0512,6.0092,5.9827,5.9827,5.9369,5.9153,5.9315,5.8752,5.9215,6.082,6.0007,5.9696,5.9938,5.9237,5.8508,5.7781,5.7416,5.7303,5.7361,5.8464,5.8929,5.9016,6.0061,6.0322,6.0061,5.9626,5.9887,6.0438,6.0148,5.9713,5.9248,0.0,0.0,0.0,0.0,0.0,0.0,0.0,0.0,0.0,0.0,0.0,0.0,0.0,0.0,0.0,0.0,0.0,0.0,0.0,0.0,0.0,0.0,0.0,2.7379,2.8573,2.9604,3.0201,3.0418,3.0418,3.031,3.0093,2.8309,2.7255,2.6779,2.6037,2.5445,2.4937,2.3716,2.3201,2.3067,2.1751,2.1169,0.0,0.0,0.0,0.0,0.0,0.0,0.0,0.0,2.3231,2.3384,2.3537,2.4537,2.5615,2.5615,2.782,3.0273,3.0243,3.2794,3.5816,3.7395,3.7933,3.9819,4.6223,4.7364,4.714,4.7435,4.8313,4.8558,4.7058,5.1124,5.3914,5.1768,5.4636,5.7303,5.7765,5.8547,5.9285,5.9747,6.0393,6.0794,6.0794,6.0794,6.0794,6.0794,6.0407,6.0144,6.0144,5.9667,5.9506,5.9636,5.9308,5.9772,6.1156,6.0832,6.0701,6.0852,5.9885,5.8949,5.7961,5.7503,5.7303,5.739,5.8726,5.919,5.9103,6.0584,6.1077,6.0845,6.038,6.0467,6.0787,5.9916,5.9451,5.919,0.0,0.0,0.0,0.0,0.0,0.0,0.0,0.0,0.0,0.0,0.0,0.0,0.0,0.0,0.0,0.0,0.0,0.0,2.5018,2.5018,2.5561,2.6725,2.6806,2.7379,2.8573,2.9203,2.9794,3.0418,3.0391,3.0093,2.9475,2.8248,2.7379,2.6752,2.6158,2.5561,2.491,2.3716,2.3201,2.3067,2.1724,2.1218,2.1193,0.0,0.0,0.0,0.0,0.0,0.0,0.0,2.2466,2.2994,2.3458,2.4537,2.5615,2.5615,2.9516,3.3849,3.3789,3.527,3.7664,4.1212,4.0461,4.0546,4.6926,4.6213,4.5807,5.1533,5.1488,5.0406,5.0406,5.1509,5.2213,5.1539,5.5005,5.7826,5.7826,5.8947,5.9778,5.9809,6.0393,6.0794,6.0794,6.0794,6.0794,6.0794,6.0534,6.0377,6.0377,6.0144,6.0016,6.0016,6.0084,6.0551,6.1489,6.1562,6.1402,6.1114,6.1084,6.009,5.829,5.7623,5.7303,5.739,5.8726,5.8929,5.8464,6.038,6.0787,6.0206,6.0206,6.0206,6.0206,6.0177,5.98,5.919,0.0,0.0,0.0,0.0,0.0,0.0,0.0,0.0,0.0,0.0,0.0,0.0,0.0,0.0,0.0,0.0,0.0,0.0,2.5018,2.5018,2.5344,2.6131,2.6562,2.7159,2.7949,2.8953,2.9794,3.0418,2.9957,2.9692,2.9475,2.7841,2.6969,2.6752,2.5751,2.4937,2.4313,2.3527,2.2957,2.2497,2.1661,2.1264,2.1218,0.0,0.0,0.0,0.0,0.0,0.0,0.0,0.0,0.0,2.3458,2.4537,2.5615,2.5615,2.809,3.0874,3.0844,3.524,3.9712,3.9182,4.1997,4.548,4.7865,4.8099,4.8906,5.2653,5.1826,5.0406,5.0406,5.2365,5.376,5.2917,5.522,5.7611,5.9008,5.9532,5.9963,6.0455,6.0671,6.0794,6.0794,6.0794,6.0451,5.9629,5.9308,5.8738,5.7886,5.8415,5.9006,5.9727,6.0186,6.1067,6.2461,6.1628,6.1466,6.1792,6.0882,5.9714,5.829,5.8087,5.7739,5.739,5.8726,5.919,5.9074,6.009,6.0642,6.0845,6.038,6.0206,6.0148,5.9713,5.9161,5.8493,0.0,0.0,0.0,0.0,0.0,0.0,0.0,0.0,2.5018,2.5018,2.5018,2.5018,0.0,0.0,0.0,2.5018,2.5018,0.0,2.5018,2.5018,2.5263,2.586,2.6267,2.6698,2.7352,2.8275,2.8845,2.898,2.9306,2.9257,2.8736,2.7434,2.6671,2.6402,2.5426,2.4666,2.4069,2.3472,2.2849,2.2251,2.158,2.1264,2.1193,0.0,0.0,0.0,0.0,0.0,0.0,0.0,0.0,0.0,2.3098,2.4236,2.564,2.722,2.9579,3.2253,3.4787,3.8618,4.2132,4.3076,4.5611,4.8274,5.0095,5.08,5.1673,5.3668,5.3253,5.2532,5.2532,5.436,5.5667,5.4866,5.659,5.8442,5.9624,5.9634,5.9836,6.068,6.0399,6.0294,6.0742,6.0794,6.0294,5.9117,5.8847,5.8107,5.6679,5.7358,5.7924,5.8246,5.9618,6.0805,6.1781,6.1836,6.1937,6.2116,6.0759,5.9767,5.9045,5.8813,5.8493,5.8145,5.8958,5.9597,6.0061,6.0148,6.0438,6.0787,6.0642,6.0293,5.98,5.9422,5.8871,5.8203,0.0,0.0,0.0,0.0,0.0,0.0,0.0,2.5018,2.5018,2.5018,2.5018,2.5018,0.0,0.0,0.0,2.5018,2.5018,2.5018,2.5018,2.5018,2.5236,2.5778,2.586,2.6185,2.6779,2.7352,2.7352,2.6806,2.8492,2.8736,2.7596,2.6996,2.643,2.586,2.5263,2.4666,2.4069,2.3472,2.2849,2.2226,2.1507,2.1242,2.1218,2.1095,0.0,0.0,0.0,0.0,0.0,0.0,0.0,0.0,2.2581,2.3775,2.555,2.9312,3.252,3.609,4.1937,4.3495,4.4778,4.9996,5.0045,4.9665,5.2961,5.3775,5.3945,5.456,5.5191,5.5622,5.5684,5.673,5.7487,5.7056,5.8485,5.9747,5.9737,5.9289,5.9386,6.0346,5.9599,5.9439,6.0503,6.0638,6.0136,5.8955,5.8709,5.7912,5.6051,5.665,5.6821,5.6308,5.8666,5.9997,6.0259,6.1786,6.235,6.191,6.0416,5.9826,6.0086,5.9479,5.9248,5.9393,5.9393,6.0061,6.1135,6.0467,6.0235,6.0351,6.0816,6.0322,5.9306,5.9248,5.8784,5.8116,0.0,0.0,0.0,0.0,0.0,0.0,2.5018,2.5018,2.5018,2.5018,2.5018,2.5018,2.5018,2.5018,0.0,2.5018,2.5018,2.5018,2.5018,2.5018,2.5073,2.5181,2.5643,2.6185,2.6779,2.6915,2.6915,2.6806,2.7678,2.7705,2.6969,2.6375,2.6022,2.586,2.5263,2.4666,2.4069,2.3472,2.2849,2.2251,2.1605,2.1337,2.1337,2.1313,2.1288,0.0,0.0,0.0,0.0,0.0,0.0,0.0,2.2581,2.3493,2.4515,2.6233,3.0289,3.4552,3.6388,4.1589,4.6752,4.7998,5.0045,5.213,5.3391,5.4099,5.4498,5.4652,5.4806,5.5099,5.5592,5.593,5.6638,5.8116,5.8701,5.9042,5.913,5.9081,5.8763,5.8051,5.86,5.9117,5.9332,5.9386,5.8901,5.7719,5.6679,5.5558,5.4259,5.515,5.6185,5.7027,5.7965,5.948,6.1585,5.994,5.9503,6.0416,5.8537,5.8257,5.9328,5.8645,5.8965,6.0003,6.0003,6.0467,6.1135,6.0467,6.0496,6.0903,6.0032,5.9539,5.9248,5.8726,5.8087,5.7507,0.0,0.0,0.0,0.0,0.0,0.0,0.0,0.0,2.5317,2.5046,2.5018,2.5018,2.5018,2.5018,0.0,0.0,2.5018,2.5018,2.5018,2.5018,2.5018,2.5018,2.529,2.5615,2.5941,2.624,2.624,2.5941,2.6538,2.6674,2.6375,2.605,2.5751,2.5453,2.5154,2.4666,2.4069,2.3771,2.312,2.2278,2.1979,2.1656,2.1385,2.1385,2.1264,2.112,2.1046,0.0,0.0,0.0,0.0,0.0,0.0,0.0,2.3786,2.6562,2.8881,3.1855,3.7833,4.1858,4.5293,4.904,5.1318,5.279,5.316,5.3976,5.4683,5.4683,5.5253,5.5899,5.6577,5.6946,5.7476,5.8267,5.8702,5.8708,5.8238,5.7634,5.7243,5.7187,5.7243,5.7467,5.8107,5.8162,5.7634,5.6423,5.5732,5.4706,5.32,5.3719,5.4342,5.4936,5.6077,5.7454,5.9229,5.8432,5.8411,5.9064,5.7038,5.6742,5.8123,5.9154,5.9953,6.0671,6.0671,6.07,6.07,6.0351,6.0032,5.9771,5.9422,5.89,5.8348,5.8319,5.7884,5.7303,0.0,0.0,0.0,0.0,0.0,0.0,0.0,0.0,0.0,2.5073,2.5018,2.5018,2.5018,2.5018,2.5018,0.0,0.0,0.0,2.5018,2.5018,2.5018,2.5018,2.5018,2.5018,2.5018,2.548,2.5507,2.5018,2.5507,2.5724,2.5724,2.5724,2.5426,2.4856,2.4964,2.4666,2.4096,2.4096,2.3445,2.2468,2.2359,2.1952,2.1385,2.1385,2.124,2.1071,2.1046,2.0923,2.0774,2.0749,0.0,0.0,0.0,0.0,2.3057,2.7201,2.794,2.9651,3.9765,4.2273,4.3728,5.091,5.2698,5.2729,5.2852,5.3791,5.4714,5.4884,5.5899,5.6994,5.7549,5.8239,5.8644,5.8203,5.8607,5.86,5.7355,5.6194,5.5674,5.6451,5.5906,5.579,5.6792,5.6878,5.6423,5.5325,5.5178,5.435,5.2711,5.2588,5.266,5.2717,5.3974,5.5195,5.6141,5.6766,5.7268,5.7515,5.5855,5.5591,5.6715,5.9307,6.0621,6.0863,6.1073,6.0754,6.0025,6.0117,5.9568,5.8668,5.9016,5.8464,5.7536,5.7971,5.7768,5.7303,0.0,0.0,0.0,0.0,0.0,0.0,0.0,0.0,0.0,0.0,2.5018,2.5018,2.5018,2.5018,2.5018,2.5018,2.5018,2.5018,2.5018,0.0,0.0,2.5018,2.5018,2.5018,2.5018,2.5073,2.5073,2.5018,2.5073,2.5127,2.5127,2.5127,2.4801,2.4231,2.4774,2.4666,2.4096,2.4096,2.3716,2.3039,2.2522,2.1952,2.1385,2.1385,2.1361,2.1313,2.1218,2.1169,2.112,2.0997,2.0924,0.0,0.0,0.0,2.2034,2.4074,2.7172,3.0588,3.3701,4.0001,4.6822,5.1523,5.2698,5.2852,5.3437,5.4129,5.4837,5.5438,5.6207,5.684,5.6933,5.798,5.8743,5.8684,5.8866,5.86,5.7355,5.6194,5.506,5.4166,5.4825,5.5442,5.5616,5.5616,5.5325,5.4592,5.4139,5.3443,5.265,5.2588,5.3032,5.3996,5.314,5.3753,5.6022,5.4366,5.4216,5.5393,5.5127,5.5061,5.5326,5.6844,5.8214,5.9431,6.0681,6.0442,5.9323,5.9932,6.009,5.9858,5.8842,5.8319,5.8116,5.7623,5.739,5.7303,0.0,0.0,0.0,0.0,0.0,0.0,0.0,0.0,0.0,0.0,0.0,2.5018,2.5018,2.5018,2.5018,2.5018,2.5018,2.5018,2.5018,2.5018,2.4856,2.4502,2.4475,2.434,2.3987,2.4313,2.4475,2.4475,2.4475,2.4475,2.4475,2.415,2.4014,2.4096,2.4014,2.4014,2.4096,2.4096,2.396,2.3689,2.3418,2.396,2.4719,2.2987,2.3366,2.458,2.275,2.1844,2.1475,2.15,2.1239,2.0951,2.1146,0.0,0.0,0.0,2.4664,2.7824,3.4663,4.1439,4.751,5.1659,5.3006,5.3252,5.3191,5.3683,5.4097,5.3996,5.4533,5.5505,5.7064,5.8165,5.84,5.7249,5.7596,5.7243,5.5208,5.4616,5.4226,5.3652,5.4047,5.4378,5.4378,5.4378,5.4139,5.345,5.3504,5.3166,5.2094,5.2032,5.2559,5.3719,5.2436,5.291,5.5432,5.3768,5.3179,5.3835,5.3835,5.4241,5.4994,5.5565,5.6612,5.8024,5.9431,5.948,5.862,5.9729,5.9329,5.8108,5.8205,5.7657,5.6737,5.7164,5.7303,5.7361,0.0,0.0,0.0,0.0,0.0,0.0,0.0,0.0,0.0,0.0,0.0,2.5018,2.5018,0.0,0.0,0.0,2.5018,2.5018,2.5018,2.4856,2.4584,2.4123,2.396,2.3662,2.3228,2.3635,2.3879,2.3879,2.3879,2.3879,2.3852,2.3256,2.3201,2.3608,2.3337,2.3445,2.3879,2.4014,2.4096,2.415,2.5021,2.6328,2.7635,2.6079,2.6921,2.847,2.528,2.3768,2.3124,2.2404,2.1689,2.1112,2.1112,2.0982,0.0,0.0,0.0,2.5474,3.4911,4.0255,4.4415,4.9792,5.121,5.1577,5.2471,5.2994,5.3064,5.261,5.308,5.4192,5.5992,5.7222,5.7523,5.6154,5.6408,5.6051,5.3899,5.3531,5.347,5.3592,5.3592,5.3592,5.3592,5.347,5.3166,5.265,5.3044,5.2834,5.1659,5.1596,5.2056,5.301,5.191,5.2311,5.4485,5.3452,5.2929,5.2929,5.2929,5.3452,5.4485,5.4485,5.5072,5.6277,5.7889,5.8063,5.7432,5.8786,5.8164,5.6396,5.7381,5.6984,5.5979,5.6938,5.7512,5.7884,0.0,0.0,0.0,0.0,0.0,0.0,0.0,0.0,0.0,0.0,0.0,2.5018,2.5018,2.5018,2.5018,2.5018,2.5018,2.5018,2.5018,2.4448,2.4123,2.4096,2.3554,0.0,2.3201,2.3228,2.3256,2.3256,2.3256,2.3256,2.3228,2.2605,2.2359,2.2414,2.2957,2.3228,2.3283,2.3852,2.4096,2.4367,2.7492,2.8463,2.8412,3.128,3.2458,3.2208,2.8994,2.768,2.7006,2.3986,2.2378,2.1666,2.1666,2.1221,2.083,0.0,0.0,0.0,3.0937,3.3094,3.5801,4.4553,4.5798,4.6269,5.1483,5.2211,5.1906,5.2187,5.2979,5.3314,5.2484,5.4178,5.5946,5.639,5.6071,5.5538,5.489,5.3866,5.3227,5.3531,5.3592,5.3592,5.3592,5.3044,5.265,5.2588,5.265,5.2342,5.1659,5.1596,5.1828,5.2345,5.1671,5.1867,5.2973,5.2929,5.2929,5.2929,5.2929,5.2929,5.2998,5.2998,5.3319,5.3955,5.6172,5.639,5.5274,5.6558,5.6695,5.6124,5.6124,5.6493,5.7126,5.7186,5.8047,5.919,0.0,0.0,0.0,0.0,0.0,0.0,0.0,0.0,0.0,0.0,0.0,0.0,0.0,2.5035,2.4734,2.4734,2.4734,2.4573,2.4198,2.4039,2.3636,2.2853,2.2688,2.2442,2.2063,2.2415,2.2605,2.2605,2.2605,2.2605,2.2605,2.1982,2.1711,2.1711,2.1955,2.2253,2.2659,2.3283,2.3743,2.4422,2.7912,3.031,3.1774,3.1178,3.3489,3.6388,3.1577,2.9538,2.8939,2.7512,2.5154,2.2721,2.2405,2.1851,2.1431,2.193,2.2738,2.4681,3.0067,3.2261,3.4553,4.0822,4.3992,4.6049,4.758,4.9333,5.0382,4.963,4.995,5.0417,5.0632,5.3361,5.5113,5.3656,5.4558,5.4854,5.3097,5.2634,5.2736,5.32,5.3288,5.3349,5.3592,5.2983,5.2588,5.2588,5.2218,5.1659,5.0968,5.0968,5.1357,5.2254,5.1671,5.18,5.2929,5.2929,5.2929,5.2929,5.2929,5.3105,5.3432,5.3432,5.3733,5.4306,5.5124,5.5683,5.6134,5.7517,5.7019,5.5444,5.6289,5.6305,5.6053,5.6936,5.8073,5.9364,0.0,0.0,0.0,0.0,0.0,2.6627,2.6627,2.6509,2.6478,2.6597,0.0,0.0,0.0,0.0,2.4805,2.4618,2.4591,2.4325,2.3737,2.3579,2.3071,2.208,2.1965,2.1743,2.134,2.1767,2.2007,2.2007,2.2007,2.2007,2.2007,2.1575,2.1385,2.1385,2.1385,2.1846,2.2632,2.2986,2.3608,2.4829,2.9448,3.1928,3.2935,3.3675,3.5899,3.8148,3.4275,3.2583,3.2115,3.1559,2.9476,2.6807,2.5183,2.3434,2.2036,2.2532,2.2921,2.4066,2.8016,2.9888,3.1785,3.6539,3.9722,4.2382,4.4776,4.6926,4.8346,4.8204,4.8582,4.8966,4.8897,5.1424,5.3136,5.1905,5.3078,5.3501,5.1815,5.1776,5.2137,5.2729,5.281,5.2951,5.32,5.2553,5.228,5.2738,5.1846,0.0,5.0968,5.0715,5.0998,5.1925,5.1892,5.2176,5.2929,5.2929,5.2929,5.2929,5.2929,5.3105,5.3457,5.3632,5.4009,5.4587,5.4762,5.5254,5.6029,5.7151,5.65,5.4918,5.5812,5.6129,5.6269,5.6865,5.8006,5.9293,0.0,0.0,0.0,0.0,2.6347,2.6347,2.6347,2.6347,2.6347,2.6347,0.0,0.0,0.0,0.0,0.0,2.4671,2.4591,2.4351,2.3737,2.3123,2.2511,2.1925,2.1439,2.1218,2.1218,2.1313,2.1385,2.1385,2.1385,2.1385,2.1385,2.1385,2.1385,2.1385,2.1385,2.2063,2.3175,2.3043,2.3798,2.5588,3.2291,3.3366,3.1763,3.9069,4.0122,3.7634,3.7305,3.7044,3.6715,3.5967,3.5036,3.3563,2.9821,2.5783,2.2532,2.3054,2.3182,2.3472,0.0,0.0,0.0,3.1626,3.2728,3.482,4.3044,4.508,4.5787,4.7857,4.9144,4.928,4.7297,4.8296,4.9931,5.1347,5.1651,5.1587,5.1314,5.1245,5.1519,5.211,5.2164,5.2286,5.257,5.1659,5.1659,5.301,5.1534,5.0842,5.1534,5.0994,5.083,5.1314,5.2327,5.2904,5.2929,5.2929,5.2929,5.2929,5.2929,5.2929,5.298,5.3482,5.4034,5.4612,5.5164,5.5114,5.4662,5.5189,5.5089,5.4587,5.4587,5.5926,5.7775,5.7152,5.7834,5.9086,0.0,0.0,0.0,2.6934,2.7307,2.76,2.76,2.7476,2.7444,0.0,0.0,0.0,2.6501,2.5673,2.5034,2.4876,2.4481,2.3979,2.3375,2.3015,2.2485,2.1797,2.1488,2.1288,2.1218,2.1313,2.1385,2.1385,2.1385,2.1385,2.1385,2.1385,2.1385,2.1385,2.1288,2.1963,2.3201,2.3149,2.3879,2.5588,3.2182,3.4636,3.4811,3.939,4.229,4.3721,4.1741,3.9825,3.8441,3.9663,3.5289,2.896,2.6238,2.4288,2.3001,2.3184,2.3182,2.3393,2.4151,0.0,0.0,0.0,0.0,0.0,3.5547,3.9888,4.3404,4.3537,4.5946,4.7866,4.732,4.7941,4.8784,4.9409,5.0216,5.0685,5.0435,5.0335,5.0666,5.1433,5.1573,5.1728,5.2259,5.14,5.1487,0.0,5.1094,5.0397,5.1534,5.0845,5.0716,5.1247,5.1975,5.2528,5.2929,5.2929,5.2929,5.2929,5.2929,5.313,5.3507,5.4059,5.4637,5.5189,5.5742,5.5892,5.5767,5.5917,5.5666,5.5164,5.5164,5.5893,5.6897,5.6317,5.7034,5.8181,0.0,0.0,2.7056,2.7293,2.7611,2.7848,2.7848,2.7756,2.7802,0.0,0.0,0.0,2.6816,2.5939,2.5328,2.5328,2.4805,2.423,2.36,2.3193,2.2563,2.1642,2.1604,2.1459,2.112,2.1288,2.1385,2.1385,2.1337,2.1313,2.1313,2.1313,2.1288,2.1242,2.1264,2.1913,2.3044,2.3366,2.4176,2.5824,3.2378,3.4819,3.5048,4.0132,4.2803,4.3823,4.3539,4.2334,4.1234,4.3625,3.8684,3.1177,2.9627,2.6749,2.389,2.3655,2.3574,2.3626,2.3992,2.4543,2.5149,2.5829,0.0,0.0,3.4219,3.8782,4.2983,4.5106,4.7301,4.8732,4.8273,4.7968,4.7926,4.8276,4.8865,4.9469,4.9787,4.9649,4.9783,5.0612,5.0778,5.096,5.1549,5.1091,5.1198,5.2398,5.0839,5.0104,5.0715,5.0546,5.0695,5.1272,5.1825,5.2477,5.3256,5.303,5.303,5.3256,5.303,5.308,5.3406,5.3959,5.4386,5.4712,5.529,5.5516,5.5516,5.5516,5.5465,5.5365,5.5139,5.5708,5.6546,5.604,5.6276,5.6984,0.0,0.0,2.6922,2.7411,2.749,2.7516,2.7568,2.7594,2.7837,0.0,2.8046,2.7523,2.7059,2.6399,2.5976,2.5976,2.5432,2.4861,2.4256,2.3655,2.2844,2.1747,2.1824,2.1633,2.1103,2.1269,2.1337,2.1337,2.1242,2.1193,2.1193,2.1193,2.112,2.1021,2.1296,2.1943,2.2831,2.3606,2.4813,2.6769,3.2637,3.4378,3.4173,4.1144,4.2683,4.1517,4.4149,4.461,4.4312,4.6485,4.2981,3.7407,3.6133,3.1389,2.597,2.4626,2.4439,2.4626,2.423,2.4491,2.4913,2.4966,2.6112,0.0,3.5292,3.8896,4.238,4.7729,4.9252,4.9291,4.8395,4.7242,4.6484,4.6819,4.7189,4.7861,4.9335,4.9069,4.9066,4.9881,5.0009,5.0217,5.0744,5.0725,5.0944,5.1634,5.0773,5.0052,4.9766,5.0193,5.0695,5.1272,5.1875,5.2628,5.3507,5.3181,5.3231,5.3607,5.3155,5.2929,5.2955,5.3457,5.3708,5.3733,5.431,5.4561,5.4561,5.4561,5.4863,5.5239,5.4762,5.5357,5.634,5.5767,5.5559,5.5533,2.7236,2.7333,2.7359,2.7464,2.749,2.7646,2.815,2.8203,2.8438,2.9074,2.9013,2.8908,2.8813,2.7837,2.7177,2.7177,2.6211,2.5406,2.4861,2.4344,2.3743,2.2923,2.2247,2.1768,2.156,2.1261,2.1095,2.1095,2.1046,2.1046,2.1046,2.1046,2.1046,2.0997,2.145,2.206,2.2884,2.3697,2.6564,3.0664,3.2364,3.4674,3.7639,4.1902,4.5135,4.7405,4.746,4.6458,4.4627,4.2113,4.1409,4.0614,3.4833,3.3487,3.2794,2.6638,2.6643,2.7954,2.4943,2.4204,2.4387,2.4887,2.5254,0.0,2.7776,3.1099,3.4111,3.5304,3.8184,4.0469,4.0469,4.0632,4.0861,4.116,4.3184,4.5688,4.8756,4.9076,4.9274,4.9918,5.0205,5.0452,5.0744,5.0516,5.0669,5.1511,5.0916,5.0613,5.0962,5.0619,5.0695,5.1272,5.2251,5.2653,5.2427,5.3155,5.3381,5.308,5.298,5.2929,5.2955,5.3457,5.3708,5.3733,5.431,5.4561,5.4561,5.4561,5.4637,5.4712,5.4612,5.4774,5.4885,5.4303,5.41,5.405,2.7438,2.749,2.749,2.749,2.749,2.7673,2.8307,2.842,2.8699,2.9588,2.9719,2.9588,2.9301,2.8752,2.8412,2.8412,2.7307,2.6524,2.6269,2.5494,2.4629,2.3678,2.3301,2.267,2.1719,2.1556,2.1314,2.0997,2.0974,2.0949,2.0949,2.0949,2.2061,2.3973,2.2459,2.3308,2.5724,2.4988,2.6411,2.953,3.326,3.737,4.1659,4.5054,4.746,4.9032,4.8734,4.7812,4.6433,4.4222,4.2285,4.036,3.8175,3.6198,3.386,2.946,2.9125,2.9318,2.5577,2.4334,2.4178,2.4465,2.4783,0.0,0.0,3.0512,3.3053,3.5138,3.7153,3.8539,3.8644,3.8602,3.8596,3.8734,4.1403,4.3596,4.4121,4.6614,4.8912,5.0131,4.9956,0.0,5.0955,5.0556,5.0409,5.079,5.0908,5.0958,5.0886,5.0845,5.0971,5.1272,5.2352,5.2929,5.2904,5.3432,5.3708,5.3733,5.3181,5.2929,5.2929,5.3206,5.3306,5.3331,5.3632,5.3758,5.3758,5.3758,5.3758,5.3783,5.4034,5.4135,5.411,5.3808,5.3708,5.3658,2.749,2.749,2.749,2.749,2.7594,2.7889,2.8464,2.8647,2.9091,3.0127,3.0686,3.0865,3.043,3.0703,3.095,3.095,2.9977,2.9066,2.8454,2.7459,2.6431,2.5484,2.4685,2.385,2.301,2.222,2.1584,2.1106,2.0927,2.085,2.085,2.085,2.2643,2.58,2.4027,2.4901,2.7703,2.7035,2.7578,2.9364,3.518,3.9597,4.3049,4.6218,4.7839,4.8381,4.8788,4.8517,4.7921,4.7189,4.3872,4.0187,4.1059,3.8667,3.4911,3.1755,3.1288,3.0874,2.6501,2.4883,2.4383,2.4308,2.4622,2.5875,0.0,0.0,0.0,3.592,3.6595,3.6576,3.6686,3.6293,3.5861,3.5757,0.0,0.0,0.0,4.2515,0.0,4.8369,4.9003,0.0,5.0082,4.9679,4.9681,5.0283,5.027,5.0447,5.0845,5.1046,5.1172,5.1272,5.2352,5.308,5.3381,5.3607,5.3934,5.4386,5.3406,5.2929,5.2929,5.2929,5.2929,5.2929,5.2929,5.2929,5.2929,5.2929,5.2929,5.298,5.3381,5.3557,5.3557,5.3557,5.3557,5.3557,2.749,2.749,2.749,2.749,2.7941,2.849,2.9127,2.9614,3.0163,3.0817,3.2843,3.4242,3.4257,3.5843,3.6903,3.6903,3.6289,3.4739,3.1929,3.1135,3.0576,3.0252,2.6295,2.5227,2.7583,2.3631,2.1511,2.1433,2.0961,2.0699,2.0699,2.0699,2.0986,2.1615,2.6118,2.6506,2.421,2.9918,3.398,3.6759,3.8595,3.8247,3.7033,4.0261,4.3187,4.5895,4.765,4.7975,4.7296,4.5921,4.4983,4.356,3.8158,3.9867,4.185,3.1721,3.2311,3.4833,2.8294,2.6059,2.5511,2.5044,2.494,2.497,2.4935,0.0,2.6061,2.6534,0.0,2.7499,2.8,0.0,0.0,2.8046,3.1731,3.4312,3.3238,3.6499,3.9675,4.1437,4.6543,0.0,0.0,4.607,4.7555,5.0972,4.8114,4.8045,5.2402,5.1297,5.0745,5.1272,5.2352,5.2729,5.2302,5.3231,5.3733,5.3783,5.3206,5.2929,5.2929,5.2929,5.2929,5.2929,5.2929,5.2929,5.2929,5.2929,5.2929,5.2929,5.3005,5.3005,5.3005,5.3005,5.3005,5.3005,2.749,2.749,2.749,2.749,2.7994,2.8595,2.9231,3.0059,3.0712,3.0947,3.2175,3.3067,3.3093,3.4161,3.5341,3.6518,3.6066,3.5057,3.3397,3.2708,3.1352,2.9065,2.7098,2.6002,2.5903,2.4021,2.2504,2.1511,2.1276,2.1014,2.0699,2.0699,2.222,2.5048,2.7519,2.9196,3.0459,3.4126,3.5679,3.5869,3.8698,3.8413,3.6936,4.3533,4.6623,4.7514,4.8029,4.8083,4.7785,4.7162,4.4954,4.2521,4.2838,4.1936,3.9901,3.5641,3.5057,3.4605,2.9153,2.8602,2.8995,2.6594,2.7341,2.8065,2.5646,2.5301,2.538,2.507,0.0,0.0,0.0,0.0,0.0,0.0,2.951,3.1482,2.9767,0.0,3.8155,0.0,0.0,0.0,0.0,0.0,0.0,0.0,4.9634,4.9847,5.1373,5.1122,5.087,5.077,5.2176,5.2653,5.2126,5.3155,5.3708,5.3683,5.3181,5.2929,5.2929,5.2929,5.2929,5.2929,5.2929,5.2929,5.2929,5.2929,5.2929,5.2929,5.2929,5.2929,5.2929,5.2929,5.2929,5.2929,2.749,2.749,2.749,2.749,2.815,2.8917,2.9676,3.0451,3.1052,3.1209,3.2162,3.2909,3.3132,3.4695,3.6313,3.7688,3.8025,3.7705,3.6684,3.5216,3.3648,3.1951,2.91,2.7464,2.7392,2.5249,2.3469,2.2217,2.1747,2.1381,2.1171,2.0988,2.2904,2.6532,2.8249,3.0844,3.4193,3.6934,3.7608,3.711,4.0047,4.0733,4.0662,4.6273,4.8625,4.8788,4.8354,4.8192,4.811,4.7568,4.4873,0.0,4.5383,4.3268,3.9535,3.9066,3.8158,3.6215,3.125,3.1325,3.1887,2.8095,2.8905,2.9821,2.6757,2.6054,2.5858,2.5153,2.5301,0.0,0.0,0.0,2.5484,2.514,0.0,2.8882,2.6837,3.0843,3.48,0.0,0.0,0.0,0.0,0.0,0.0,0.0,0.0,5.0074,5.0167,5.0444,5.0544,5.0419,5.1749,5.2352,5.2101,5.303,5.3557,5.3683,5.3181,5.2929,5.2929,5.2929,5.2929,5.2929,5.2929,5.2929,5.2929,5.2929,5.2929,5.2929,5.2929,5.2929,5.2929,5.2929,5.2929,5.2929,2.749,2.749,2.749,2.749,2.849,2.9676,3.0764,3.0973,3.1182,3.1693,3.3974,3.5817,3.6373,4.0691,4.3443,4.3157,4.5227,4.5576,4.3336,3.9757,3.9321,4.2856,3.3027,3.0074,3.56,2.8098,2.407,2.4018,2.2348,2.1773,2.2323,2.1747,2.1878,2.2795,2.8146,3.0609,3.115,3.702,4.1287,4.4064,4.4199,4.6029,4.8408,4.5572,4.6056,4.8219,4.8192,4.8192,0.0,4.5949,4.5171,0.0,0.0,4.3138,4.4232,4.0629,4.1287,4.1839,3.5535,3.3873,3.304,2.9302,2.8472,2.8266,2.6953,2.6698,2.6415,2.5248,2.5018,2.4861,2.4256,2.4596,2.4652,2.3472,2.4775,0.0,0.0,2.5323,2.7027,2.9362,0.0,0.0,0.0,0.0,0.0,0.0,0.0,0.0,4.949,4.9138,4.9339,5.0393,5.1021,5.1574,5.2101,5.2678,5.3206,5.3683,5.3181,5.2929,5.2929,5.2929,5.2929,5.2929,5.2929,5.2929,5.2929,5.2929,5.2929,5.2929,5.2929,5.2929,5.2929,5.2929,5.2929,5.2929,2.749,2.749,2.749,2.749,2.849,2.9666,3.0817,3.1313,3.2215,3.4146,3.5854,3.7626,3.9561,4.1554,4.3178,4.4242,4.5072,4.4858,4.3252,4.0712,3.9608,4.036,3.3607,3.1007,3.3542,2.883,2.561,2.4096,2.3496,2.2949,2.2401,2.2191,2.24,2.3132,2.8069,3.177,3.4633,3.9973,4.3134,4.4644,4.4644,4.5741,4.7376,4.7433,4.8489,5.001,5.001,5.0254,0.0,4.9328,4.7812,4.6409,4.6462,4.501,4.3141,4.2888,4.2167,4.1025,0.0,0.0,3.905,3.3979,3.4416,3.4842,3.0192,2.8855,2.8388,2.7602,2.6728,2.5829,2.4887,2.4861,2.4756,2.3942,2.4279,2.454,0.0,2.4779,2.5631,2.655,3.0376,3.3747,0.0,0.0,0.0,0.0,0.0,0.0,0.0,4.8862,4.9264,5.0393,5.0971,5.1548,5.2101,5.2653,5.3005,5.3181,5.3005,5.2929,5.2929,5.2929,5.2929,5.2929,5.2929,5.2929,5.2929,5.2929,5.2929,5.2929,5.2929,5.2929,5.2929,5.2929,5.2929,5.2929,2.7542,2.7646,2.7837,2.7837,2.8804,2.998,3.1104,3.1562,3.2909,3.5933,3.7008,3.8607,4.1511,4.2868,4.3959,4.5022,4.5849,4.5715,4.4189,4.2389,4.1356,4.125,3.6401,3.4459,3.5939,3.1412,2.8299,2.6837,2.4984,2.3838,2.3317,2.2897,2.3106,2.3968,2.715,3.1653,3.7059,4.042,4.3715,4.6652,4.6652,4.7109,4.7888,4.9218,4.9791,4.9951,0.0,5.1475,5.1774,5.1367,5.0086,4.884,4.952,4.7541,4.5092,4.5867,4.4897,4.3318,4.2194,4.2968,0.0,3.8114,3.8438,3.8589,3.3198,3.1631,3.1108,3.0304,2.8444,2.7392,2.8673,2.6922,2.5563,2.6425,2.5354,2.436,0.0,2.4439,2.4762,2.4967,2.8219,3.1203,0.0,0.0,0.0,0.0,0.0,0.0,0.0,0.0,4.8962,5.0092,5.087,5.1548,5.2101,5.2829,5.3105,5.2929,5.3105,5.3105,5.2929,5.2929,5.2929,5.2929,5.2929,5.2929,5.2929,5.2929,5.2929,5.2929,5.2929,5.2929,5.2929,5.2929,5.2929,5.2929,2.7699,2.8072,2.8464,2.849,2.9431,3.0518,3.1641,3.1954,3.3447,3.7246,3.7873,3.9276,4.2669,4.5023,4.6243,4.5902,4.7926,4.8415,4.6436,4.4885,4.4568,4.5769,4.1331,4.0053,4.2592,3.5641,3.1876,3.1797,2.6733,2.4543,2.5018,2.3864,2.3942,2.507,2.5641,3.0358,3.7943,3.8541,4.3125,4.9953,4.998,4.9953,5.001,5.0715,4.9705,4.8322,5.0898,5.1882,5.1909,5.1882,5.1882,5.1774,5.115,5.0553,4.9983,4.9386,4.9196,4.849,4.5488,4.5059,4.4711,4.1534,4.058,0.0,0.0,3.5049,3.4552,3.333,3.042,2.9702,3.4972,3.0555,2.7131,3.0268,2.753,2.4809,2.423,2.4096,2.4161,0.0,0.0,0.0,0.0,0.0,0.0,0.0,0.0,0.0,0.0,0.0,4.8335,4.959,5.0695,5.1548,5.2126,5.3181,5.3457,5.298,5.3507,5.3482,5.3005,5.298,5.2955,5.2955,5.2929,5.2929,5.2929,5.2929,5.2929,5.2929,5.2929,5.2929,5.2929,5.2929,5.2929,5.2929,2.8856,2.9301,2.9823,3.0241,3.0555,3.0999,3.1693,3.4196,3.7246,4.0648,4.2891,4.5502,4.9077,4.9768,4.9974,4.9898,5.0435,5.0412,4.9422,4.7187,4.6812,4.8811,4.3654,4.1617,4.3584,3.7387,3.3343,3.1797,2.8325,2.6263,2.5589,2.5271,2.5297,2.5641,2.6602,3.1098,3.797,3.877,4.3229,4.9724,5.0182,4.9619,4.873,0.0,5.1007,4.9538,5.1657,5.2778,5.3076,5.2642,5.2479,5.2371,5.1774,5.1475,5.1231,5.0634,5.0118,4.9603,4.8788,4.8002,4.6892,4.4657,4.3754,4.2865,0.0,0.0,0.0,3.8678,3.7246,3.5497,3.4204,3.2129,3.0006,2.8114,2.6222,2.494,2.4809,2.4298,2.3972,2.4038,0.0,0.0,0.0,0.0,0.0,0.0,0.0,0.0,0.0,0.0,0.0,5.0092,5.0896,5.1749,5.2703,5.3356,5.3632,5.3507,5.4084,5.4285,5.4135,5.3708,5.3507,5.3482,5.308,5.2929,5.2929,5.2929,5.2929,5.2929,5.2929,5.2929,5.2929,5.2929,5.2929,5.2929,2.9362,2.9928,3.0686,3.1261,3.2948,3.4237,3.4316,3.5342,3.7722,4.2084,4.4246,4.6678,4.9936,5.1089,5.1707,5.1734,5.1734,5.1142,4.9855,4.9066,4.8693,4.8704,4.625,4.5289,4.6035,4.1169,3.7448,3.501,3.1371,2.8541,2.6524,2.6028,2.6054,2.6576,2.7203,3.0892,3.6834,4.0354,4.4428,4.8563,5.0077,5.0405,0.0,5.2013,5.2176,5.1544,5.2664,5.332,5.3537,5.3212,5.3103,5.2995,5.2398,5.2208,5.2099,5.1475,5.1068,5.0743,5.0471,4.9901,4.9032,4.7677,4.7051,4.6168,4.3748,4.2399,4.1815,0.0,4.0534,3.9085,0.0,0.0,3.1823,2.8035,2.6661,2.6007,2.5777,2.5162,2.4676,0.0,2.6764,0.0,0.0,0.0,0.0,0.0,0.0,0.0,0.0,0.0,4.5497,4.8184,5.0695,5.2176,5.2578,5.4059,5.4436,5.3708,5.4536,5.4787,5.4561,5.4235,5.3934,5.3683,5.3381,5.313,5.2929,5.2929,5.2929,5.2929,5.2929,5.2929,5.2929,5.2929,5.2929,5.2929,2.9823,3.0529,3.1418,3.2032,3.5594,3.833,3.8368,3.7087,3.8002,4.3152,4.4567,4.6062,4.8759,5.1041,5.242,5.2541,5.248,5.1594,4.97,5.0824,5.0474,4.7864,4.8965,4.944,4.8881,4.5475,4.2219,3.9157,3.4774,3.0956,2.7699,2.6707,2.6785,2.7725,2.7803,3.074,3.6051,4.2623,4.6246,4.7703,5.0089,5.1692,5.2723,5.2805,5.3158,5.3592,5.3592,5.3592,5.3592,5.3592,5.3592,5.351,5.2995,5.2832,5.2723,5.2126,5.1936,5.1801,5.1177,5.1014,5.0878,5.0281,4.9894,4.9023,4.6489,4.5229,4.4752,4.5341,4.2632,4.1882,0.0,0.0,3.3463,2.9686,2.9048,2.8839,2.8263,2.7717,2.7089,0.0,0.0,0.0,0.0,0.0,0.0,0.0,0.0,0.0,0.0,0.0,4.4116,4.5974,5.0293,5.2477,5.2226,0.0,5.529,5.3934,5.4988,5.5239,5.4787,5.4712,5.4386,5.3909,5.3758,5.3457,5.303,5.2955,5.2929,5.2929,5.2929,5.2929,5.2929,5.2929,5.2929,5.2929,3.2123,3.2254,3.2725,3.377,3.6192,3.9096,4.2358,4.4143,4.5742,4.7566,4.9467,5.1289,5.2849,5.3048,5.3451,5.4333,5.3894,5.3521,5.347,5.3072,5.2473,5.1711,5.103,5.0394,4.9801,4.6625,4.2968,3.8804,3.5864,3.2565,2.8961,2.8778,2.8778,2.8987,2.9448,3.3291,3.9807,4.4125,4.7622,5.0306,5.1227,5.2099,5.275,5.3266,5.351,5.3592,5.3592,5.3592,5.3592,5.3592,5.3592,5.3565,5.3483,5.3429,5.332,5.2723,5.2561,5.2425,5.1828,5.1665,5.1529,5.0905,5.0306,4.9818,4.9303,4.8678,4.8353,4.8948,4.8164,4.7028,4.614,0.0,0.0,3.3328,3.5184,3.6876,3.6062,3.59,3.4521,0.0,0.0,0.0,0.0,0.0,0.0,0.0,0.0,0.0,0.0,0.0,4.3011,0.0,5.0167,0.0,0.0,0.0,5.4938,5.5089,5.5767,5.6018,5.5917,5.544,5.5189,5.5039,5.411,5.3658,5.3532,5.3105,5.2929,5.2929,5.2929,5.2929,5.2929,5.2929,5.2929,5.2929,3.3169,3.3639,3.458,3.6332,3.9192,4.2438,4.5898,4.866,4.9967,4.906,4.987,5.0925,5.2021,5.3039,5.3856,5.431,5.4448,5.4496,5.4414,5.4305,5.3901,5.3098,5.2091,5.1043,4.9923,4.7973,4.4545,3.9599,3.7749,3.459,3.02,2.9598,2.9431,2.9823,3.1695,3.4743,3.877,4.3238,0.0,4.9489,5.1146,5.2371,5.3212,5.3483,5.3782,5.4053,5.4053,5.427,5.4433,5.3809,5.3809,5.3999,5.37,5.3592,5.3537,5.3266,5.3185,5.3049,5.2452,5.2289,5.2126,5.1529,5.1177,5.096,5.096,5.0471,5.0118,5.0417,5.001,4.8707,4.5841,4.2797,0.0,0.0,0.0,3.7377,3.8606,3.8217,3.7019,0.0,0.0,0.0,0.0,0.0,0.0,0.0,0.0,0.0,0.0,0.0,4.2082,0.0,0.0,0.0,0.0,0.0,0.0,5.4963,5.5817,5.6219,5.6194,5.5942,5.5666,5.5365,5.4813,5.4235,5.3658,5.313,5.2929,5.2929,5.2929,5.2929,5.2929,5.2929,5.2929,5.2929,3.4763,3.5495,3.6828,3.9364,4.2679,4.5864,4.8452,5.1241,5.2394,5.0451,5.0127,5.0437,5.1215,5.2955,5.4078,5.4064,5.4524,5.4654,5.4304,5.4751,5.4547,5.3429,5.2464,5.1337,5.0106,4.9092,4.616,4.1149,3.9711,3.6314,3.1081,3.0205,3.0361,3.1369,3.3891,3.6251,0.0,0.0,4.6248,4.8917,5.1088,5.2642,5.3619,5.3727,5.408,5.4514,5.4623,5.5084,5.5437,5.4351,5.4297,5.4596,5.4134,5.389,5.3782,5.3782,5.37,5.351,5.3022,5.2913,5.275,5.2154,5.2018,5.1991,5.1855,5.1448,5.1095,5.1095,5.0607,4.9139,4.579,4.4351,0.0,0.0,0.0,3.9207,4.1813,4.1258,4.0134,0.0,0.0,0.0,0.0,0.0,0.0,0.0,0.0,0.0,3.9496,0.0,0.0,0.0,0.0,5.1272,5.0745,0.0,5.5491,5.4762,5.5742,5.6219,5.6219,5.6219,5.5968,5.5541,5.544,5.4737,5.3658,5.3256,5.303,5.2929,5.2929,5.2929,5.2929,5.2929,5.2929,5.2929,3.8632,3.8684,3.9442,4.2814,4.5401,4.7555,4.9159,5.1688,5.3448,5.3768,5.3734,5.387,5.4273,5.4126,5.4299,5.4942,5.4164,5.3824,5.4105,5.3908,5.3648,5.3295,5.2197,5.1356,5.0965,4.9629,4.7172,4.3515,4.1308,3.7215,3.1358,3.1499,3.2812,3.5097,3.5458,0.0,0.0,4.5498,4.8065,5.1498,5.2316,5.3022,5.3646,5.4189,5.4433,5.4569,5.5138,5.5708,5.6115,5.5464,5.5274,5.5328,5.5274,5.4867,5.4406,5.4406,5.4026,5.3592,5.3537,5.351,5.3375,5.2778,5.2642,5.2479,5.1936,5.1774,5.1747,5.1747,5.1258,4.957,4.5581,4.7702,4.9266,0.0,0.0,0.0,0.0,5.0167,4.8291,4.4264,0.0,0.0,0.0,0.0,0.0,0.0,3.5755,0.0,0.0,0.0,0.0,4.61,4.6677,4.7606,4.8987,5.2804,5.4913,5.5315,5.5917,5.6219,5.6219,5.6219,5.6194,5.6118,5.5591,5.4737,5.3708,5.3658,5.3356,5.2929,5.2929,5.2929,5.2929,5.2929,5.2929,5.2929,4.1331,4.203,4.3206,4.5976,4.7519,4.9172,5.1495,5.2967,5.4066,5.4734,5.4288,5.4169,5.4839,5.4624,5.4492,5.4428,5.4508,5.4457,5.4066,5.4282,5.4178,5.3731,5.293,5.1923,5.0676,4.9812,4.7749,0.0,0.0,3.8287,3.4751,3.4547,3.566,3.8009,0.0,4.1877,4.477,4.6861,4.9094,5.1149,5.1387,5.2024,5.2899,5.3137,5.3668,5.4368,5.4543,5.5252,5.6122,5.5907,5.5842,5.5898,5.5518,5.5247,5.503,5.503,5.4867,5.4596,5.4243,5.4134,5.3999,5.3402,5.3239,5.3185,5.294,5.2886,5.2805,5.2425,5.1977,5.1022,4.889,4.8602,4.8904,4.9507,0.0,0.0,0.0,5.0198,4.8909,4.6773,0.0,4.379,0.0,0.0,0.0,0.0,0.0,0.0,0.0,0.0,0.0,4.6728,0.0,4.9916,5.1247,5.3457,5.4687,5.4913,5.5792,5.6219,5.6219,5.6219,5.6219,5.6168,5.5616,5.5139,5.4662,5.3984,5.3582,5.3356,5.3055,5.2929,5.2929,5.2929,5.2929,5.298,4.437,4.5323,4.6578,4.9244,5.008,5.11,5.3295,5.4105,5.4628,5.5046,5.4533,5.4389,5.5046,5.4899,5.4543,5.4158,5.4602,5.4611,5.3887,5.4309,5.4309,5.3725,5.3097,5.2235,5.0921,5.0042,4.8498,4.6339,4.3093,4.0337,3.8049,3.6896,3.8069,0.0,4.2819,4.4387,4.5974,4.8214,4.9858,5.0959,5.1116,5.1769,5.2656,5.2839,5.3413,5.421,5.4367,5.4945,5.5776,5.5776,5.5838,5.5956,5.5934,5.5817,5.5681,5.5681,5.5545,5.5328,5.4867,5.4758,5.465,5.4243,5.3999,5.3863,5.3863,5.3727,5.3429,5.2832,5.2517,5.2128,5.1409,4.9924,4.9482,5.151,0.0,0.0,5.0364,4.9899,4.8875,4.7637,4.6018,4.4669,4.379,4.2735,0.0,0.0,0.0,0.0,0.0,0.0,0.0,0.0,0.0,0.0,5.1925,5.3683,5.4637,5.4813,5.5767,5.6219,5.6219,5.6219,5.6219,5.6194,5.5792,5.5541,5.534,5.4536,5.411,5.3909,5.3356,5.3256,5.3356,5.3055,5.313,5.3432,4.8139,4.8538,4.9244,5.272,5.3347,5.353,5.4105,5.4707,5.5099,5.5099,5.5099,5.5099,5.5099,5.4738,5.4511,5.4511,5.4174,5.3861,5.3546,5.3478,5.3341,0.0,0.0,5.2101,5.2076,5.0444,4.9565,4.954,0.0,0.0,4.061,3.8003,3.9677,4.4807,4.4327,4.6154,4.9629,4.9742,5.0452,5.1523,5.2134,5.2734,5.3335,5.3857,5.4092,5.4262,5.4811,5.4994,5.502,5.502,5.4994,5.526,5.6693,5.6766,5.6278,5.6278,5.5871,5.541,5.541,5.541,5.541,5.5383,5.4921,5.446,5.446,5.4026,5.3429,5.2832,5.2723,5.2577,5.2251,5.2345,5.2563,5.2922,0.0,0.0,5.157,5.0968,4.9475,4.6718,4.7243,4.723,4.5623,4.6878,0.0,0.0,4.836,4.9238,0.0,0.0,0.0,4.7093,4.7093,0.0,4.9615,5.2904,5.4838,5.539,5.5942,5.6219,5.6219,5.6219,5.6219,5.6219,5.6194,5.5892,5.539,5.5365,5.5039,5.4486,5.3909,5.4034,5.4411,5.3331,5.3607,5.4461,5.0344,5.1194,5.1788,5.3126,5.3687,5.4001,5.4184,5.4707,5.5099,5.5099,5.5099,5.5099,5.5099,5.4965,5.4805,0.0,5.4376,5.4174,0.0,5.3861,5.3793,5.3657,5.33,5.2886,5.2413,5.1708,5.0921,5.0167,0.0,0.0,0.0,4.2695,4.4055,4.7554,4.7403,4.817,4.9684,5.0038,5.0673,5.1402,5.158,5.1987,5.2521,5.2673,5.2979,5.336,5.3513,5.3903,5.4309,5.4309,5.4619,5.5087,5.5551,5.5906,5.6164,5.6164,5.6381,5.6522,5.6142,5.6007,5.5925,5.5518,5.5274,5.5111,5.5111,5.465,5.4026,5.3429,5.2931,5.2459,5.1971,5.1883,5.1836,5.1643,5.1534,0.0,5.169,5.0981,5.0013,4.8724,4.8536,4.8008,0.0,4.7757,0.0,0.0,0.0,4.7305,4.2108,0.0,0.0,0.0,4.9163,0.0,5.2955,5.4034,5.4838,5.539,5.5942,5.6219,5.6219,5.6219,5.6219,5.6219,5.6219,5.6118,5.5917,5.5541,5.529,5.5064,5.4511,5.4411,5.4607,5.416,5.426,5.4587,5.1838,5.2775,5.3282,5.3713,5.4249,5.455,5.455,5.4863,5.5099,5.5099,5.5099,5.5099,5.5099,5.5099,0.0,5.4738,5.4738,5.4578,5.4174,5.4174,5.4106,5.3997,5.3793,5.3436,5.2945,5.254,0.0,5.1046,4.9113,4.8008,4.7657,4.728,4.8058,4.9715,4.9715,4.9916,5.0243,5.0594,5.1071,5.1599,5.1599,5.1925,5.2427,5.2427,5.2628,5.2929,5.2929,5.3204,5.3589,5.3589,5.3835,5.4216,5.4216,5.4712,5.5379,5.5644,5.6039,5.6287,5.5912,5.5832,5.5725,5.5377,5.5045,5.4831,5.4617,5.4333,5.3958,5.3583,5.297,5.243,5.2024,5.1737,5.1405,5.1214,5.1254,5.1438,5.162,5.1103,5.0293,4.9113,0.0,0.0,0.0,4.738,4.733,0.0,0.0,4.7983,4.4719,0.0,4.9816,4.9188,5.0946,0.0,5.4536,5.4762,5.5139,5.5691,5.6043,5.6219,5.6219,5.6219,5.6219,5.6219,5.6219,5.6219,5.6168,5.5616,5.5516,5.5616,5.4863,5.4813,5.5139,5.4712,5.4838,5.5214,5.2699,5.3428,5.3849,5.4407,5.4805,5.5099,5.5099,5.5099,5.5099,5.5099,5.5099,5.5099,5.5099,5.5099,5.5099,5.5099,0.0,0.0,5.4578,5.4578,5.4376,5.4064,5.4064,5.3861,5.3614,5.2945,5.2464,5.2101,5.1548,5.1272,5.1272,5.1272,5.1272,5.1272,5.1272,5.1297,5.1348,5.1348,5.1649,5.2176,5.2201,5.2528,5.298,5.298,5.298,5.298,5.2929,5.2929,5.2929,5.2929,5.2929,5.2929,5.2929,5.3384,5.4064,5.4753,5.4953,5.502,5.502,5.502,5.502,5.502,5.4602,5.4014,5.3465,5.3335,5.3335,5.3309,5.2839,5.2384,5.2384,5.1872,5.1446,5.1432,5.1433,5.1414,5.1398,5.1373,5.0544,0.0,0.0,0.0,0.0,4.6376,4.6979,0.0,0.0,5.0444,0.0,0.0,5.0142,5.1348,5.2402,5.3482,5.4612,5.5139,5.5666,5.6219,5.6219,5.6219,5.6219,5.6219,5.6219,5.6219,5.6219,5.6219,5.6168,5.5616,5.5717,5.6118,5.5039,5.5265,5.6093,5.5064,5.534,5.6143,0.0,0.0,5.3775,5.4418,5.4578,5.4738,5.5032,5.5099,5.5099,5.5099,5.5099,5.5099,5.5099,5.5099,5.5099,5.5099,5.5099,5.5032,5.4939,5.4939,5.4965,5.4831,5.4537,5.4309,5.4241,5.3598,5.2936,5.2101,5.1548,5.1272,5.1272,5.1272,5.1272,5.1272,5.1272,5.1523,5.19,5.19,5.2226,5.2779,5.3155,5.3406,5.3507,5.3507,5.3507,5.3457,5.308,5.2929,5.2929,5.2929,5.2929,5.2929,5.2929,5.2998,5.3316,5.4039,5.4619,5.502,5.502,5.502,5.502,5.502,5.4916,5.4654,5.4014,5.3909,5.3779,5.3361,5.279,5.2296,5.2296,5.2166,5.2057,5.1959,5.2336,5.2657,5.2546,5.2176,5.1724,0.0,5.0117,4.9339,4.9038,4.8786,4.8259,0.0,0.0,4.8134,4.8686,4.9264,5.0494,5.2477,5.2779,5.3658,5.5189,5.5315,5.5666,5.6219,5.6219,5.6219,5.6219,5.6219,5.6219,5.6219,5.6219,5.6219,5.6168,5.5616,5.5717,5.6143,5.5465,5.5616,5.6168,5.5917,5.5993,5.6194,5.2998,5.3341,5.3682,5.4174,5.4376,5.4645,5.5032,5.5099,5.5099,5.5099,5.5099,5.5099,5.5099,5.5099,5.5099,5.5099,5.5099,5.5099,5.5099,5.5099,5.5099,5.5099,5.4872,5.4712,5.4511,5.4106,5.3572,5.275,5.2447,5.2228,5.2026,5.2026,5.2026,5.2026,5.2026,5.2201,5.2477,5.2477,5.2804,5.3306,5.3582,5.3858,5.4059,5.3808,5.3708,5.3632,5.3105,5.2929,5.2929,5.2929,5.2929,5.2929,5.2929,5.2929,5.2998,5.3384,5.3768,5.4039,5.4039,5.4039,5.409,5.4321,5.4398,5.4372,5.4347,5.4347,5.4193,5.3628,5.2986,5.2488,5.2235,5.2047,5.1915,5.2093,5.1579,5.1595,5.3099,5.2151,5.1699,5.2729,5.2076,5.1247,5.0444,5.0117,4.969,4.9012,4.9238,0.0,5.0896,5.1523,5.2201,5.2904,5.3658,5.4486,5.539,5.5641,5.5917,5.6219,5.6219,5.6219,5.6219,5.6219,5.6219,5.6219,5.6219,5.6219,5.6168,5.5616,5.5717,5.6168,5.5591,5.5717,5.6219,5.6219,5.6219,5.6219,5.256,5.3042,5.3614,5.3929,5.4309,5.4645,5.5032,5.5099,5.5099,5.5099,5.5099,5.5099,5.5099,5.5099,5.5099,5.5099,5.5099,5.5099,5.5099,5.5099,5.5099,5.5099,5.5099,5.4965,5.4578,5.4511,5.4174,5.3478,5.3478,5.3273,5.2929,5.2929,5.2929,5.2929,5.2929,5.2929,5.2929,5.3005,5.3306,5.3708,5.3884,5.426,5.4637,5.4135,5.3959,5.3884,5.3256,5.3055,5.303,5.2955,5.2929,5.2929,5.2929,5.2929,5.2929,5.2929,5.2929,5.2929,5.2929,5.2929,5.303,5.3482,5.3582,5.3708,5.421,5.431,5.4185,5.3683,5.3231,5.2779,5.2327,5.185,5.1599,5.1825,5.0544,5.0419,5.298,5.2026,5.1724,5.3607,5.3306,5.2553,5.1624,5.1021,5.1096,5.2151,5.2302,5.3005,5.4486,5.4637,5.426,5.3331,5.4662,5.544,5.5516,5.5968,5.6219,5.6219,5.6219,5.6219,5.6219,5.6219,5.6219,5.6219,5.6219,5.6219,5.6168,5.5616,5.5717,5.6168,5.5591,5.5717,5.6219,5.6219,5.6219,5.6219,5.0928,5.2302,5.3614,5.3929,5.4309,5.4645,5.5032,5.5099,5.5099,5.5099,5.5099,5.5099,5.5099,5.5099,5.5099,5.5099,5.5099,5.5099,5.5099,5.5099,5.5099,5.5099,5.5099,5.5099,5.5032,5.4645,5.4174,5.3478,5.3478,5.3273,5.2929,5.2929,5.2929,5.2929,5.2929,5.2929,5.2955,5.3381,5.3632,5.3783,5.4737,5.5189,5.5239,5.5164,5.5139,5.4988,5.3959,5.3582,5.3507,5.308,5.2929,5.2929,5.2929,5.2929,5.2929,5.2929,5.2929,5.2929,5.2929,5.2929,5.2955,5.303,5.3055,5.308,5.3155,5.3181,5.3155,5.3055,5.298,5.2904,5.2804,5.2729,5.2226,5.0896,5.195,5.2628,5.1774,5.2955,5.4059,5.4386,5.3532,5.2854,5.2678,5.2176,5.2101,5.2754,5.3206,5.3783,5.4607,5.5013,5.5189,5.5013,5.5239,5.5616,5.6068,5.6168,5.6219,5.6219,5.6219,5.6219,5.6219,5.6219,5.6219,5.6219,5.6219,5.6219,5.6168,5.5616,5.5717,5.6168,5.5591,5.5717,5.6219,5.6219,5.6219,5.6219,5.1956,5.2904,5.3682,5.4174,5.4376,5.4645,5.5032,5.5099,5.5099,5.5099,5.5099,5.5099,5.5099,5.5099,5.5099,5.5099,5.5099,5.5099,5.5099,5.5099,5.5099,5.5099,5.5099,5.5099,5.5099,5.4939,5.4604,5.4064,5.3861,5.3589,5.3204,5.2998,5.2929,5.2929,5.2929,5.308,5.3356,5.3607,5.4059,5.4662,5.5189,5.5566,5.5792,5.5491,5.5214,5.4838,5.4009,5.3507,5.3256,5.3005,5.2929,5.2929,5.2929,5.2929,5.2929,5.2929,5.2929,5.2929,5.2929,5.2929,5.3005,5.3281,5.3331,5.3432,5.3733,5.3808,5.3708,5.3406,5.3331,5.3256,5.298,5.2929,5.2678,5.19,5.1624,5.185,5.2904,5.2904,5.3356,5.4838,5.4561,5.3909,5.3005,5.2955,5.308,5.3331,5.3858,5.4536,5.5415,5.5691,5.5842,5.5842,5.5842,5.5968,5.6219,5.6219,5.6219,5.6219,5.6219,5.6219,5.6219,5.6219,5.6219,5.6194,5.5892,5.5767,5.5717,5.5164,5.5089,5.529,5.5039,5.5089,5.5315,5.5315,5.5315,5.5315,5.2466,5.3247,5.3793,5.4309,5.4511,5.4738,5.5032,5.5099,5.5099,5.5099,5.5099,5.5099,5.5099,5.5099,5.5099,5.5099,5.5099,5.5099,5.5099,5.5099,5.5099,5.5099,5.5099,5.5099,5.5099,5.5099,5.4872,5.4511,5.4241,5.3929,5.3478,5.3204,5.2998,5.2929,5.3055,5.3331,5.3708,5.3984,5.4587,5.539,5.5541,5.5842,5.6168,5.5742,5.5315,5.4863,5.416,5.3632,5.3281,5.3005,5.2929,5.2929,5.2929,5.2929,5.2929,5.2929,5.2929,5.2929,5.2929,5.2929,5.303,5.3432,5.3507,5.3632,5.4084,5.4185,5.4059,5.3607,5.3507,5.3406,5.3005,5.2929,5.2804,5.2402,5.1348,5.1297,5.3482,5.2779,5.2879,5.5114,5.5265,5.4712,5.3432,5.3557,5.3758,5.3884,5.431,5.5039,5.6143,5.6219,5.6219,5.6219,5.6219,5.6219,5.6219,5.6219,5.6219,5.6219,5.6219,5.6219,5.6219,5.6219,5.6219,5.6168,5.5616,5.539,5.534,5.4787,5.4561,5.4561,5.4561,5.4561,5.4561,5.4561,5.4561,5.4561,5.0505,5.2485,5.3997,5.4064,5.4604,5.5099,5.5099,5.5099,5.5099,5.5099,5.5099,5.5099,5.5099,5.5099,5.5099,5.5099,5.5099,5.5099,5.5099,5.5099,5.5099,5.5099,5.5099,5.5099,5.5099,5.5099,5.4872,5.4511,5.4511,5.4106,5.3478,5.3478,5.3273,5.2955,5.3432,5.3658,5.3758,5.4813,5.5315,5.544,5.5942,5.6168,5.6219,5.6168,5.6118,5.5942,5.4888,5.4486,5.4285,5.3281,5.2929,5.2929,5.2929,5.2929,5.2929,5.2929,5.2929,5.2929,5.2929,5.2929,5.2929,5.298,5.298,5.3005,5.303,5.3055,5.303,5.3005,5.298,5.298,5.2929,5.2929,5.2427,5.0845,5.2176,5.2955,5.1699,5.313,5.4587,5.5315,5.4938,5.4587,5.4461,5.3984,5.3934,5.4461,5.4536,5.5039,5.6143,5.6219,5.6219,5.6219,5.6219,5.6219,5.6219,5.6219,5.6219,5.6219,5.6219,5.6219,5.6219,5.6219,5.6219,5.6168,5.5616,5.539,5.534,5.4787,5.4561,5.4561,5.4561,5.4561,5.4561,5.4561,5.4561,5.4561,5.2709,5.3935,5.4543,5.4682,5.4898,5.5099,5.5099,5.5099,5.5099,5.5099,5.5099,5.5099,5.5099,5.5099,5.5099,5.5099,5.5099,5.5099,5.5099,5.5099,5.5099,5.5099,5.5099,5.5099,5.5099,5.5099,5.5032,5.4872,5.4645,5.4376,5.4132,5.4039,5.3916,5.3803,5.4149,5.4436,5.4762,5.5214,5.5591,5.5917,5.6118,5.6219,5.6219,5.6219,5.5993,5.5591,5.4838,5.4336,5.3909,5.3181,5.2929,5.2929,5.2929,5.2929,5.2929,5.2929,5.2929,5.2929,5.2929,5.2929,5.2929,5.2929,5.2929,5.2929,5.2929,5.2929,5.2929,5.2929,5.2929,5.2929,5.2929,5.2929,5.2729,5.2076,5.2678,5.313,5.2829,5.3507,5.4235,5.4813,5.4988,5.4787,5.411,5.4762,5.5064,5.4587,5.5189,5.5767,5.6194,5.6219,5.6219,5.6219,5.6219,5.6219,5.6219,5.6219,5.6219,5.6219,5.6219,5.6219,5.6219,5.6219,5.6018,5.5666,5.5114,5.4662,5.431,5.3758,5.3557,5.3557,5.3557,5.3557,5.3557,5.3557,5.3557,5.3557,5.4104,5.4891,5.5134,5.5226,5.5513,5.5647,5.5647,5.5647,5.5569,5.5386,5.536,5.5282,5.5125,5.5099,5.5099,5.5099,5.5099,5.5099,5.5099,5.5099,5.5099,5.5099,5.5099,5.5099,5.5099,5.5099,5.5099,5.5099,5.4805,5.4645,5.4511,5.4313,5.4207,5.434,5.4522,5.4863,5.539,5.5566,5.5867,5.6219,5.6219,5.6219,5.6219,5.6219,5.5968,5.5566,5.5013,5.4461,5.3884,5.3356,5.3055,5.2929,5.2929,5.2929,5.2929,5.2929,5.2929,5.2929,5.2929,5.2929,5.2929,5.2929,5.2929,5.2929,5.2929,5.2929,5.2929,5.2929,5.2929,5.2929,5.2929,5.2929,5.2929,5.2929,5.2929,5.3055,5.3406,5.3457,5.3658,5.4235,5.4637,5.4612,5.4034,5.5013,5.544,5.4863,5.5516,5.5968,5.5968,5.6118,5.6118,5.5968,5.6118,5.6219,5.6219,5.6219,5.6219,5.6219,5.6219,5.6219,5.6219,5.6219,5.5917,5.5365,5.4813,5.4235,5.3658,5.313,5.2929,5.2929,5.2929,5.2929,5.2929,5.2929,5.2929,5.2955,5.3967,5.5223,5.5714,5.5714,5.6314,5.6798,5.6798,5.6798,5.6588,5.5987,5.5909,5.57,5.5177,5.5125,5.5125,5.5125,5.5099,5.5099,5.5099,5.5099,5.5099,5.5099,5.5099,5.5099,5.5099,5.5099,5.5099,5.5099,5.5099,5.4872,5.4511,5.42,5.4099,5.434,5.4547,5.4888,5.5415,5.5968,5.6219,5.6219,5.6219,5.6219,5.6219,5.6219,5.6219,5.6143,5.5591,5.5039,5.4486,5.3909,5.3356,5.2929,5.2929,5.2929,5.2929,5.2929,5.2929,5.2929,5.2929,5.2929,5.2929,5.2929,5.2929,5.2929,5.2929,5.2929,5.2929,5.2929,5.2929,5.2929,5.2929,5.2929,5.2929,5.2929,5.2929,5.2929,5.2929,5.2929,5.313,5.3632,5.3708,5.3934,5.4511,5.4561,5.4787,5.534,5.539,5.539,5.539,5.5917,5.5968,5.5415,5.5917,5.6219,5.6219,5.6219,5.6219,5.6219,5.6219,5.6219,5.6194,5.6194,5.5892,5.534,5.4787,5.4235,5.3658,5.313,5.2929,5.2929,5.2929,5.2929,5.2929,5.2929,5.2929,5.3005,5.5092,5.5898,5.622,5.6114,5.6453,5.6798,5.6798,5.6798,5.6745,5.6562,5.6536,5.6484,5.6327,5.5909,5.5674,5.5674,5.5308,5.5099,5.5099,5.5099,5.5099,5.5099,5.5099,5.5099,5.5099,5.5099,5.5099,5.5099,5.5099,5.5032,5.4898,5.4951,5.5031,5.51,5.542,5.5572,5.5749,5.604,5.6219,5.6219,5.6219,5.6219,5.6219,5.6219,5.6219,5.6143,5.5591,5.5039,5.4536,5.4361,5.3683,5.2929,5.2929,5.2929,5.2929,5.2929,5.2929,5.2929,5.2929,5.2929,5.2929,5.2929,5.2929,5.2929,5.2929,5.2929,5.2929,5.2929,5.2929,5.2929,5.2929,5.2929,5.2929,5.2929,5.2929,5.2929,5.2929,5.2929,5.298,5.313,5.3482,5.3758,5.3934,5.4687,5.5214,5.5365,5.539,5.539,5.539,5.5541,5.5566,5.539,5.5917,5.6219,5.6219,5.6219,5.6219,5.6219,5.6219,5.6018,5.5641,5.5641,5.5114,5.421,5.4034,5.3658,5.3155,5.298,5.2929,5.2929,5.2929,5.3155,5.3457,5.3457,5.3733,5.4104,5.5742,5.634,5.6596,5.6476,5.6918,5.7268,5.7268,5.7338,5.7399,5.7163,5.7137,5.7059,5.685,5.6484,5.6275,5.6275,5.5752,5.5334,5.5125,5.5099,5.5099,5.5099,5.5099,5.5099,5.5099,5.5099,5.5099,5.5099,5.5099,5.5099,5.5099,5.5102,5.5158,5.5443,5.5695,5.5878,5.5893,5.6258,5.6365,5.6219,5.6219,5.6219,5.6219,5.6219,5.6219,5.6168,5.5842,5.5214,5.4561,5.4561,5.3833,5.2929,5.2929,5.2929,5.2929,5.2929,5.2929,5.2929,5.2929,5.2929,5.2929,5.2929,5.2929,5.2929,5.2929,5.2929,5.2929,5.2929,5.2929,5.2929,5.2929,5.2929,5.2929,5.2929,5.2929,5.2929,5.2929,5.2929,5.2929,5.2929,5.3206,5.3557,5.4009,5.4662,5.5139,5.5365,5.539,5.5189,5.4737,5.5139,5.529,5.5064,5.5817,5.6219,5.6219,5.6219,5.6219,5.6219,5.5993,5.5717,5.539,5.5164,5.4561,5.3708,5.3708,5.3406,5.2929,5.2929,5.2929,5.2955,5.3155,5.3432,5.3733,5.3959,5.426,5.4653,5.5681,5.6412,5.6801,5.6801,5.7354,5.7856,5.7856,5.8212,5.8269,5.7791,5.7739,5.7529,5.7007,5.6928,5.6876,5.6876,5.6327,5.5752,5.5203,5.5177,5.5151,5.5099,5.5099,5.5099,5.5099,5.5099,5.5099,5.5099,5.5099,5.5099,5.5099,5.4738,5.4889,5.5485,5.5666,5.5855,5.6035,5.6548,5.6583,5.6292,5.6219,5.6219,5.6219,5.6219,5.6168,5.6143,5.6143,5.544,5.4486,5.4436,5.3783,5.298,5.2955,5.2929,5.2929,5.2929,5.2929,5.2929,5.2929,5.2929,5.2929,5.2929,5.2929,5.2929,5.2929,5.2929,5.2929,5.2929,5.2929,5.2929,5.2929,5.2929,5.2929,5.2929,5.2929,5.2929,5.2929,5.2929,5.2929,5.2929,5.298,5.3406,5.4461,5.4612,5.4838,5.534,5.529,5.4787,5.3758,5.4687,5.5013,5.4511,5.5566,5.6118,5.6068,5.6118,5.6143,5.6118,5.5616,5.534,5.5214,5.4712,5.4185,5.3632,5.3632,5.3356,5.2929,5.2929,5.2955,5.3055,5.3507,5.3803,5.3903,5.4502,5.4703,5.4915,5.4199,5.5656,5.6801,5.6801,5.7163,5.7523,5.7523,5.781,5.7947,5.7914,5.8101,5.8287,5.8157,5.7739,5.7477,5.7477,5.6954,5.6353,5.5778,5.5726,5.5543,5.5125,5.5099,5.5099,5.5099,5.5099,5.5099,5.5099,5.5099,5.5099,5.5099,5.5032,5.5252,5.5799,5.5986,5.6346,5.6843,5.6836,5.6729,5.6656,5.6365,5.6219,5.6219,5.6219,5.5942,5.5566,5.5566,5.4838,5.3833,5.3406,5.3381,5.3457,5.3055,5.2929,5.2929,5.2929,5.2929,5.2929,5.2929,5.2929,5.2929,5.2929,5.2929,5.2929,5.2929,5.2929,5.2929,5.2929,5.2929,5.2929,5.2929,5.2929,5.2929,5.2929,5.2929,5.2929,5.2929,5.2929,5.2929,5.2929,5.3281,5.3808,5.4486,5.4963,5.5265,5.539,5.4561,5.3959,5.3708,5.3934,5.4009,5.3884,5.4988,5.5365,5.4938,5.534,5.5566,5.5566,5.544,5.4913,5.4059,5.3934,5.3607,5.3105,5.3105,5.303,5.2929,5.2929,5.3181,5.3557,5.3658,5.4309,5.5229,5.5331,5.5732,5.6358,5.3726,5.5189,5.651,5.651,5.6874,5.7163,5.7379,5.7667,5.7999,5.8141,5.8381,5.8523,5.8523,5.8261,5.7948,5.7756,5.7373,5.6954,5.6379,5.6327,5.6092,5.5517,5.5491,5.536,5.5125,5.5099,5.5099,5.5099,5.5099,5.5099,5.5099,5.5099,5.5255,5.5569,5.6226,5.6539,5.6667,5.7164,5.7163,5.6801,5.6583,5.6365,5.6194,5.5917,5.5641,5.5365,5.5089,5.4436,5.3632,5.3105,5.3105,5.3281,5.3005,5.2929,5.2929,5.2929,5.2929,5.2929,5.2929,5.2929,5.2929,5.2929,5.2929,5.2929,5.2929,5.2929,5.2929,5.2929,5.2929,5.2929,5.2929,5.2929,5.2929,5.2929,5.2929,5.2929,5.2929,5.2929,5.2929,5.2929,5.3381,5.4034,5.4888,5.5465,5.5566,5.5039,5.4436,5.3884,5.3356,5.3557,5.3708,5.3708,5.4536,5.4863,5.4561,5.4863,5.4863,5.4587,5.4587,5.4285,5.3683,5.3457,5.3181,5.2929,5.2929,5.2929,5.2929,5.2929,5.3231,5.3733,5.4009,5.4708,5.5618,5.59,5.6522,5.7399,5.3651,5.5041,5.6219,5.6219,5.651,5.6801,5.7235,5.7595,5.7927,5.8381,5.8452,5.8523,5.8523,5.8523,5.8314,5.7843,5.7817,5.7556,5.6981,5.6954,5.6693,5.6092,5.5961,5.57,5.5255,5.5151,5.5099,5.5099,5.5099,5.5099,5.5099,5.5099,5.5151,5.5282,5.6327,5.6643,5.6522,5.7487,5.7569,5.7019,5.6946,5.6656,5.6216,5.5735,5.5412,5.5164,5.4612,5.4059,5.3507,5.308,5.2929,5.2929,5.2929,5.2929,5.2929,5.2929,5.2929,5.2929,5.2929,5.2929,5.2929,5.2929,5.2929,5.2929,5.2929,5.2929,5.2929,5.2929,5.2929,5.2929,5.2929,5.2929,5.2929,5.2929,5.2929,5.2929,5.2929,5.2929,5.2929,5.2929,5.3457,5.4285,5.5415,5.5867,5.5691,5.4762,5.4536,5.4009,5.3105,5.3381,5.3557,5.3557,5.4135,5.4386,5.4285,5.4386,5.4135,5.3557,5.3557,5.3557,5.3557,5.313,5.2929,5.2929,5.2929,5.2929,5.2929,5.2929,5.3231,5.3758,5.4336,5.5101,5.5923,5.6667,5.738,5.8156,5.3425,5.5041,5.6219,5.6219,5.6219,5.6438,5.6801,5.7235,5.7595,5.7927,5.8284,5.8523,5.8523,5.8523,5.847,5.8392,5.8392,5.8157,5.7582,5.7556,5.7294,5.6719,5.6196,5.5883,5.5804,5.5334,5.5099,5.5099,5.5099,5.5099,5.5099,5.5099,5.536,5.583,5.651,5.7085,5.7512,5.7811,5.7856,5.7713,5.7451,5.7091,5.6653,5.6095,5.5375,5.4612,5.4034,5.3482,5.303,5.2955,5.2929,5.2929,5.2929,5.2929,5.2929,5.2929,5.2929,5.2929,5.2929,5.2929,5.2929,5.2929,5.2929,5.2929,5.2929,5.2929,5.2929,5.2929,5.2929,5.2929,5.2929,5.2929,5.2929,5.2929,5.2929,5.2929,5.2929,5.2929,5.2929,5.2929,5.3833,5.4888,5.5993,5.5742,5.544,5.529,5.4361,5.3758,5.3607,5.3231,5.303,5.303,5.3557,5.3607,5.3155,5.3582,5.3557,5.303,5.303,5.303,5.303,5.2955,5.2929,5.2929,5.2929,5.2929,5.2929,5.2929,5.3231,5.3758,5.4336,5.5453,5.6771,5.8173,5.8603,5.8704,5.335,5.5041,5.6219,5.6219,5.6219,5.6438,5.7019,5.7307,5.7595,5.8141,5.8381,5.8523,5.8523,5.8523,5.8523,5.8523,5.8523,5.8392,5.8157,5.8131,5.7869,5.732,5.7033,5.6588,5.5935,5.5674,5.5412,5.5099,5.5099,5.5099,5.5099,5.5099,5.5386,5.5935,5.6536,5.7137,5.7686,5.8049,5.807,5.7856,5.7713,5.7246,5.653,5.6065,5.5363,5.4569,5.3873,5.3475,5.3204,5.2998,5.2929,5.2929,5.2929,5.2929,5.2929,5.2929,5.2929,5.2929,5.2929,5.2929,5.2929,5.2929,5.2929,5.2929,5.2929,5.2929,5.2929,5.2929,5.2929,5.2929,5.2929,5.2929,5.2929,5.2929,5.2929,5.2929,5.2929,5.2929,5.3155,5.3758,5.426,5.4988,5.6118,5.5993,5.5717,5.5415,5.4913,5.4361,5.3733,5.3482,5.3231,5.2929,5.3155,5.3155,5.2929,5.3155,5.3155,5.2929,5.2929,5.2929,5.2929,5.2929,5.2929,5.2929,5.2929,5.2929,5.2929,5.2929,5.3432,5.4255,5.46,5.5796,5.7482,5.844,5.9075,5.9507]}]]